Date StartTime U_cm/s V_cm/s W_cm/s Ustd_cm/s Vstd_cm/s Wstd_cm/s Uvar_(cm/s)^2 Vvar_(cm/s)^2 Wvar_(cm/s)^2 KE_(m/s)^2 TurbulentKE_(m/s)^2 HorizWindSpeed_cm/s FrictionSpeec_cm/s DragCoef SpeedOfSound_m/s SonicTemperature_C Pressure_mb 
05/05/2013  00:00:00      -68.087       -0.478       -9.432       39.905       26.422       23.351     1592.377      698.141      545.284        0.378        0.142       68.088       16.102        0.056      338.496       11.186      853.267
05/05/2013  00:01:00      -71.220      -13.676      -11.378       31.173       21.160       17.162      971.756      447.760      294.533        0.355        0.086       72.521       16.485        0.052      338.488       11.173      853.269
05/05/2013  00:02:00      -62.421       -3.175       -5.949       35.484       31.020       17.298     1259.084      962.226      299.236        0.323        0.126       62.502       13.611        0.047      338.451       11.111      853.266
05/05/2013  00:03:00     -101.299        8.824       -6.118       39.347       29.482       21.833     1548.198      869.203      476.685        0.663        0.145      101.682       18.688        0.034      338.459       11.124      853.264
05/05/2013  00:04:00      -74.691        6.821       -3.453       41.831       31.811       27.284     1749.799     1011.926      744.406        0.457        0.175       75.002       27.610        0.136      338.418       11.056      853.280
05/05/2013  00:05:00      -69.579      -27.562      -16.754       13.358       12.074        8.534      178.447      145.770       72.822        0.314        0.020       74.839        3.446        0.002      338.496       11.188      853.292
05/05/2013  00:06:00      -23.397      -15.718       -2.963       27.378       17.550       11.365      749.569      307.996      129.157        0.099        0.059       28.186        9.736        0.119      338.605       11.371      853.291
05/05/2013  00:07:00      -98.784      -32.255      -13.782       14.737        9.748       10.514      217.173       95.030      110.542        0.571        0.021      103.917        9.142        0.008      338.533       11.251      853.283
05/05/2013  00:08:00      -76.906      -24.208       -9.670       17.691       11.687       10.051      312.974      136.576      101.015        0.357        0.028       80.626        8.189        0.010      338.496       11.186      853.284
05/05/2013  00:09:00      -68.407      -21.942      -11.029       14.704       10.907        7.243      216.193      118.956       52.461        0.284        0.019       71.840        5.722        0.006      338.491       11.180      853.286
05/05/2013  00:10:00      -22.702      -12.203       -5.291       15.827       11.743        9.396      250.509      137.900       88.293        0.058        0.024       25.774        6.464        0.063      338.448       11.106      853.289
05/05/2013  00:11:00      -48.783        6.761      -10.741        9.242        6.634        8.576       85.412       44.008       73.554        0.137        0.010       49.249        6.541        0.018      338.516       11.219      853.306
05/05/2013  00:12:00      -17.988       14.116       -6.277       19.179       16.197        8.325      367.819      262.344       69.302        0.063        0.035       22.865        5.982        0.068      338.763       11.637      853.312
05/05/2013  00:13:00      -24.360        2.474       -0.235       10.326       11.212       10.241      106.634      125.717      104.884        0.047        0.017       24.485        8.319        0.115      338.708       11.542      853.313
05/05/2013  00:14:00      -24.242       -6.235       -6.544        7.280        9.404        6.728       52.996       88.426       45.262        0.043        0.009       25.031        3.001        0.014      338.642       11.432      853.315
05/05/2013  00:15:00      -13.890       -3.958        0.354       14.620        7.190        9.625      213.740       51.693       92.643        0.028        0.018       14.443        6.902        0.228      338.704       11.536      853.318
05/05/2013  00:16:00      -25.115        1.372        4.092       16.253       12.739       11.036      264.150      162.283      121.791        0.060        0.027       25.153       10.069        0.160      338.700       11.527      853.318
05/05/2013  00:17:00      -11.798       11.379       -6.672       18.915       16.244        8.900      357.795      263.852       79.204        0.051        0.035       16.391        6.325        0.149      338.794       11.688      853.319
05/05/2013  00:18:00       11.841       16.326        4.489       17.005        8.829       14.721      289.167       77.948      216.721        0.051        0.029       20.168       10.160        0.254      338.747       11.611      853.317
05/05/2013  00:19:00       27.822       17.976        7.338       12.779       15.577        9.919      163.305      242.657       98.386        0.083        0.025       33.124        9.392        0.080      338.732       11.583      853.311
05/05/2013  00:20:00       48.043       35.554        6.695       17.093       11.282       10.190      292.157      127.287      103.837        0.207        0.026       59.768        8.276        0.019      338.767       11.642      853.307
05/05/2013  00:21:00       52.453       41.264        3.827       20.748       13.225       14.138      430.483      174.903      199.884        0.264        0.040       66.739       11.931        0.032      338.720       11.563      853.299
05/05/2013  00:22:00       54.717       23.183        5.540       22.070       16.199       13.078      487.072      262.404      171.037        0.224        0.046       59.425        7.576        0.016      338.655       11.455      853.298
05/05/2013  00:23:00       35.524        5.779        8.433       24.321       10.243       10.774      591.507      104.921      116.069        0.109        0.041       35.991       11.328        0.099      338.661       11.465      853.297
05/05/2013  00:24:00       52.768       18.746        6.814       15.713       13.743        9.990      246.883      188.875       99.803        0.186        0.027       55.999        4.374        0.006      338.678       11.493      853.299
05/05/2013  00:25:00       58.897       21.364       15.499       17.118       21.082       12.291      293.027      444.454      151.070        0.253        0.044       62.652        6.130        0.010      338.645       11.438      853.295
05/05/2013  00:26:00       64.152       54.723       34.652       27.343       22.593       24.642      747.622      510.430      607.237        0.509        0.093       84.321       14.159        0.028      338.751       11.613      853.286
05/05/2013  00:27:00       93.316       74.608       44.895       24.931       14.406       23.689      621.531      207.526      561.176        0.884        0.070      119.475        8.243        0.005      338.681       11.497      853.292
05/05/2013  00:28:00      128.695       79.946       34.754       22.668       22.363       20.954      513.841      500.100      439.076        1.281        0.073      151.505       11.283        0.006      338.687       11.507      853.296
05/05/2013  00:29:00      120.252       69.840       10.951       32.334       23.236       18.607     1045.501      539.933      346.202        1.069        0.097      139.062       10.124        0.005      338.710       11.546      853.295
05/05/2013  00:30:00       93.282       61.472       15.014       23.019       21.378       15.729      529.859      457.036      247.410        0.697        0.062      111.716       13.079        0.014      338.635       11.419      853.286
05/05/2013  00:31:00       86.495       66.258       27.890       18.495       13.731       13.284      342.069      188.531      176.472        0.668        0.035      108.956       10.981        0.010      338.605       11.370      853.278
05/05/2013  00:32:00      104.748       64.791       16.974       22.467       16.912       19.273      504.777      286.000      371.457        0.831        0.058      123.167       15.134        0.015      338.640       11.429      853.272
05/05/2013  00:33:00       81.027       56.591       15.137       31.987       16.335       20.525     1023.179      266.842      421.294        0.585        0.086       98.833       20.504        0.043      338.571       11.314      853.285
05/05/2013  00:34:00       86.269       54.767       23.512       19.454       13.346       18.522      378.454      178.108      343.072        0.595        0.045      102.185       15.270        0.022      338.534       11.253      853.290
05/05/2013  00:35:00       87.345       47.429       21.892       36.334       23.125       16.543     1320.134      534.747      273.656        0.624        0.106       99.392       13.118        0.017      338.498       11.191      853.285
05/05/2013  00:36:00       98.834       59.403       12.805       35.460       25.007       17.931     1257.383      625.355      321.536        0.783        0.110      115.312       18.614        0.026      338.544       11.268      853.293
05/05/2013  00:37:00       71.538       47.251        5.249       24.793       18.927       14.743      614.680      358.231      217.350        0.428        0.060       85.734        8.508        0.010      338.550       11.279      853.298
05/05/2013  00:38:00       54.572       31.035        8.029       19.523       16.194       11.781      381.132      262.251      138.797        0.239        0.039       62.780        5.811        0.009      338.606       11.372      853.304
05/05/2013  00:39:00       62.328       37.067       14.094       38.218       27.296       13.886     1460.581      745.095      192.814        0.393        0.120       72.517        5.934        0.007      338.667       11.475      853.302
05/05/2013  00:40:00       79.195       35.891       15.311       18.574       13.313       18.494      344.976      177.245      342.026        0.433        0.043       86.948       11.911        0.019      338.651       11.448      853.313
05/05/2013  00:41:00       84.991       48.863       26.982       21.202       15.098       21.194      449.512      227.953      449.181        0.573        0.056       98.036       12.078        0.015      338.651       11.447      853.320
05/05/2013  00:42:00      111.057       50.756       21.246       23.780       24.557       19.504      565.487      603.025      380.402        0.845        0.077      122.106       16.113        0.017      338.683       11.502      853.320
05/05/2013  00:43:00       97.424       50.030       25.426       21.434       21.039       19.638      459.407      442.652      385.652        0.696        0.064      109.520       12.214        0.012      338.690       11.512      853.322
05/05/2013  00:44:00       48.513       18.248       14.000       25.953       15.580       15.216      673.570      242.751      231.519        0.201        0.057       51.831       14.679        0.080      338.664       11.470      853.316
05/05/2013  00:45:00       55.512       43.832       23.061       15.345       12.476       16.148      235.469      155.650      260.751        0.309        0.033       70.730        9.378        0.018      338.703       11.534      853.316
05/05/2013  00:46:00       37.905       35.244       13.022       12.611       12.718       11.621      159.028      161.742      135.048        0.165        0.023       51.758        7.841        0.023      338.701       11.530      853.321
05/05/2013  00:47:00       40.296       34.060        5.564       20.610       14.545       11.352      424.764      211.544      128.874        0.179        0.038       52.762        8.056        0.023      338.707       11.541      853.316
05/05/2013  00:48:00       37.290       31.237        6.076       14.460        9.282        7.400      209.103       86.156       54.753        0.138        0.018       48.645        6.103        0.016      338.687       11.509      853.325
05/05/2013  00:49:00       24.434       21.795        2.665       13.458        9.411        9.143      181.107       88.563       83.592        0.072        0.018       32.742        6.666        0.041      338.726       11.573      853.336
05/05/2013  00:50:00        4.181        9.984        0.329       10.091       11.036        7.149      101.821      121.786       51.107        0.020        0.014       10.824        5.012        0.214      338.726       11.573      853.347
05/05/2013  00:51:00      -54.436      -13.687       -5.591       24.804       15.471       10.987      615.258      239.341      120.714        0.208        0.049       56.130       12.855        0.052      338.473       11.148      853.350
05/05/2013  00:52:00      -92.396      -27.526      -12.076       29.470       21.799       15.640      868.484      475.200      244.595        0.551        0.079       96.409       13.227        0.019      338.223       10.728      853.352
05/05/2013  00:53:00     -109.630        0.437      -11.969       27.032       24.150       17.007      730.739      583.235      289.252        0.688        0.080      109.631       11.105        0.010      338.173       10.645      853.355
05/05/2013  00:54:00      -72.023      -21.523      -10.652       17.992       16.922       14.034      323.716      286.342      196.956        0.329        0.040       75.170        9.675        0.017      338.172       10.643      853.355
05/05/2013  00:55:00      -38.813      -15.263        0.757       25.516       16.760       17.113      651.089      280.897      292.859        0.148        0.061       41.706       12.843        0.095      338.125       10.564      853.367
05/05/2013  00:56:00      -44.016      -38.602       -7.171       24.968       21.208       13.982      623.392      449.770      195.483        0.237        0.063       58.545       10.378        0.031      338.163       10.628      853.376
05/05/2013  00:57:00      -64.896      -16.176       -4.721       29.371       16.481       13.588      862.668      271.613      184.647        0.291        0.066       66.881       15.521        0.054      338.104       10.529      853.381
05/05/2013  00:58:00      -48.575      -17.038        0.564       16.211       17.508       13.989      262.798      306.518      195.700        0.171        0.038       51.477        8.117        0.025      338.154       10.612      853.379
05/05/2013  00:59:00      -40.857      -16.168       -4.164        7.930       10.833        9.063       62.879      117.347       82.139        0.111        0.013       43.939        4.932        0.013      338.225       10.732      853.373
05/05/2013  01:00:00      -48.280      -14.055      -11.927       10.696       12.982        6.975      114.415      168.533       48.652        0.150        0.017       50.284        4.057        0.007      338.293       10.845      853.373
05/05/2013  01:01:00      -39.186      -15.756        2.055       11.339       11.075        6.916      128.574      122.657       47.835        0.104        0.015       42.235        4.629        0.012      338.268       10.805      853.370
05/05/2013  01:02:00      -24.578       -2.387        1.770       14.650       16.768       10.782      214.627      281.178      116.243        0.061        0.031       24.693        9.691        0.154      338.336       10.920      853.362
05/05/2013  01:03:00       -5.499       -7.706        5.148        9.356       17.003       10.636       87.534      289.090      113.129        0.030        0.024        9.467       11.056        1.364      338.467       11.138      853.354
05/05/2013  01:04:00      -15.108       -9.070        2.705       16.732       11.210        8.651      279.955      125.672       74.839        0.040        0.024       17.621        4.014        0.052      338.381       10.995      853.352
05/05/2013  01:05:00      -24.222       -6.447        2.036        9.771        9.287        5.297       95.479       86.243       28.061        0.042        0.010       25.066        4.481        0.032      338.309       10.873      853.359
05/05/2013  01:06:00       -8.581        6.010        0.899        7.363        5.782        3.852       54.209       33.429       14.836        0.011        0.005       10.476        1.984        0.036      338.380       10.992      853.367
05/05/2013  01:07:00        3.727        6.834        7.527        7.779        7.375        8.765       60.508       54.393       76.821        0.015        0.010        7.785        5.279        0.460      338.478       11.158      853.380
05/05/2013  01:08:00       -4.429      -12.403        0.818        8.025        7.507        5.850       64.398       56.350       34.223        0.016        0.008       13.170        4.909        0.139      338.494       11.184      853.390
05/05/2013  01:09:00      -16.079      -19.260       -1.772        9.553        5.988        4.774       91.263       35.858       22.793        0.039        0.007       25.090        2.840        0.013      338.392       11.014      853.392
05/05/2013  01:10:00      -12.793      -14.413       -3.591       10.135        9.928        4.291      102.724       98.570       18.416        0.030        0.011       19.272        0.946        0.002      338.358       10.954      853.386
05/05/2013  01:11:00      -18.159      -14.704       -5.535       10.956       12.950        9.012      120.024      167.715       81.223        0.047        0.018       23.365        5.048        0.047      338.290       10.841      853.376
05/05/2013  01:12:00      -46.132      -25.099       -4.881       24.064       14.423        9.525      579.052      208.030       90.730        0.183        0.044       52.518        2.232        0.002      338.179       10.655      853.365
05/05/2013  01:13:00      -77.278      -25.930       -2.791       16.640       10.068       10.658      276.890      101.355      113.590        0.357        0.025       81.512        8.448        0.011      338.157       10.616      853.362
05/05/2013  01:14:00      -88.942      -16.085      -11.603       12.323       12.781       12.009      151.858      163.356      144.209        0.438        0.023       90.385       10.491        0.013      338.118       10.551      853.353
05/05/2013  01:15:00     -100.720      -21.631       -7.369        8.136       16.499        6.292       66.202      272.231       39.594        0.552        0.019      103.017        6.520        0.004      338.057       10.450      853.351
05/05/2013  01:16:00      -99.276      -40.311      -12.139        9.679       13.058        9.933       93.678      170.511       98.671        0.600        0.018      107.148        3.862        0.001      338.050       10.438      853.347
05/05/2013  01:17:00      -68.511      -17.180      -11.528       16.066       20.147       11.169      258.116      405.896      124.743        0.296        0.039       70.632       10.570        0.022      338.013       10.376      853.354
05/05/2013  01:18:00      -61.388       -3.723       -4.584       21.088       13.945       12.384      444.712      194.475      153.357        0.230        0.040       61.501       13.010        0.045      338.021       10.391      853.363
05/05/2013  01:19:00      -70.121       -5.169      -11.180       15.813       13.371       12.229      250.050      178.782      149.558        0.282        0.029       70.312        9.651        0.019      338.054       10.444      853.363
05/05/2013  01:20:00      -58.120      -30.661       -9.798       18.813       18.814       12.620      353.925      353.948      159.266        0.264        0.043       65.712        7.212        0.012      338.100       10.522      853.361
05/05/2013  01:21:00      -78.472      -27.569      -14.533       17.941       15.290       10.054      321.882      233.798      101.086        0.389        0.033       83.174        7.632        0.008      337.994       10.345      853.363
05/05/2013  01:22:00      -76.645      -23.274       -6.476       23.754       19.600       13.091      564.262      384.157      171.365        0.379        0.056       80.101       13.910        0.030      337.921       10.222      853.354
05/05/2013  01:23:00      -98.393       -6.453       -2.317       26.292       15.687       13.926      691.288      246.079      193.926        0.543        0.057       98.605       10.604        0.012      337.816       10.045      853.355
05/05/2013  01:24:00      -94.171       -9.535      -13.671       13.697       10.024       11.343      187.596      100.483      128.667        0.478        0.021       94.653        4.845        0.003      337.813       10.042      853.349
05/05/2013  01:25:00      -67.210      -23.385      -14.876       27.485       17.332       13.201      755.402      300.403      174.280        0.326        0.062       71.162       14.175        0.040      337.801       10.021      853.339
05/05/2013  01:26:00      -44.320       -9.173       -4.058       22.969       16.704       11.727      527.584      279.023      137.518        0.150        0.047       45.259       11.228        0.062      337.792       10.005      853.333
05/05/2013  01:27:00      -31.546       -1.718        6.106       22.226       21.022       16.364      494.011      441.934      267.775        0.112        0.060       31.592       10.948        0.120      337.752        9.938      853.315
05/05/2013  01:28:00      -56.306       -8.089      -10.376       12.285       14.987       11.470      150.924      224.610      131.551        0.193        0.025       56.885        7.207        0.016      337.790       10.004      853.291
05/05/2013  01:29:00      -40.081       -4.842       -4.909        7.974        9.521        5.869       63.588       90.647       34.442        0.092        0.009       40.373        5.142        0.016      337.965       10.298      853.275
05/05/2013  01:30:00      -11.367       -7.013       -3.108       11.800        9.816        6.013      139.234       96.351       36.151        0.023        0.014       13.356        6.479        0.235      337.975       10.311      853.260
05/05/2013  01:31:00      -12.012       -0.854       -1.874        5.161        5.217        4.677       26.637       27.219       21.877        0.011        0.004       12.042        3.305        0.075      338.021       10.392      853.248
05/05/2013  01:32:00      -17.217       -8.570        7.533        5.254        5.895        7.154       27.604       34.757       51.184        0.027        0.006       19.232        3.968        0.043      338.126       10.565      853.246
05/05/2013  01:33:00      -17.893      -15.753        2.729       23.224       10.181       13.206      539.337      103.659      174.412        0.070        0.041       23.839       11.370        0.227      338.027       10.401      853.234
05/05/2013  01:34:00      -61.310      -26.273       -4.129       23.909       13.521        8.705      571.655      182.824       75.779        0.265        0.042       66.702        7.354        0.012      337.854       10.109      853.229
05/05/2013  01:35:00      -77.285      -22.097       -6.206       14.876       10.253        7.391      221.302      105.128       54.622        0.344        0.019       80.382        4.281        0.003      337.849       10.101      853.223
05/05/2013  01:36:00      -89.455      -23.773      -11.686       10.180       10.814        9.660      103.629      116.943       93.318        0.451        0.016       92.560        4.540        0.002      337.869       10.134      853.227
05/05/2013  01:37:00      -62.611      -14.516       -9.867       13.268       12.189        8.456      176.052      148.582       71.512        0.231        0.020       64.271        5.429        0.007      337.822       10.057      853.215
05/05/2013  01:38:00      -59.830      -21.890       -9.188        9.830        8.732        5.783       96.619       76.240       33.440        0.217        0.010       63.708        4.035        0.004      337.831       10.070      853.204
05/05/2013  01:39:00      -59.745      -27.615       -8.351        8.342        8.639        7.496       69.587       74.626       56.186        0.230        0.010       65.818        2.563        0.002      337.914       10.211      853.202
05/05/2013  01:40:00      -79.469      -26.297       -5.972       10.439        9.977        7.356      108.981       99.545       54.117        0.365        0.013       83.707        4.862        0.003      337.922       10.223      853.204
05/05/2013  01:41:00      -66.012      -32.491       -4.499       22.430       11.134       11.148      503.096      123.974      124.277        0.309        0.038       73.575       10.644        0.021      337.874       10.144      853.203
05/05/2013  01:42:00      -77.426      -29.328       -7.854       10.357       10.759        8.644      107.259      115.758       74.715        0.361        0.015       82.794        4.465        0.003      337.940       10.253      853.198
05/05/2013  01:43:00      -94.768      -35.843       -8.213       18.120       11.670        9.466      328.326      136.194       89.602        0.544        0.028      101.320        9.230        0.008      337.931       10.238      853.195
05/05/2013  01:44:00      -77.995      -16.050       -4.177       14.607       11.262       10.467      213.367      126.822      109.552        0.340        0.022       79.629        7.780        0.010      337.894       10.176      853.180
05/05/2013  01:45:00      -55.321      -22.716       -6.244       27.658       17.488        8.242      764.945      305.826       67.934        0.238        0.057       59.803        6.529        0.012      337.842       10.087      853.162
05/05/2013  01:46:00      -45.513      -25.881        3.398       24.091       16.535       12.232      580.360      273.410      149.626        0.188        0.050       52.357       10.445        0.040      337.927       10.231      853.155
05/05/2013  01:47:00      -34.570      -15.303        0.625       24.803       14.053       11.710      615.189      197.494      137.130        0.119        0.047       37.805       14.440        0.146      337.893       10.175      853.149
05/05/2013  01:48:00      -78.076       -6.256       -7.660       17.650       11.086       10.263      311.513      122.890      105.332        0.337        0.027       78.327        8.408        0.012      337.847       10.098      853.160
05/05/2013  01:49:00      -80.842      -13.130       -6.967       20.146       11.046       10.116      405.877      122.023      102.338        0.369        0.032       81.902        8.715        0.011      337.814       10.043      853.175
05/05/2013  01:50:00      -91.493      -27.438       -4.542       24.045       21.878       16.040      578.173      478.643      257.292        0.523        0.066       95.519       15.545        0.026      337.749        9.932      853.179
05/05/2013  01:51:00      -54.220      -56.273        3.399       38.782       24.629       16.746     1504.072      606.582      280.425        0.425        0.120       78.144       14.095        0.033      337.902       10.190      853.172
05/05/2013  01:52:00      -36.987      -29.919        8.598       42.848       25.719       18.154     1835.930      661.458      329.556        0.258        0.141       47.573       19.452        0.167      337.865       10.128      853.157
05/05/2013  01:53:00      -79.083      -27.778       -0.495       27.700       18.696       13.127      767.302      349.556      172.317        0.416        0.064       83.820        8.903        0.011      337.803       10.024      853.134
05/05/2013  01:54:00      -53.204      -25.713        3.883       27.578       21.337       13.027      760.567      455.259      169.715        0.245        0.069       59.092        9.875        0.028      337.787        9.997      853.120
05/05/2013  01:55:00      -71.981      -38.101        3.134       30.149       20.196       14.523      908.932      407.882      210.922        0.408        0.076       81.443       13.405        0.027      337.863       10.123      853.116
05/05/2013  01:56:00      -99.660      -33.930        0.757       22.299       19.407       12.291      497.245      376.647      151.066        0.605        0.051      105.278       12.415        0.014      337.842       10.090      853.107
05/05/2013  01:57:00     -107.846      -14.814       -6.534       19.354       15.614       12.891      374.593      243.802      166.182        0.634        0.039      108.859       11.095        0.010      337.737        9.914      853.085
05/05/2013  01:58:00      -90.662      -16.781       -9.330       14.743       13.455        9.871      217.343      181.035       97.437        0.454        0.025       92.202        6.884        0.006      337.679        9.816      853.074
05/05/2013  01:59:00      -74.132      -44.322       -1.396       17.866       20.903       13.345      319.196      436.934      178.091        0.420        0.047       86.371        8.896        0.011      337.694        9.840      853.056
05/05/2013  02:00:00      -79.884      -43.531       -8.532       19.539       15.421       13.573      381.786      237.807      184.227        0.458        0.040       90.974       10.386        0.013      337.693        9.841      853.045
05/05/2013  02:01:00      -48.281      -27.656        0.860       49.998       19.854       15.119     2499.844      394.190      228.599        0.311        0.156       55.641       24.308        0.191      337.680        9.818      853.043
05/05/2013  02:02:00      -81.187      -43.167       -5.182       22.856       14.178       15.696      522.416      201.011      246.373        0.473        0.048       91.949       14.363        0.024      337.616        9.710      853.034
05/05/2013  02:03:00      -88.453      -43.953       -5.119       15.507       12.649        9.848      240.477      159.990       96.991        0.514        0.025       98.772        6.628        0.005      337.617        9.710      853.023
05/05/2013  02:04:00      -72.095      -32.338       -9.658       14.363       13.994       12.115      206.309      195.845      146.767        0.344        0.027       79.015        3.154        0.002      337.647        9.763      853.009
05/05/2013  02:05:00      -63.248      -30.350      -10.564       13.716       10.435        8.762      188.139      108.899       76.780        0.270        0.019       70.153        7.395        0.011      337.636        9.744      852.997
05/05/2013  02:06:00      -53.023      -28.842       -9.312       24.197       11.860       10.214      585.506      140.648      104.335        0.228        0.042       60.360        8.995        0.022      337.543        9.587      852.981
05/05/2013  02:07:00      -59.761      -26.903       -5.689       18.935       18.101       10.846      358.533      327.645      117.646        0.257        0.040       65.537        6.639        0.010      337.605        9.692      852.969
05/05/2013  02:08:00      -51.896      -17.949       -3.225       22.001       21.450       16.280      484.045      460.088      265.044        0.212        0.060       54.913       14.566        0.070      337.471        9.467      852.966
05/05/2013  02:09:00      -75.065      -40.253       -2.848       27.719       30.169       18.158      768.341      910.145      329.702        0.464        0.100       85.176       17.044        0.040      337.505        9.524      852.965
05/05/2013  02:10:00      -45.566      -15.447        3.813       39.972       27.173       24.662     1597.791      738.377      608.199        0.264        0.147       48.113       13.567        0.080      337.546        9.593      852.962
05/05/2013  02:11:00      -44.706      -35.333       -2.418       54.328       26.140       22.318     2951.492      683.313      498.074        0.369        0.207       56.983       29.111        0.261      337.507        9.525      852.944
05/05/2013  02:12:00      -89.476      -11.733       -8.856       53.443       24.383       24.482     2856.131      594.554      599.392        0.614        0.203       90.242       30.188        0.112      337.415        9.372      852.928
05/05/2013  02:13:00     -118.094      -13.687      -19.203       30.053       19.564       14.136      903.180      382.733      199.813        0.799        0.074      118.885       10.473        0.008      337.369        9.298      852.908
05/05/2013  02:14:00     -139.005      -22.388      -16.881       24.091       25.206       15.503      580.375      635.360      240.354        1.078        0.073      140.796        7.120        0.003      337.377        9.310      852.896
05/05/2013  02:15:00     -102.464      -40.789       -1.347       57.028       27.182       20.087     3252.174      738.879      403.488        0.828        0.220      110.284       23.468        0.045      337.328        9.228      852.887
05/05/2013  02:16:00      -53.807      -12.569      -14.469       46.325       38.163       19.792     2145.984     1456.415      391.727        0.363        0.200       55.256       14.318        0.067      337.419        9.378      852.874
05/05/2013  02:17:00     -107.716      -21.147       -9.392       38.417       28.756       19.400     1475.874      826.895      376.350        0.741        0.134      109.772       17.293        0.025      337.366        9.293      852.870
05/05/2013  02:18:00      -90.832      -31.986       -1.040       24.127       33.085       18.065      582.109     1094.600      326.344        0.564        0.100       96.299       11.643        0.015      337.378        9.312      852.854
05/05/2013  02:19:00      -95.650      -33.634        1.983       36.174       47.208       25.973     1308.542     2228.629      674.606        0.725        0.211      101.391       18.632        0.034      337.382        9.320      852.853
05/05/2013  02:20:00     -196.691       41.662      -11.098       26.909       28.204       17.797      724.118      795.454      316.737        2.119        0.092      201.055       14.358        0.005      337.410        9.363      852.846
05/05/2013  02:21:00     -143.895       17.786       -7.618       37.936       42.782       17.001     1439.136     1830.319      289.034        1.232        0.178      144.990        9.135        0.004      337.377        9.311      852.847
05/05/2013  02:22:00     -123.617       14.423      -17.607       23.409       28.061       17.160      547.969      787.397      294.454        0.871        0.081      124.455       11.506        0.009      337.366        9.292      852.848
05/05/2013  02:23:00      -58.185      -20.839       -3.699       28.094       18.390       16.803      789.284      338.196      282.346        0.262        0.070       61.804       14.801        0.057      337.351        9.266      852.857
05/05/2013  02:24:00     -104.251       -9.365       -9.092       26.832       24.685       21.627      719.975      609.348      467.711        0.642        0.090      104.671       19.412        0.034      337.349        9.264      852.855
05/05/2013  02:25:00      -87.705      -13.933       -1.779       34.759       27.693       21.604     1208.179      766.924      466.743        0.517        0.122       88.805       21.321        0.058      337.260        9.114      852.846
05/05/2013  02:26:00      -52.364      -37.529        2.470       24.286       35.974       19.627      589.804     1294.107      385.208        0.321        0.113       64.424       15.169        0.055      337.267        9.126      852.846
05/05/2013  02:27:00      -60.259      -35.518       -0.896       45.689       30.315       19.934     2087.449      919.012      397.348        0.415        0.170       69.947       19.943        0.081      337.357        9.276      852.830
05/05/2013  02:28:00      -52.736      -11.590        6.760       40.648       28.811       17.612     1652.285      830.068      310.177        0.288        0.140       53.995       18.564        0.118      337.294        9.173      852.812
05/05/2013  02:29:00      -75.797      -13.048        0.710       22.156       20.753       14.629      490.891      430.707      214.008        0.353        0.057       76.912        9.355        0.015      337.374        9.305      852.798
05/05/2013  02:30:00      -34.934      -29.094       -4.457       28.746       15.307       15.432      826.335      234.290      238.156        0.169        0.065       45.462       16.373        0.130      337.428        9.395      852.783
05/05/2013  02:31:00      -25.516      -34.338        4.619       31.504       25.644       15.963      992.523      657.622      254.813        0.188        0.095       42.781       16.318        0.145      337.424        9.387      852.771
05/05/2013  02:32:00      -42.179      -30.264        4.658       38.097       20.489       16.661     1451.373      419.789      277.599        0.243        0.107       51.913       17.834        0.118      337.467        9.462      852.771
05/05/2013  02:33:00      -22.202      -32.437        8.550       23.743       20.919       18.762      563.719      437.597      352.030        0.149        0.068       39.308       15.247        0.150      337.538        9.578      852.789
05/05/2013  02:34:00      -58.162      -45.624        4.114       20.421       20.992       13.717      417.031      440.672      188.145        0.326        0.052       73.921       10.697        0.021      337.487        9.493      852.785
05/05/2013  02:35:00      -28.211      -35.089       -1.680       26.506       11.861       12.550      702.575      140.695      157.506        0.152        0.050       45.023        9.276        0.042      337.522        9.553      852.771
05/05/2013  02:36:00      -28.474      -39.290        0.572       23.996       18.447       18.957      575.816      340.276      359.351        0.181        0.064       48.523       16.031        0.109      337.499        9.514      852.757
05/05/2013  02:37:00      -37.969      -42.197        0.793       35.396       24.462       23.870     1252.842      598.387      569.779        0.282        0.121       56.765       24.426        0.185      337.558        9.613      852.751
05/05/2013  02:38:00      -32.461      -41.394        8.480       31.416       24.940       19.258      986.942      622.007      370.870        0.241        0.099       52.604       18.174        0.119      337.478        9.479      852.737
05/05/2013  02:39:00      -53.540      -65.105        5.092       42.608       41.509       21.172     1815.458     1723.010      448.253        0.556        0.199       84.292       22.799        0.073      337.406        9.358      852.716
05/05/2013  02:40:00      -99.478      -98.906      -10.192       36.665       35.682       24.165     1344.355     1273.182      583.964        1.149        0.160      140.279       18.441        0.017      337.371        9.299      852.699
05/05/2013  02:41:00     -139.148     -119.515       -8.999       42.401       32.741       27.229     1797.839     1071.987      741.444        1.867        0.181      183.428       13.898        0.006      337.330        9.231      852.675
05/05/2013  02:42:00     -117.292     -103.382       -3.067       48.875       38.035       29.740     2388.752     1446.651      884.490        1.459        0.236      156.350       21.755        0.019      337.261        9.115      852.663
05/05/2013  02:43:00     -131.299      -92.588       -3.733       36.745       47.000       29.297     1350.164     2208.959      858.340        1.512        0.221      160.661       23.077        0.021      337.251        9.098      852.658
05/05/2013  02:44:00     -110.614      -86.630       -1.351       53.138       43.407       22.285     2823.605     1884.150      496.601        1.247        0.260      140.500       23.743        0.029      337.224        9.054      852.644
05/05/2013  02:45:00      -64.609      -62.078        4.254       51.503       38.935       19.958     2652.514     1515.916      398.323        0.631        0.228       89.599       26.306        0.086      337.217        9.042      852.624
05/05/2013  02:46:00      -85.216      -54.510        1.077       41.430       33.904       28.597     1716.415     1149.460      817.776        0.696        0.184      101.159       20.891        0.043      337.219        9.046      852.601
05/05/2013  02:47:00     -101.673      -33.108       -5.908       24.078       26.770       15.626      579.770      716.654      244.168        0.650        0.077      106.927       11.770        0.012      337.247        9.093      852.581
05/05/2013  02:48:00      -85.539       -6.300       -0.783       31.042       31.944       17.191      963.631     1020.416      295.525        0.482        0.114       85.771       12.017        0.020      337.120        8.879      852.571
05/05/2013  02:49:00      -83.883       -6.642        0.992       37.500       33.314       19.867     1406.216     1109.813      394.683        0.500        0.146       84.146       16.252        0.037      336.965        8.620      852.566
05/05/2013  02:50:00     -145.549       20.746       -5.705       39.762       30.522       25.046     1581.003      931.611      627.300        1.239        0.157      147.020       22.777        0.024      336.868        8.458      852.551
05/05/2013  02:51:00      -93.978      -13.837        4.239       41.277       34.231       24.820     1703.786     1171.749      616.038        0.627        0.175       94.991       25.896        0.074      336.826        8.387      852.525
05/05/2013  02:52:00     -116.407      -34.368       -9.397       33.107       28.858       17.441     1096.055      832.764      304.187        0.853        0.112      121.375       15.073        0.015      336.857        8.441      852.510
05/05/2013  02:53:00     -120.686      -81.388       -8.629       23.459       19.470       18.816      550.314      379.100      354.034        1.127        0.064      145.565       12.283        0.007      336.890        8.496      852.493
05/05/2013  02:54:00     -151.693      -64.735       -6.867       30.897       28.304       17.491      954.637      801.126      305.942        1.465        0.103      164.929        9.376        0.003      336.907        8.523      852.477
05/05/2013  02:55:00     -143.319      -76.858       -9.577       25.950       27.227       25.125      673.389      741.328      631.266        1.429        0.102      162.627       15.557        0.009      336.910        8.528      852.446
05/05/2013  02:56:00      -54.244      -39.958       -5.179       55.783       40.012       27.701     3111.758     1600.992      767.347        0.502        0.274       67.373       26.265        0.152      336.980        8.645      852.413
05/05/2013  02:57:00     -125.916      -70.412       -3.919       39.141       29.197       27.039     1531.988      852.462      731.089        1.197        0.156      144.266       25.156        0.030      337.045        8.753      852.381
05/05/2013  02:58:00     -139.490       -7.177       -8.277       44.743       43.296       27.412     2001.936     1874.544      751.436        1.210        0.231      139.675       26.911        0.037      336.906        8.521      852.354
05/05/2013  02:59:00     -126.883        6.019       -3.548       54.050       29.343       29.049     2921.365      861.006      843.863        1.039        0.231      127.025       31.265        0.061      336.838        8.408      852.328
05/05/2013  03:00:00      -72.511       -2.984        3.912       62.108       33.704       25.892     3857.455     1135.944      670.394        0.547        0.283       72.573       22.130        0.093      336.929        8.559      852.316
05/05/2013  03:01:00      -69.647       20.237        1.878       43.888       24.747       22.440     1926.131      612.421      503.540        0.415        0.152       72.527       19.833        0.075      336.887        8.489      852.324
05/05/2013  03:02:00      -77.848        0.943       -6.893       28.464       18.811       14.409      810.194      353.852      207.628        0.374        0.069       77.854       12.526        0.026      336.905        8.518      852.318
05/05/2013  03:03:00      -74.645      -38.956      -16.895       26.617       18.643       10.647      708.478      347.559      113.362        0.427        0.058       84.199        8.106        0.009      336.945        8.586      852.306
05/05/2013  03:04:00      -67.446      -48.567       -0.694       45.877       33.874       24.764     2104.710     1147.430      613.273        0.539        0.193       83.112       26.152        0.099      337.072        8.798      852.304
05/05/2013  03:05:00      -32.468      -35.211       -1.442       42.111       34.651       26.434     1773.337     1200.679      698.782        0.298        0.184       47.896       22.247        0.216      337.069        8.792      852.324
05/05/2013  03:06:00      -34.726      -43.767        5.262       43.479       30.991       22.346     1890.439      960.469      499.341        0.325        0.168       55.869       22.470        0.162      336.962        8.615      852.378
05/05/2013  03:07:00      -42.029      -36.496        1.152       32.297       19.955       16.631     1043.111      398.184      276.588        0.241        0.086       55.663       15.370        0.076      337.096        8.839      852.424
05/05/2013  03:08:00      -76.853      -57.785        6.301       56.065       34.184       22.813     3143.296     1168.526      520.431        0.706        0.242       96.154       30.080        0.098      337.062        8.781      852.443
05/05/2013  03:09:00      -91.550      -73.216        1.277       40.122       31.224       21.180     1609.791      974.941      448.607        0.839        0.152      117.226       20.040        0.029      337.161        8.947      852.467
05/05/2013  03:10:00      -97.587      -91.817       -9.332       35.924       42.374       24.290     1290.523     1795.593      590.001        1.086        0.184      133.990       20.002        0.022      337.234        9.072      852.506
05/05/2013  03:11:00     -109.312      -80.681       -5.231       68.971       44.337       33.708     4756.933     1965.803     1136.199        1.317        0.393      135.862       25.268        0.035      337.174        8.969      852.540
05/05/2013  03:12:00     -146.096     -141.944      -13.310       63.045       41.588       32.695     3974.725     1729.544     1068.977        2.422        0.339      203.696       30.339        0.022      337.063        8.780      852.554
05/05/2013  03:13:00     -170.521     -103.770        1.247       54.401       46.689       35.572     2959.441     2179.839     1265.382        2.312        0.320      199.614       33.442        0.028      337.088        8.824      852.565
05/05/2013  03:14:00     -114.818      -83.370        4.120       70.964       56.205       32.612     5035.868     3158.979     1063.571        1.470        0.463      141.894       39.491        0.077      337.188        8.994      852.588
05/05/2013  03:15:00     -116.130      -89.865        6.977       69.342       47.922       32.504     4808.381     2296.508     1056.480        1.488        0.408      146.840       36.893        0.063      337.285        9.155      852.604
05/05/2013  03:16:00     -126.692      -78.964        3.108       47.630       39.984       22.522     2268.654     1598.687      507.230        1.333        0.219      149.286       22.160        0.022      337.368        9.295      852.609
05/05/2013  03:17:00     -112.396      -66.252        5.307       44.545       37.603       26.072     1984.232     1414.016      679.729        1.056        0.204      130.469       22.119        0.029      337.401        9.350      852.619
05/05/2013  03:18:00      -73.812      -46.029        7.546       60.136       26.464       21.861     3616.314      700.333      477.903        0.621        0.240       86.987       25.063        0.083      337.404        9.355      852.642
05/05/2013  03:19:00      -35.226      -41.962        8.072       43.417       32.717       20.000     1885.024     1070.410      399.994        0.321        0.168       54.788       17.648        0.104      337.337        9.243      852.649
05/05/2013  03:20:00      -75.135      -62.485       -7.625       43.608       27.233       19.223     1901.650      741.631      369.505        0.631        0.151       97.722       19.304        0.039      337.264        9.122      852.658
05/05/2013  03:21:00      -35.412       -1.251        5.136       22.252       20.307       15.440      495.162      412.373      238.406        0.121        0.057       35.434       14.454        0.166      337.230        9.067      852.677
05/05/2013  03:22:00     -110.167       22.724       -3.457       22.825       15.758       11.074      520.965      248.318      122.626        0.678        0.045      112.486       10.044        0.008      337.139        8.911      852.700
05/05/2013  03:23:00      -84.438       -4.062      -12.384       38.461       22.970       14.791     1479.254      527.625      218.764        0.476        0.111       84.536       18.449        0.048      337.122        8.883      852.730
05/05/2013  03:24:00     -101.950      -32.222       -8.379       17.552       14.938       11.494      308.057      223.130      132.104        0.608        0.033      106.921       10.257        0.009      337.127        8.891      852.744
05/05/2013  03:25:00      -38.074      -37.168        3.920       26.258       16.276       15.199      689.469      264.896      231.008        0.202        0.059       53.208       12.827        0.058      337.276        9.141      852.769
05/05/2013  03:26:00      -40.232      -28.256        1.010       26.522       16.650       17.089      703.419      277.217      292.046        0.185        0.064       49.163       17.356        0.125      337.254        9.105      852.793
05/05/2013  03:27:00       -8.327      -27.143        8.821       15.052       23.869       16.280      226.555      569.750      265.050        0.097        0.053       28.391        9.544        0.113      337.343        9.253      852.823
05/05/2013  03:28:00      -25.341      -21.680       -3.352       18.438       17.830       12.622      339.976      317.904      159.322        0.097        0.041       33.349        7.162        0.046      337.435        9.406      852.851
05/05/2013  03:29:00       -5.464      -28.359       -0.170       17.294       19.923       12.823      299.083      396.915      164.420        0.085        0.043       28.881        8.485        0.086      337.482        9.485      852.893
05/05/2013  03:30:00       -3.656      -14.257        4.119       17.781       16.890       17.956      316.177      285.265      322.406        0.058        0.046       14.718       15.982        1.179      337.588        9.664      852.934
05/05/2013  03:31:00      -44.662      -49.594        7.659       38.123       40.675       21.080     1453.397     1654.473      444.362        0.403        0.178       66.740       21.224        0.101      337.485        9.489      852.964
05/05/2013  03:32:00      -92.548      -73.164        0.085       63.864       57.304       36.344     4078.644     3283.737     1320.921        1.130        0.434      117.975       24.817        0.044      337.351        9.267      852.998
05/05/2013  03:33:00     -109.248     -104.228      -15.807       87.563       63.172       46.630     7667.287     3990.759     2174.391        1.844        0.692      150.992       41.554        0.076      337.079        8.810      853.029
05/05/2013  03:34:00      -58.465      -31.094       18.615       64.073       39.755       32.025     4105.406     1580.473     1025.595        0.572        0.336       66.219       20.023        0.091      336.998        8.673      853.024
05/05/2013  03:35:00     -124.637      -90.453       10.560       93.928       71.284       43.978     8822.443     5081.460     1934.105        1.983        0.792      154.000       43.747        0.081      336.944        8.583      853.046
05/05/2013  03:36:00     -189.324     -102.312       -4.724      114.945       68.713       46.754    13212.375     4721.517     2185.948        3.322        1.006      215.201       46.260        0.046      336.799        8.341      853.065
05/05/2013  03:37:00     -124.128      -84.216        0.932       72.407       44.525       29.209     5242.716     1982.451      853.150        1.529        0.404      150.000       28.870        0.037      336.815        8.368      853.078
05/05/2013  03:38:00     -126.971     -119.407       -6.986       81.680       73.550       39.255     6671.549     5409.555     1540.919        2.202        0.681      174.297       41.328        0.056      336.805        8.352      853.093
05/05/2013  03:39:00     -125.716      -96.518      -10.931       58.738       65.103       36.014     3450.206     4238.342     1297.019        1.711        0.449      158.494       33.080        0.044      336.850        8.427      853.103
05/05/2013  03:40:00      -95.850      -95.676        1.770       54.044       48.682       35.105     2920.708     2369.974     1232.386        1.243        0.326      135.429       39.873        0.087      336.868        8.459      853.103
05/05/2013  03:41:00     -103.312      -64.458      -12.000       41.435       43.399       17.536     1716.889     1883.487      307.527        0.944        0.195      121.772       18.893        0.024      336.869        8.460      853.112
05/05/2013  03:42:00     -104.902      -18.720        2.819       43.215       41.884       20.111     1867.574     1754.236      404.461        0.769        0.201      106.559       21.053        0.039      336.891        8.495      853.124
05/05/2013  03:43:00      -59.256      -46.239       -0.298       45.156       40.198       21.956     2039.028     1615.841      482.069        0.489        0.207       75.162       19.603        0.068      336.887        8.489      853.123
05/05/2013  03:44:00      -85.486      -10.597        7.131       51.249       36.186       25.078     2626.461     1309.446      628.921        0.602        0.228       86.140       25.019        0.084      336.877        8.472      853.117
05/05/2013  03:45:00     -145.272      -45.762       13.079       45.088       33.281       28.248     2032.904     1107.607      797.927        1.365        0.197      152.309       26.119        0.029      336.890        8.493      853.146
05/05/2013  03:46:00      -78.253      -48.011       -2.130       53.203       29.246       17.009     2830.543      855.344      289.318        0.620        0.199       91.807       19.228        0.044      336.921        8.546      853.175
05/05/2013  03:47:00      -81.840       16.083       -4.206       25.871       15.344        9.431      669.292      235.425       88.950        0.398        0.050       83.405        8.904        0.011      336.951        8.592      853.167
05/05/2013  03:48:00      -60.003      -29.159       -2.929       36.304       32.217       20.001     1317.950     1037.926      400.041        0.361        0.138       66.713       22.874        0.118      336.945        8.586      853.196
05/05/2013  03:49:00     -133.687        4.159      -13.653       33.284       17.990       12.407     1107.812      323.657      153.930        0.983        0.079      133.752       12.878        0.009      336.813        8.367      853.235
05/05/2013  03:50:00     -128.112        7.011       -8.074       26.939       21.041       16.424      725.701      442.744      269.738        0.898        0.072      128.304       15.183        0.014      336.860        8.445      853.218
05/05/2013  03:51:00      -83.868      -24.968      -10.923       29.469       36.322       16.794      868.445     1319.319      282.033        0.512        0.123       87.506       14.554        0.028      336.965        8.618      853.234
05/05/2013  03:52:00     -103.430      -36.568       -4.641       22.798       33.319       14.640      519.732     1110.143      214.325        0.695        0.092      109.704       14.536        0.018      336.919        8.543      853.267
05/05/2013  03:53:00      -92.984        8.184      -11.637       22.211       30.411       14.759      493.312      924.835      217.834        0.524        0.082       93.343       10.085        0.012      336.953        8.599      853.269
05/05/2013  03:54:00      -92.592       16.310       -9.054       23.515       23.519       11.492      552.950      553.137      132.057        0.508        0.062       94.018        9.824        0.011      336.978        8.640      853.286
05/05/2013  03:55:00      -47.156       39.669       -9.303       25.602       23.603       11.456      655.483      557.115      131.236        0.261        0.067       61.622        9.278        0.023      337.162        8.949      853.276
05/05/2013  03:56:00       16.707       42.246       -3.568       13.883       21.806        9.673      192.732      475.492       93.566        0.142        0.038       45.430        7.119        0.025      337.160        8.947      853.314
05/05/2013  03:57:00      -71.471      -28.679       -5.801       52.202       34.567       13.803     2725.065     1194.895      190.512        0.504        0.206       77.010       14.291        0.034      337.237        9.075      853.354
05/05/2013  03:58:00      -70.227      -66.078       -2.100       64.537       30.064       23.623     4164.986      903.839      558.037        0.746        0.281       96.427       15.388        0.025      337.269        9.129      853.381
05/05/2013  03:59:00       -1.508      -33.831        6.315       21.195       36.957       28.004      449.235     1365.826      784.214        0.189        0.130       33.865       27.020        0.637      337.459        9.447      853.473
05/05/2013  04:00:00        7.656       35.257       19.415       19.710       20.554       20.595      388.482      422.481      424.168        0.146        0.062       36.078       16.615        0.212      337.379        9.312      853.495
05/05/2013  04:01:00       35.819       69.759      -13.744       25.387       22.151       14.660      644.480      490.676      214.930        0.384        0.068       78.418       12.774        0.027      337.267        9.124      853.482
05/05/2013  04:02:00      -17.171       54.864       -9.384       18.119       36.313       18.083      328.287     1318.622      326.978        0.268        0.099       57.488       22.690        0.156      337.292        9.168      853.463
05/05/2013  04:03:00       19.040       19.034        9.607       28.040       20.530       13.212      786.267      421.472      174.554        0.110        0.069       26.922        9.213        0.117      337.356        9.275      853.496
05/05/2013  04:04:00       -1.803       82.744      -10.559       27.301       18.647       14.381      745.362      347.723      206.827        0.413        0.065       82.763       15.169        0.034      337.368        9.294      853.497
05/05/2013  04:05:00      -30.085       24.685       -6.269       47.228       42.801       17.420     2230.441     1831.897      303.446        0.296        0.218       38.916       18.704        0.231      337.499        9.514      853.507
05/05/2013  04:06:00      -46.670      -57.575      -22.110       45.260       38.207       19.497     2048.463     1459.743      380.131        0.493        0.194       74.115       18.074        0.059      337.539        9.582      853.558
05/05/2013  04:07:00      -63.257      -59.474      -16.073       23.312       38.546       16.864      543.431     1485.762      284.396        0.505        0.116       86.825       14.032        0.026      337.576        9.643      853.665
05/05/2013  04:08:00       -3.770       47.334       91.409       24.815       45.348       48.980      615.772     2056.424     2399.021        0.784        0.254       47.484       39.778        0.702      337.619        9.714      853.754
05/05/2013  04:09:00        7.887       87.113      129.869       55.184       65.086       42.979     3045.235     4236.161     1847.162        1.682        0.456       87.470       37.499        0.184      337.638        9.747      853.855
05/05/2013  04:10:00      113.651       23.789       72.855      102.805       96.776       76.430    10568.900     9365.613     5841.615        2.228        1.289      116.114       85.538        0.543      337.452        9.433      853.953
05/05/2013  04:11:00       50.024       72.103      115.183       74.023       85.630       58.519     5479.393     7332.581     3424.529        1.860        0.812       87.757       60.890        0.481      337.429        9.396      854.081
05/05/2013  04:12:00      114.787      -61.678       29.839       82.547       77.163       63.429     6814.037     5954.109     4023.267        1.733        0.840      130.308       57.757        0.196      337.738        9.914      853.963
05/05/2013  04:13:00       19.924       97.169      130.620       78.983       80.371       64.275     6238.371     6459.500     4131.266        2.186        0.841       99.190       64.292        0.420      338.318       10.887      853.898
05/05/2013  04:14:00      101.460     -106.504       10.178       58.464       85.255       45.611     3418.000     7268.403     2080.368        1.725        0.638      147.096       45.578        0.096      338.794       11.687      853.832
05/05/2013  04:15:00       -6.394     -115.286      -35.603       78.569       57.575       34.611     6173.034     3314.876     1197.916        1.264        0.534      115.464       22.054        0.036      338.410       11.042      853.921
05/05/2013  04:16:00      -60.649      -30.436        3.924       65.983       33.480       27.664     4353.764     1120.931      765.296        0.543        0.312       67.857       18.621        0.075      338.375       10.985      853.921
05/05/2013  04:17:00      -23.222      -42.408       14.587       67.131       69.885       34.584     4506.529     4883.902     1196.019        0.657        0.529       48.350       37.554        0.603      338.271       10.810      853.908
05/05/2013  04:18:00       75.654     -109.819      -11.019       64.133       75.844       51.112     4113.085     5752.306     2612.391        1.519        0.624      133.355       47.544        0.127      338.741       11.598      853.936
05/05/2013  04:19:00       36.210      -32.568       41.621       58.701       75.877       44.099     3445.761     5757.318     1944.684        0.762        0.557       48.702       52.032        1.141      338.586       11.338      853.928
05/05/2013  04:20:00      139.284      -77.864       62.406      104.143      199.194       90.290    10845.854    39678.154     8152.289        4.401        2.934      159.571      114.683        0.517      338.769       11.644      853.929
05/05/2013  04:21:00      128.764     -131.702       34.837      121.025      155.780       95.068    14646.960    24267.451     9037.871        4.154        2.398      184.189      107.469        0.340      338.992       12.018      853.940
05/05/2013  04:22:00       59.392       -6.218      124.197      110.558      187.747      122.583    12223.111    35248.749    15026.639        4.073        3.125       59.717      137.990        5.340      339.006       12.043      853.931
05/05/2013  04:23:00       89.392     -164.258       51.547      136.819      233.489      108.884    18719.450    54517.200    11855.709        6.135        4.255      187.007      132.185        0.500      339.089       12.182      853.931
05/05/2013  04:24:00       59.732      -23.165      186.801      178.904      288.123      181.851    32006.707    83015.018    33069.929        9.352        7.405       64.067      201.849        9.926      339.145       12.274      853.868
05/05/2013  04:25:00      188.432      -72.319      148.795      207.810      324.059      214.261    43184.793   105014.033    45907.648       12.846        9.705      201.833      246.139        1.487      339.157       12.295      853.784
05/05/2013  04:26:00      100.144     -132.905       99.146      159.292      303.948      184.485    25374.040    92384.201    34034.700        9.463        7.590      166.411      212.273        1.627      339.119       12.232      853.692
05/05/2013  04:27:00      118.044     -129.771      100.403      139.218      295.240      144.268    19381.623    87166.367    20813.247        8.409        6.368      175.428      183.651        1.096      339.068       12.145      853.688
05/05/2013  04:28:00      250.645     -154.149      108.477      237.050      313.348      174.568    56192.601    98187.205    30474.156       14.157        9.243      294.253      201.907        0.471      339.024       12.071      853.555
05/05/2013  04:29:00      202.315      -97.427      177.362      222.537      396.456      207.861    49522.892   157177.697    43206.321       16.585       12.495      224.552      252.837        1.268      338.979       11.996      853.379
05/05/2013  04:30:00      218.511       83.836      247.905      235.595      342.759      202.956    55504.959   117483.867    41191.030       16.517       10.709      234.042      245.749        1.103      338.965       11.972      853.273
05/05/2013  04:31:00      269.443      -73.434      196.026      289.957      355.124      207.702    84075.217   126113.076    43140.226       18.483       12.666      279.271      250.177        0.802      338.846       11.772      853.106
05/05/2013  04:32:00      265.696       90.877      239.749      263.563      247.122      188.198    69465.672    61069.194    35418.338       15.112        8.298      280.808      204.743        0.532      338.762       11.631      853.101
05/05/2013  04:33:00      237.836      -33.966      149.617      222.480      250.379      167.425    49497.142    62689.567    28031.009       11.014        7.011      240.249      177.890        0.548      338.798       11.692      853.050
05/05/2013  04:34:00      179.289      -14.046      123.846      180.345      199.272      114.508    32524.267    39709.396    13111.992        6.650        4.267      179.838      123.867        0.474      338.786       11.672      853.082
05/05/2013  04:35:00      148.200      -51.274       82.725      171.589      163.616      117.810    29442.925    26770.178    13879.093        5.075        3.505      156.819      114.863        0.536      338.703       11.532      853.176
05/05/2013  04:36:00      137.620     -113.831       60.826      136.779      249.270      144.763    18708.544    62135.330    20956.272        6.868        5.090      178.597      170.683        0.913      338.672       11.481      853.292
05/05/2013  04:37:00      277.495     -221.353       22.067      196.706      265.120      147.333    38693.441    70288.555    21707.117       12.857        6.534      354.966      173.636        0.239      338.616       11.385      853.373
05/05/2013  04:38:00      151.320     -227.756       25.672      156.565      164.637      114.304    24512.696    27105.294    13065.293        7.005        3.234      273.442      119.631        0.191      338.635       11.417      853.486
05/05/2013  04:39:00      108.477      -78.226      151.964      159.502      292.661      126.681    25440.943    85650.742    16047.988        8.404        6.357      133.741      164.546        1.514      338.561       11.293      853.573
05/05/2013  04:40:00      119.144     -123.539       65.007      146.410      172.362      109.378    21435.876    29708.543    11963.501        4.838        3.155      171.631      122.477        0.509      338.546       11.267      853.652
05/05/2013  04:41:00      150.603     -162.956       40.784      155.206      227.090      135.283    24088.877    51569.658    18301.569        7.241        4.698      221.892      152.798        0.474      338.478       11.153      853.722
05/05/2013  04:42:00       46.795      -76.231      106.628      117.725      188.117      117.184    13859.276    35387.968    13731.989        4.116        3.149       89.448      137.165        2.351      338.413       11.044      853.760
05/05/2013  04:43:00      193.101     -284.750        3.038      177.117      193.866       91.352    31370.563    37584.157     8345.126        9.783        3.865      344.050      103.926        0.091      338.471       11.142      853.796
05/05/2013  04:44:00      174.276     -151.356       24.918      138.715      160.585      114.416    19241.756    25787.566    13091.105        5.600        2.906      230.826      100.600        0.190      338.369       10.971      853.755
05/05/2013  04:45:00      123.403      -50.930       88.078      135.682      195.777      113.890    18409.673    38328.506    12970.858        4.763        3.485      133.499      135.114        1.024      338.345       10.931      853.753
05/05/2013  04:46:00      194.127     -207.702       -9.495      117.709      140.736       67.536    13855.342    19806.758     4561.179        5.956        1.911      284.298       73.233        0.066      338.362       10.961      853.737
05/05/2013  04:47:00      115.305      -51.308       60.273      123.109      139.542       86.208    15155.803    19471.975     7431.766        3.080        2.103      126.206      106.054        0.706      338.342       10.926      853.769
05/05/2013  04:48:00      107.844      -88.235       37.245      121.636      166.826       94.766    14795.271    27830.836     8980.520        3.620        2.580      139.340      105.183        0.570      338.322       10.893      853.767
05/05/2013  04:49:00      188.708     -155.954       27.762      184.364      216.932       98.349    33990.092    47059.308     9672.483        7.570        4.536      244.811      147.263        0.362      338.337       10.919      853.815
05/05/2013  04:50:00      211.083     -214.971      -27.903      132.193      118.010       79.325    17475.062    13926.264     6292.496        6.461        1.885      301.278       88.400        0.086      338.353       10.944      853.846
05/05/2013  04:51:00       69.517      -55.746       63.984      119.205      154.592       84.370    14209.741    23898.699     7118.241        2.862        2.261       89.109       92.382        1.075      338.356       10.952      853.892
05/05/2013  04:52:00      103.046     -115.066       34.904       95.193      148.935       84.458     9061.758    22181.744     7133.151        3.172        1.919      154.462       94.918        0.378      338.412       11.043      853.922
05/05/2013  04:53:00      144.388     -186.660       28.664      112.674      180.883       89.319    12695.425    32718.517     7977.946        5.494        2.670      235.987      106.200        0.203      338.372       10.976      853.909
05/05/2013  04:54:00      -30.966      -35.753       62.793       64.236       81.657       74.787     4126.202     6667.835     5593.101        1.128        0.819       47.299       54.597        1.332      338.394       11.015      853.888
05/05/2013  04:55:00       31.424      -56.419       28.982       55.451       85.589       52.518     3074.856     7325.558     2758.121        0.908        0.658       64.580       58.329        0.816      338.401       11.026      853.932
05/05/2013  04:56:00       69.381     -111.333       18.706       68.926       48.798       46.680     4750.781     2381.212     2179.041        1.343        0.466      131.182       35.931        0.075      338.424       11.067      853.951
05/05/2013  04:57:00       74.447      -39.276       44.209       71.332      107.502       56.969     5088.261    11556.760     3245.413        1.446        0.995       84.172       62.634        0.554      338.403       11.030      853.955
05/05/2013  04:58:00       67.837      -60.626       52.979       78.364      107.032       59.867     6140.983    11455.898     3584.081        1.613        1.059       90.980       68.808        0.572      338.465       11.135      853.946
05/05/2013  04:59:00       11.453        5.010       63.933       63.946       82.562       85.174     4089.039     6816.533     7254.538        1.120        0.908       12.501       72.742       33.859      338.458       11.123      853.935
05/05/2013  05:00:00       17.868       62.313       94.554       56.974      104.595       68.559     3246.031    10940.076     4700.322        1.601        0.944       64.824       69.929        1.164      338.356       10.950      853.890
05/05/2013  05:01:00       50.015      -98.583        9.396       74.012       79.450       51.729     5477.725     6312.374     2675.890        1.338        0.723      110.544       44.596        0.163      338.409       11.040      853.881
05/05/2013  05:02:00      163.452     -172.534       23.990       95.072      160.580       97.895     9038.698    25785.877     9583.452        5.073        2.220      237.665      113.103        0.226      338.419       11.054      853.870
05/05/2013  05:03:00       -2.371        5.361       95.386       55.293      114.802       70.142     3057.313    13179.518     4919.865        1.514        1.058        5.862       69.380      140.099      338.344       10.930      853.817
05/05/2013  05:04:00       89.205     -115.775       -7.667      112.215       79.362       55.454    12592.101     6298.249     3075.145        2.169        1.098      146.155       48.621        0.111      338.338       10.920      853.813
05/05/2013  05:05:00       25.493      -71.923        7.154       78.997       93.899       58.967     6240.455     8817.111     3477.095        1.220        0.927       76.308       49.362        0.418      338.379       10.992      853.814
05/05/2013  05:06:00      104.807     -130.028        2.379       87.587       95.563       56.854     7671.467     9132.326     3232.385        2.396        1.002      167.008       40.817        0.060      338.401       11.024      853.810
05/05/2013  05:07:00       71.155     -111.029       24.854       80.539      136.083       84.219     6486.533    18518.508     7092.771        2.505        1.605      131.873       96.986        0.541      338.273       10.810      853.812
05/05/2013  05:08:00       48.607      -44.107       64.855       61.620      101.909       47.447     3797.034    10385.511     2251.201        1.247        0.822       65.636       59.941        0.834      338.259       10.788      853.823
05/05/2013  05:09:00       56.197      -76.741       37.523       91.998      102.900       71.612     8463.665    10588.354     5128.286        1.731        1.209       95.118       64.908        0.466      338.218       10.719      853.831
05/05/2013  05:10:00      128.275     -163.664        6.175      108.304      141.399       99.067    11729.775    19993.583     9814.239        4.240        2.077      207.944       85.199        0.168      338.153       10.606      853.816
05/05/2013  05:11:00       28.683     -166.197      -23.751       98.058       85.298       41.051     9615.439     7275.669     1685.158        2.379        0.929      168.654       42.666        0.064      338.316       10.883      853.826
05/05/2013  05:12:00       53.117      -94.019       24.058      104.347       77.469       56.405    10888.317     6001.522     3181.519        1.615        1.004      107.986       49.340        0.209      338.264       10.796      853.817
05/05/2013  05:13:00      -11.472      -96.680       10.837       55.951       80.304       47.088     3130.535     6448.657     2217.280        1.069        0.590       97.358       53.547        0.302      338.305       10.865      853.820
05/05/2013  05:14:00       57.678     -114.080       12.281       75.431       95.952       69.101     5689.788     9206.877     4774.924        1.808        0.984      127.832       50.844        0.158      338.287       10.835      853.802
05/05/2013  05:15:00       78.796     -172.420       -9.322       64.279       67.015       48.114     4131.831     4491.042     2315.001        2.348        0.547      189.572       45.222        0.057      338.268       10.803      853.777
05/05/2013  05:16:00       43.674      -74.653       15.838       61.752      107.648       62.153     3813.297    11588.093     3862.954        1.349        0.963       86.490       76.661        0.786      338.231       10.740      853.725
05/05/2013  05:17:00        7.945       32.409       76.391       41.021       50.861       33.039     1682.727     2586.881     1091.552        0.615        0.268       33.368       31.684        0.902      338.162       10.626      853.694
05/05/2013  05:18:00       48.059       52.774       92.012       49.524       61.334       46.865     2452.653     3761.910     2196.309        1.098        0.421       71.377       37.108        0.270      338.152       10.609      853.639
05/05/2013  05:19:00       65.229       73.429       95.389       91.753       74.608       46.761     8418.613     5566.294     2186.611        1.746        0.809       98.217       41.100        0.175      338.135       10.580      853.587
05/05/2013  05:20:00       89.860       77.003       79.998       75.375       66.464       58.903     5681.431     4417.469     3469.563        1.698        0.678      118.340       40.217        0.115      338.110       10.539      853.549
05/05/2013  05:21:00       76.206      108.983      121.723       85.963       57.236       53.014     7389.588     3275.972     2810.465        2.299        0.674      132.984       45.698        0.118      338.079       10.487      853.585
05/05/2013  05:22:00       19.293      -44.558       22.135       64.748       74.020       53.471     4192.282     5479.025     2859.200        0.769        0.627       48.556       41.804        0.741      338.159       10.621      853.644
05/05/2013  05:23:00       84.257      -71.536       15.130       61.245       92.261       52.762     3750.974     8512.059     2783.813        1.374        0.752      110.529       58.578        0.281      338.147       10.601      853.688
05/05/2013  05:24:00      124.330      -84.901       27.265      116.918      107.234       74.636    13669.819    11499.196     5570.515        2.707        1.537      150.553       88.668        0.347      338.128       10.567      853.722
05/05/2013  05:25:00      108.603     -166.394       -8.392       81.337       74.249       52.571     6615.737     5512.932     2763.734        2.722        0.745      198.700       56.510        0.081      338.186       10.665      853.734
05/05/2013  05:26:00       13.387       22.218       78.929       56.965       75.239       36.044     3244.960     5660.937     1299.146        0.855        0.510       25.939       41.628        2.576      338.208       10.703      853.738
05/05/2013  05:27:00       92.889     -101.117        4.924       88.360       66.455       53.880     7807.454     4416.206     2903.003        1.700        0.756      137.307       45.416        0.109      338.295       10.849      853.759
05/05/2013  05:28:00       30.233       14.965       68.935       65.830       93.227       58.848     4333.569     8691.195     3463.076        1.119        0.824       33.734       67.374        3.989      338.293       10.845      853.772
05/05/2013  05:29:00       34.771      -40.064       28.708       31.677       67.573       44.511     1003.450     4566.090     1981.214        0.559        0.378       53.049       45.760        0.744      338.375       10.983      853.774
05/05/2013  05:30:00       13.724       14.523       11.818       19.064       45.050       23.535      363.451     2029.466      553.890        0.174        0.147       19.982       13.131        0.432      338.408       11.038      853.763
05/05/2013  05:31:00      -26.495      -26.841        9.537       66.000       51.081       39.331     4355.963     2609.218     1546.924        0.501        0.426       37.715       34.204        0.822      338.495       11.184      853.791
05/05/2013  05:32:00        6.070      -50.004        8.608       73.109       59.561       44.887     5344.899     3547.502     2014.864        0.676        0.545       50.371       32.941        0.428      338.406       11.037      853.841
05/05/2013  05:33:00       40.540      -80.889       16.618       75.404       85.253       58.288     5685.825     7267.990     3397.504        1.240        0.818       90.480       56.366        0.388      338.441       11.095      853.882
05/05/2013  05:34:00       59.112     -112.026      -10.040       95.187       64.908       57.148     9060.471     4213.002     3265.923        1.634        0.827      126.665       51.898        0.168      338.397       11.021      853.896
05/05/2013  05:35:00        1.093      -69.356        7.289       49.736       52.255       31.083     2473.647     2730.564      966.123        0.552        0.309       69.365       30.160        0.189      338.470       11.144      853.928
05/05/2013  05:36:00       -4.330        2.925       44.345       27.245       39.723       33.220      742.304     1577.955     1103.560        0.271        0.171        5.225       30.282       33.589      338.420       11.061      853.907
05/05/2013  05:37:00       38.426     -110.425        8.756       77.981      110.936       60.081     6080.971    12306.889     3609.704        1.787        1.100      116.920       60.438        0.267      338.384       10.998      853.864
05/05/2013  05:38:00       37.309      -96.685       18.888       72.525       77.801       52.480     5259.933     6053.028     2754.136        1.258        0.703      103.634       47.464        0.210      338.358       10.954      853.822
05/05/2013  05:39:00       81.532     -148.005       20.563       67.108      131.600       48.605     4503.539    17318.667     2362.465        2.658        1.209      168.976       63.972        0.143      338.359       10.955      853.792
05/05/2013  05:40:00        8.057       -6.849       56.848       47.725       94.016       58.574     2277.721     8839.060     3430.972        0.894        0.727       10.575       68.441       41.886      338.329       10.908      853.750
05/05/2013  05:41:00      158.058      -47.090       55.278      109.035      130.143       78.054    11888.640    16937.094     6092.497        3.258        1.746      164.923       90.804        0.303      338.251       10.774      853.712
05/05/2013  05:42:00       72.345      -83.535       30.419      100.836       88.468       59.051    10167.989     7826.614     3486.997        1.731        1.074      110.507       69.315        0.393      338.305       10.864      853.696
05/05/2013  05:43:00       -9.791      -12.766        0.605       44.402       37.839       30.790     1971.578     1431.794      948.054        0.230        0.218       16.088       30.543        3.604      338.358       10.956      853.659
05/05/2013  05:44:00        4.800       10.638       49.230       29.985       40.733       24.879      899.114     1659.184      618.955        0.287        0.159       11.671       19.054        2.666      338.377       10.987      853.630
05/05/2013  05:45:00        7.446       20.303       42.428       34.253       29.812       34.703     1173.266      888.784     1204.315        0.277        0.163       21.626       31.159        2.076      338.378       10.989      853.610
05/05/2013  05:46:00       -3.434       88.070      137.633       63.743       70.639       60.703     4063.175     4989.899     3684.822        1.972        0.637       88.137       53.908        0.374      338.279       10.821      853.568
05/05/2013  05:47:00       91.835      -76.362       23.276       76.242       89.202       57.386     5812.905     7957.006     3293.153        1.593        0.853      119.435       53.610        0.201      338.292       10.844      853.553
05/05/2013  05:48:00       19.301      -45.867       53.000       77.164      151.127       88.270     5954.275    22839.239     7791.544        2.093        1.829       49.763       89.156        3.210      338.321       10.892      853.505
05/05/2013  05:49:00       50.731     -206.106       -1.326      133.335       91.695       59.341    17778.224     8407.904     3521.312        3.738        1.485      212.258       48.534        0.052      338.439       11.087      853.497
05/05/2013  05:50:00       35.646     -112.387        9.462       71.938      109.002       61.858     5175.073    11881.432     3826.432        1.743        1.044      117.905       64.571        0.300      338.390       11.009      853.471
05/05/2013  05:51:00       15.966       33.885       77.810       60.312       56.246       40.985     3637.586     3163.652     1679.785        0.797        0.424       37.458       38.542        1.059      338.323       10.895      853.482
05/05/2013  05:52:00       80.314     -143.777       -2.068      132.742      123.151       54.783    17620.554    15166.047     3001.188        3.145        1.789      164.689       68.053        0.171      338.392       11.011      853.483
05/05/2013  05:53:00       24.884       85.000      150.673       89.258      144.305       95.158     7966.978    20824.061     9055.043        3.419        1.892       88.568      107.143        1.463      338.290       10.839      853.423
05/05/2013  05:54:00      145.792     -141.452      -11.062       81.229      118.956       57.544     6598.080    14150.481     3311.263        3.272        1.203      203.135       57.326        0.080      338.282       10.826      853.438
05/05/2013  05:55:00       34.173      -21.599       96.021       64.223      102.150       63.051     4124.615    10434.693     3975.402        1.469        0.927       40.426       60.950        2.273      338.279       10.823      853.431
05/05/2013  05:56:00       17.950       14.856       95.901       65.787       93.999       59.218     4327.880     8835.792     3506.723        1.320        0.834       23.300       62.520        7.200      338.305       10.866      853.431
05/05/2013  05:57:00      -45.359      -86.203      -12.521      124.632       89.963       40.873    15533.216     8093.386     1670.586        1.747        1.265       97.408       25.702        0.070      338.381       10.992      853.403
05/05/2013  05:58:00       14.093      -54.847       -0.577       37.948       57.542       31.084     1440.051     3311.088      966.221        0.446        0.286       56.629       29.185        0.266      338.507       11.205      853.391
05/05/2013  05:59:00       14.574     -138.086       -6.631      101.121      111.867       59.108    10225.427    12514.163     3493.727        2.277        1.312      138.853       58.169        0.175      338.441       11.092      853.367
05/05/2013  06:00:00      -36.800     -188.011      -12.054       93.767      137.059       55.040     8792.335    18785.066     3029.440        3.372        1.530      191.579       58.393        0.093      338.400       11.024      853.342
05/05/2013  06:01:00      -33.294      -70.574       34.986      105.824      121.377       70.442    11198.749    14732.475     4962.112        1.910        1.545       78.033       76.971        0.973      338.362       10.961      853.372
05/05/2013  06:02:00      -38.391     -105.619        1.784       66.562       98.991       70.404     4430.434     9799.300     4956.688        1.591        0.959      112.380       35.222        0.098      338.380       10.991      853.410
05/05/2013  06:03:00       -9.203     -100.801       -4.215      127.812       79.214       40.868    16335.903     6274.887     1670.194        1.727        1.214      101.220       30.244        0.089      338.331       10.908      853.458
05/05/2013  06:04:00      -16.988      -56.015       35.391       72.168      143.638       57.372     5208.190    20631.841     3291.603        1.690        1.457       58.534       75.681        1.672      338.325       10.899      853.464
05/05/2013  06:05:00       27.596        5.573       60.725       60.663       84.451       60.165     3679.965     7132.030     3619.786        0.945        0.722       28.153       44.157        2.460      338.380       10.992      853.495
05/05/2013  06:06:00        0.230      -73.777        8.753       97.551       67.336       45.747     9516.165     4534.087     2092.765        1.083        0.807       73.777       28.269        0.147      338.317       10.885      853.509
05/05/2013  06:07:00      -17.965       -7.875       41.593       53.209       60.356       36.307     2831.189     3642.848     1318.217        0.495        0.390       19.615       36.365        3.437      338.363       10.963      853.535
05/05/2013  06:08:00      -55.010     -113.207       -7.010       93.170       72.813       46.085     8680.721     5301.751     2123.846        1.600        0.805      125.865       30.652        0.059      338.328       10.905      853.556
05/05/2013  06:09:00       19.357      -62.193        8.309       44.025       49.622       25.633     1938.226     2462.372      657.068        0.468        0.253       65.136       29.965        0.212      338.396       11.019      853.582
05/05/2013  06:10:00       15.735      -87.905       -1.853       45.883       70.841       50.407     2105.245     5018.454     2540.896        0.882        0.483       89.302       46.434        0.270      338.417       11.054      853.609
05/05/2013  06:11:00      -35.948      -96.713        8.016       87.121       80.766       56.157     7589.990     6523.087     3153.583        1.399        0.863      103.178       48.952        0.225      338.415       11.050      853.634
05/05/2013  06:12:00      -49.199     -109.974       -7.488      142.893      108.154       58.520    20418.271    11697.197     3424.590        2.505        1.777      120.477       59.763        0.246      338.427       11.069      853.710
05/05/2013  06:13:00      -41.865        7.748        0.477       50.898       82.710       51.863     2590.616     6840.903     2689.812        0.697        0.606       42.576       34.817        0.669      338.329       10.906      853.737
05/05/2013  06:14:00      122.168     -188.845       -4.280       98.496      130.448       56.724     9701.377    17016.754     3217.669        4.027        1.497      224.917       55.976        0.062      338.513       11.212      853.765
05/05/2013  06:15:00       13.869     -197.496       -5.969      123.750       90.929       57.717    15314.179     8268.066     3331.275        3.307        1.346      197.982       52.650        0.071      338.527       11.236      853.808
05/05/2013  06:16:00       48.306     -115.610       20.172      101.008      117.851       75.688    10202.690    13888.831     5728.660        2.296        1.491      125.296       76.894        0.377      338.467       11.137      853.853
05/05/2013  06:17:00       70.028       -1.684       56.839       91.560      121.037       78.229     8383.274    14650.030     6119.757        1.864        1.458       70.048       70.789        1.021      338.330       10.908      853.884
05/05/2013  06:18:00       80.615     -175.600      -11.490      137.640       96.056       77.192    18944.781     9226.753     5958.582        3.579        1.707      193.220       62.858        0.106      338.411       11.042      853.922
05/05/2013  06:19:00       58.568      -36.877       29.457       80.765      105.264       65.760     6522.947    11080.613     4324.323        1.379        1.096       69.211       68.447        0.978      338.435       11.084      853.962
05/05/2013  06:20:00       24.385     -133.909       43.987      123.981      169.680       84.466    15371.309    28791.186     7134.555        3.587        2.565      136.111       93.859        0.476      338.465       11.132      854.000
05/05/2013  06:21:00       99.113     -181.644       -0.268       85.698      100.513       57.624     7344.119    10102.942     3320.478        3.179        1.038      206.925       52.562        0.065      338.476       11.150      854.036
05/05/2013  06:22:00      265.324     -279.784        3.615      149.714      164.431       81.415    22414.136    27037.717     6628.338       10.238        2.804      385.585       61.225        0.025      338.461       11.125      854.020
05/05/2013  06:23:00       48.764      -66.344       63.369      161.316      202.725      139.406    26022.995    41097.566    19434.065        4.866        4.328       82.338      168.582        4.192      338.421       11.058      853.986
05/05/2013  06:24:00      -65.241      -31.582       15.307       76.349       74.703       44.249     5829.212     5580.545     1957.986        0.943        0.668       72.483       50.218        0.480      338.459       11.125      853.999
05/05/2013  06:25:00       23.074        9.797       68.528       63.361      104.349       74.589     4014.624    10888.801     5563.570        1.289        1.023       25.067       73.264        8.542      338.384       11.000      853.973
05/05/2013  06:26:00       96.545     -103.375       12.066      108.150       79.517       57.671    11696.345     6322.935     3325.968        2.075        1.067      141.447       51.036        0.130      338.445       11.100      853.985
05/05/2013  06:27:00      101.250     -148.771       -1.239      101.912      106.006       89.704    10386.127    11237.207     8046.781        3.102        1.484      179.957       85.612        0.226      338.427       11.068      853.992
05/05/2013  06:28:00       31.355      -20.811       45.272       91.980       99.765       81.241     8460.371     9953.072     6600.085        1.424        1.251       37.633       77.900        4.285      338.385       11.001      854.016
05/05/2013  06:29:00       63.631     -126.352        2.772      118.286       91.132       52.748    13991.563     8305.072     2782.367        2.255        1.254      141.470       50.698        0.128      338.466       11.135      854.038
05/05/2013  06:30:00        7.070      -27.612       30.178       68.560       62.502       42.309     4700.419     3906.496     1790.063        0.606        0.520       28.503       38.534        1.828      338.522       11.231      854.053
05/05/2013  06:31:00      -11.693      -48.116       21.870       86.136       68.365       61.018     7419.396     4673.727     3723.186        0.937        0.791       49.516       45.190        0.833      338.472       11.147      854.053
05/05/2013  06:32:00       25.502      -34.427       10.682       59.965       54.675       39.030     3595.778     2989.356     1523.342        0.503        0.405       42.844       19.870        0.215      338.532       11.247      854.069
05/05/2013  06:33:00       45.175      -40.594       63.352       71.162       90.698       49.391     5064.001     8226.075     2439.460        1.171        0.786       60.734       50.290        0.686      338.403       11.030      854.080
05/05/2013  06:34:00       79.522      -53.850       15.645       79.085       69.846       46.853     6254.452     4878.398     2195.245        1.140        0.666       96.039       54.655        0.324      338.360       10.958      854.065
05/05/2013  06:35:00       95.078      -73.995       23.622       70.394       95.676       56.260     4955.382     9153.985     3165.219        1.617        0.864      120.478       70.526        0.343      338.357       10.951      854.088
05/05/2013  06:36:00      138.152     -169.099      -17.714       53.810       80.342       44.588     2895.551     6454.827     1988.087        2.966        0.567      218.358       26.693        0.015      338.420       11.057      854.126
05/05/2013  06:37:00       63.994      -64.666       25.397       50.095       72.545       53.120     2509.527     5262.797     2821.745        0.976        0.530       90.977       22.662        0.062      338.346       10.935      854.132
05/05/2013  06:38:00      106.448     -109.239        1.491       78.051      101.737       68.128     6092.017    10350.388     4641.392        2.217        1.054      152.526       73.765        0.234      338.364       10.963      854.157
05/05/2013  06:39:00       63.277      -57.012       27.353       73.277       68.164       67.655     5369.581     4646.321     4577.233        1.130        0.730       85.173       51.335        0.363      338.361       10.961      854.206
05/05/2013  06:40:00      129.167     -148.100       -2.701       83.002       86.879       53.959     6889.273     7547.970     2911.534        2.798        0.867      196.514       53.202        0.073      338.393       11.010      854.232
05/05/2013  06:41:00       52.938      -12.808       60.978       86.466      113.913       73.327     7476.285    12976.103     5376.918        1.625        1.291       54.465       79.520        2.132      338.334       10.913      854.222
05/05/2013  06:42:00       93.150     -113.356       25.084       72.908      122.630       66.850     5315.539    15037.998     4468.883        2.348        1.241      146.719       73.390        0.250      338.295       10.847      854.207
05/05/2013  06:43:00       74.766     -136.822       11.187       62.441       67.618       47.548     3898.841     4572.248     2260.785        1.758        0.537      155.917       40.982        0.069      338.378       10.988      854.189
05/05/2013  06:44:00       79.883      -83.107       12.318       65.485       87.402       56.351     4288.296     7639.036     3175.411        1.427        0.755      115.274       20.783        0.033      338.284       10.830      854.174
05/05/2013  06:45:00       50.442      -50.868       12.282       56.610       64.716       38.152     3204.680     4188.154     1455.573        0.706        0.442       71.638       26.796        0.140      338.259       10.789      854.166
05/05/2013  06:46:00        3.394        8.970       20.418       35.741       44.437       28.172     1277.393     1974.628      793.673        0.228        0.202        9.590       19.584        4.170      338.230       10.742      854.157
05/05/2013  06:47:00       -4.632      -24.991       20.742       26.189       41.124       34.707      685.864     1691.191     1204.595        0.233        0.179       25.416       12.217        0.231      338.188       10.670      854.147
05/05/2013  06:48:00       28.417       -9.608       60.997       41.553       94.152       45.471     1726.640     8864.583     2067.578        0.864        0.633       29.997       56.304        3.523      338.182       10.660      854.140
05/05/2013  06:49:00       97.056      -96.702        1.124       67.705       81.604       43.631     4583.914     6659.196     1903.638        1.596        0.657      137.008       44.858        0.107      338.258       10.784      854.149
05/05/2013  06:50:00       -0.473       10.829       23.123       28.789       30.824       27.710      828.781      950.136      767.833        0.160        0.127       10.840        8.953        0.682      338.163       10.628      854.169
05/05/2013  06:51:00       67.408        4.165       39.404      106.019       86.340       60.371    11239.940     7454.671     3644.696        1.422        1.117       67.536       59.554        0.778      338.182       10.658      854.192
05/05/2013  06:52:00       73.700      -37.473       51.657       79.522      102.990       56.647     6323.727    10606.861     3208.931        1.482        1.007       82.680       66.730        0.651      338.199       10.688      854.200
05/05/2013  06:53:00       62.765       30.729       34.504       51.421       60.058       37.785     2644.157     3606.946     1427.673        0.688        0.384       69.883       26.462        0.143      338.159       10.621      854.207
05/05/2013  06:54:00      137.362      -60.708       24.025       84.093       51.584       38.078     7071.592     2660.907     1449.950        1.715        0.559      150.179       30.896        0.042      338.138       10.584      854.186
05/05/2013  06:55:00       77.415      -73.316        5.304       53.347       49.687       41.381     2845.933     2468.768     1712.359        0.921        0.351      106.623       33.865        0.101      338.176       10.649      854.170
05/05/2013  06:56:00       18.821      -29.454       30.389       45.384       40.194       26.025     2059.689     1615.586      677.295        0.325        0.218       34.954       25.860        0.547      338.168       10.636      854.166
05/05/2013  06:57:00       18.694      -28.805       16.770       36.303       28.408       20.831     1317.930      807.015      433.921        0.201        0.128       34.339       10.075        0.086      338.087       10.502      854.169
05/05/2013  06:58:00       20.339       18.936       32.338       31.868       44.816       28.649     1015.576     2008.507      820.790        0.283        0.192       27.790       24.002        0.746      338.156       10.617      854.172
05/05/2013  06:59:00       33.721       -0.753       22.544       32.534       40.626       34.256     1058.482     1650.432     1173.497        0.276        0.194       33.730       22.623        0.450      338.174       10.645      854.182
05/05/2013  07:00:00       55.646       39.900       12.840       26.026       34.312       30.054      677.331     1177.325      903.254        0.381        0.138       68.473       22.605        0.109      338.151       10.607      854.197
05/05/2013  07:01:00       49.454       61.657       53.083       33.433       29.035       27.139     1117.741      843.044      736.518        0.588        0.135       79.040       18.663        0.056      338.181       10.657      854.207
05/05/2013  07:02:00       46.230       64.203       54.369       41.456       30.022       24.082     1718.611      901.299      579.957        0.621        0.160       79.116       23.778        0.090      338.162       10.626      854.235
05/05/2013  07:03:00       68.754       65.319       45.269       30.345       19.251       25.236      920.814      370.587      636.843        0.649        0.096       94.835       15.469        0.027      338.122       10.558      854.259
05/05/2013  07:04:00       92.705       58.191       17.246       36.075       27.848       28.485     1301.406      775.531      811.410        0.758        0.144      109.456       22.494        0.042      338.188       10.668      854.257
05/05/2013  07:05:00       85.645       60.173       32.327       27.851       23.397       24.648      775.661      547.408      607.537        0.697        0.097      104.670        8.138        0.006      338.188       10.669      854.238
05/05/2013  07:06:00       82.890       63.480       11.174       23.305       19.924       22.538      543.115      396.976      507.972        0.624        0.072      104.405        5.959        0.003      338.162       10.628      854.211
05/05/2013  07:07:00       76.566       61.653       -1.035       30.306       30.824       28.822      918.456      950.134      830.728        0.618        0.135       98.303       21.186        0.046      338.119       10.554      854.197
05/05/2013  07:08:00       83.816       53.437        0.824       24.620       27.077       19.955      606.145      733.159      398.212        0.581        0.087       99.402        9.967        0.010      338.098       10.519      854.193
05/05/2013  07:09:00       63.898       50.801        9.382       28.075       25.150       24.393      788.212      632.515      595.000        0.438        0.101       81.632       11.791        0.021      338.093       10.512      854.186
05/05/2013  07:10:00       32.392       59.633       -0.863       48.146       37.015       26.083     2318.012     1370.081      680.347        0.449        0.218       67.863       23.104        0.116      338.083       10.493      854.157
05/05/2013  07:11:00       22.715       88.217       -6.066       26.664       39.637       28.523      710.969     1571.105      813.587        0.571        0.155       91.094       23.325        0.066      338.087       10.503      854.119
05/05/2013  07:12:00       29.377       71.558       -6.497       31.055       36.780       25.142      964.396     1352.732      632.119        0.449        0.147       77.353       23.472        0.092      338.082       10.493      854.082
05/05/2013  07:13:00       38.371       66.218        8.146       37.773       49.869       31.939     1426.790     2486.896     1020.089        0.543        0.247       76.532       31.737        0.172      338.064       10.462      854.057
05/05/2013  07:14:00       49.406       60.765        1.322       34.252       37.829       38.842     1173.208     1431.033     1508.701        0.512        0.206       78.316       29.419        0.141      338.069       10.471      854.024
05/05/2013  07:15:00       48.471       67.635        3.892       39.663       46.573       40.591     1573.118     2169.066     1647.599        0.616        0.269       83.210       32.074        0.149      338.075       10.483      853.992
05/05/2013  07:16:00       46.303       61.550        6.935       42.651       33.083       29.781     1819.077     1094.513      886.925        0.489        0.190       77.021       25.951        0.114      338.045       10.431      853.971
05/05/2013  07:17:00       52.484       67.075        7.729       46.837       36.895       37.722     2193.720     1361.215     1422.929        0.614        0.249       85.168       23.705        0.077      338.100       10.522      853.969
05/05/2013  07:18:00       54.292       92.049        4.277       67.961       59.360       39.845     4618.669     3523.594     1587.624        1.058        0.486      106.867       38.156        0.127      338.105       10.530      853.969
05/05/2013  07:19:00      135.565       99.934       11.244       46.115       38.296       40.584     2126.636     1466.554     1647.100        1.686        0.262      168.418       27.210        0.026      338.121       10.556      853.963
05/05/2013  07:20:00      113.430       93.001       13.204       56.659       29.106       29.260     3210.285      847.148      856.119        1.330        0.246      146.682       13.959        0.009      338.092       10.509      853.954
05/05/2013  07:21:00       88.650       69.706       18.615       37.732       34.538       31.658     1423.708     1192.841     1002.244        0.834        0.181      112.773       20.725        0.034      338.128       10.569      853.951
05/05/2013  07:22:00       99.255       75.277       16.616       55.775       41.234       44.219     3110.816     1700.244     1955.333        1.128        0.338      124.572       26.242        0.044      338.164       10.630      853.952
05/05/2013  07:23:00      118.031       78.324       14.701       46.095       45.473       30.682     2124.790     2067.801      941.408        1.271        0.257      141.654       21.885        0.024      338.183       10.660      853.982
05/05/2013  07:24:00       92.508       68.527       34.216       45.412       42.737       38.467     2062.208     1826.482     1479.711        0.990        0.268      115.125       25.856        0.050      338.181       10.658      854.009
05/05/2013  07:25:00       97.405       67.518       20.292       45.622       34.619       33.193     2081.323     1198.485     1101.773        0.942        0.219      118.518       17.881        0.023      338.198       10.689      854.024
05/05/2013  07:26:00       35.802       27.238       49.120       37.347       42.981       28.775     1394.833     1847.390      827.986        0.425        0.204       44.986       22.975        0.261      338.187       10.668      854.029
05/05/2013  07:27:00       85.408       57.467       34.388       39.271       24.644       33.530     1542.242      607.349     1124.251        0.753        0.164      102.942       14.249        0.019      338.180       10.656      854.030
05/05/2013  07:28:00       75.772       66.919       48.582       28.799       35.691       26.750      829.356     1273.867      715.580        0.770        0.141      101.092       20.349        0.041      338.157       10.617      854.013
05/05/2013  07:29:00       80.123       53.090       19.828       48.167       40.742       31.234     2320.084     1659.905      975.579        0.729        0.248       96.116       22.565        0.055      338.169       10.639      854.004
05/05/2013  07:30:00      132.207       36.779       26.960       60.576       52.254       39.583     3669.499     2730.484     1566.779        1.376        0.398      137.227       27.599        0.040      338.222       10.727      854.011
05/05/2013  07:31:00       78.879       69.030       40.581       50.091       48.066       35.083     2509.070     2310.353     1230.786        0.934        0.303      104.819       16.199        0.024      338.232       10.743      854.029
05/05/2013  07:32:00       97.428       72.389       11.992       34.850       29.214       19.142     1214.555      853.438      366.407        0.865        0.122      121.377       14.502        0.014      338.238       10.754      854.056
05/05/2013  07:33:00      105.958       44.161       36.324       49.989       41.162       31.365     2498.914     1694.292      983.733        0.984        0.259      114.792       22.397        0.038      338.235       10.748      854.055
05/05/2013  07:34:00      105.043       46.076       13.394       34.046       39.611       29.073     1159.158     1569.024      845.221        0.845        0.179      114.704       19.840        0.030      338.205       10.701      854.042
05/05/2013  07:35:00      119.954       64.438       22.494       50.935       38.073       33.171     2594.404     1449.563     1100.314        1.209        0.257      136.167        6.718        0.002      338.227       10.735      854.040
05/05/2013  07:36:00       95.958       50.326       25.722       47.192       37.842       24.702     2227.120     1431.988      610.209        0.834        0.213      108.354       12.422        0.013      338.249       10.771      854.031
05/05/2013  07:37:00       49.684       44.414       10.076       30.398       23.573       22.683      924.049      555.663      514.513        0.327        0.100       66.642       14.700        0.049      338.235       10.748      854.020
05/05/2013  07:38:00       87.822       64.191        5.923       34.753       32.258       32.492     1207.776     1040.563     1055.761        0.759        0.165      108.781       20.165        0.034      338.222       10.729      854.033
05/05/2013  07:39:00       88.806       51.994       10.676       21.023       21.789       23.000      441.970      474.777      528.994        0.607        0.072      102.907       14.899        0.021      338.236       10.752      854.047
05/05/2013  07:40:00       90.173       58.681        6.635       35.044       31.567       26.017     1228.101      996.475      676.869        0.726        0.145      107.585       21.698        0.041      338.239       10.755      854.063
05/05/2013  07:41:00       74.634       54.514       21.347       37.901       24.909       23.016     1436.482      620.439      529.741        0.579        0.129       92.423       16.124        0.030      338.257       10.784      854.064
05/05/2013  07:42:00       38.541       58.966       -0.787       28.006       55.443       26.033      784.341     3073.975      677.724        0.475        0.227       70.445       28.368        0.162      338.250       10.772      854.059
05/05/2013  07:43:00       25.483       70.735        2.003       31.978       46.834       32.581     1022.579     2193.420     1061.545        0.497        0.214       75.185       27.748        0.136      338.249       10.773      854.076
05/05/2013  07:44:00       28.404       70.019       -7.680       27.291       32.566       26.789      744.789     1060.572      717.639        0.415        0.126       75.561       19.413        0.066      338.239       10.754      854.090
05/05/2013  07:45:00       52.237       46.262        8.956       37.408       28.431       28.479     1399.396      808.325      811.042        0.398        0.151       69.777       20.617        0.087      338.247       10.767      854.091
05/05/2013  07:46:00       30.052      103.901      -12.477       25.946       40.352       26.497      673.191     1628.311      702.092        0.743        0.150      108.159       22.632        0.044      338.250       10.773      854.076
05/05/2013  07:47:00       28.596       55.065        4.242       36.491       37.941       32.139     1331.564     1439.537     1032.904        0.384        0.190       62.047       28.533        0.211      338.267       10.800      854.062
05/05/2013  07:48:00       19.289      111.340      -19.487       16.232       34.572       11.779      263.490     1195.219      138.741        0.737        0.080      112.999       12.056        0.011      338.280       10.824      854.066
05/05/2013  07:49:00        2.977      117.857      -14.822       18.512       26.072       12.051      342.688      679.760      145.227        0.764        0.058      117.894        6.876        0.003      338.323       10.899      854.063
05/05/2013  07:50:00       17.263       74.219       -0.135       30.272       46.205       27.107      916.372     2134.907      734.789        0.480        0.189       76.200       25.293        0.110      338.289       10.841      854.070
05/05/2013  07:51:00       42.018       44.337        9.379       23.433       30.752       26.900      549.119      945.664      723.600        0.302        0.111       61.084       22.457        0.135      338.273       10.812      854.092
05/05/2013  07:52:00       34.172       74.942       -0.467       28.461       30.459       21.412      810.032      927.758      458.479        0.449        0.110       82.365       19.427        0.056      338.269       10.807      854.103
05/05/2013  07:53:00       46.874       61.549       -3.519       27.081       26.634       22.859      733.393      709.369      522.555        0.398        0.098       77.366       18.556        0.058      338.285       10.833      854.095
05/05/2013  07:54:00       52.022       47.650        9.447       25.153       20.698       22.108      632.652      428.387      488.783        0.331        0.077       70.547       13.575        0.037      338.291       10.845      854.090
05/05/2013  07:55:00       86.549       61.208        9.572       33.456       20.324       20.772     1119.280      413.064      431.483        0.665        0.098      106.005       13.905        0.017      338.307       10.872      854.082
05/05/2013  07:56:00       50.968       61.523        5.326       29.091       33.605       29.896      846.271     1129.304      893.744        0.464        0.143       79.892       23.033        0.083      338.316       10.886      854.061
05/05/2013  07:57:00       48.022       55.308       -4.446       23.263       27.485       17.808      541.172      755.400      317.141        0.350        0.081       73.247       17.729        0.059      338.309       10.872      854.050
05/05/2013  07:58:00       62.315       26.647        9.011       30.744       22.491       23.017      945.186      505.843      529.768        0.333        0.099       67.774        9.171        0.018      338.349       10.939      854.053
05/05/2013  07:59:00       81.225       42.477       25.572       29.535       31.982       25.458      872.322     1022.878      648.101        0.580        0.127       91.661       17.549        0.037      338.351       10.945      854.056
05/05/2013  08:00:00       83.543       55.526       11.301       33.090       22.802       27.165     1094.924      519.913      737.959        0.627        0.118      100.312       15.248        0.023      338.436       11.085      854.032
05/05/2013  08:01:00       71.910       62.153        1.202       42.330       34.322       29.373     1791.856     1177.986      862.775        0.643        0.192       95.048       27.004        0.081      338.482       11.164      854.014
05/05/2013  08:02:00       96.036       62.182       19.959       27.809       28.740       25.663      773.344      825.995      658.573        0.787        0.113      114.409       19.653        0.030      338.553       11.283      853.999
05/05/2013  08:03:00       69.027       64.237       16.608       44.812       41.312       38.903     2008.104     1706.674     1513.423        0.720        0.261       94.293       31.194        0.109      338.717       11.559      853.985
05/05/2013  08:04:00      149.938       81.062       12.926       61.002       53.343       33.435     3721.193     2845.517     1117.880        1.845        0.384      170.448       17.214        0.010      338.595       11.352      853.973
05/05/2013  08:05:00       99.732       74.845       17.276       77.445       63.192       46.981     5997.749     3993.190     2207.202        1.402        0.610      124.693       33.263        0.071      338.741       11.597      853.955
05/05/2013  08:06:00      177.401      115.970       18.933       64.987       41.524       44.169     4223.260     1724.282     1950.919        2.659        0.395      211.944       26.591        0.016      338.657       11.454      853.943
05/05/2013  08:07:00      101.632       57.097       17.281       75.006       61.204       41.470     5625.890     3745.972     1719.741        1.249        0.555      116.573       31.943        0.075      338.778       11.661      853.916
05/05/2013  08:08:00      106.769       70.670        7.898       39.850       37.552       31.214     1588.030     1410.160      974.297        1.021        0.199      128.039       23.126        0.033      338.786       11.674      853.860
05/05/2013  08:09:00       65.985       61.846       -3.397       41.124       32.167       28.733     1691.155     1034.720      825.571        0.587        0.178       90.438       18.486        0.042      338.916       11.893      853.825
05/05/2013  08:10:00       22.982       39.086        7.524       33.733       40.883       21.988     1137.883     1671.421      483.466        0.270        0.165       45.342       24.507        0.292      339.193       12.360      853.810
05/05/2013  08:11:00       31.772       52.142        2.501       40.039       44.340       32.637     1603.144     1966.031     1065.167        0.418        0.232       61.059       27.335        0.200      339.276       12.497      853.797
05/05/2013  08:12:00       -5.137       84.004        3.939       46.648       39.233       34.471     2176.027     1539.265     1188.278        0.600        0.245       84.161       26.697        0.101      339.095       12.193      853.819
05/05/2013  08:13:00        4.415       22.947        7.681       30.964       28.649       19.582      958.786      820.761      383.450        0.138        0.108       23.368       18.780        0.646      339.068       12.148      853.857
05/05/2013  08:14:00      -19.933        5.797       13.599       30.173       12.452       18.332      910.409      155.058      336.048        0.101        0.070       20.759       16.171        0.607      338.913       11.887      853.911
05/05/2013  08:15:00       19.960       29.358       26.041       27.844       17.799       24.060      775.302      316.812      578.884        0.180        0.084       35.500       13.883        0.153      338.992       12.020      853.963
05/05/2013  08:16:00       38.628       21.977       35.516       17.171       15.675       10.487      294.851      245.714      109.986        0.194        0.033       44.442        7.645        0.030      338.840       11.765      853.997
05/05/2013  08:17:00       18.237       19.757       -4.214       18.530       29.420       19.100      343.367      865.542      364.812        0.116        0.079       26.887       11.303        0.177      338.778       11.659      854.017
05/05/2013  08:18:00       -0.352      -20.184        4.787       19.394       14.439       11.350      376.120      208.473      128.833        0.057        0.036       20.187        8.897        0.194      338.856       11.791      854.036
05/05/2013  08:19:00      -60.290      -22.785       -7.683       18.057       11.226       10.163      326.056      126.022      103.287        0.238        0.028       64.452        7.088        0.012      338.771       11.649      854.050
05/05/2013  08:20:00      -31.063      -26.939       -2.258       31.237       14.971       13.075      975.777      224.133      170.965        0.153        0.069       41.117        6.106        0.022      338.948       11.946      854.081
05/05/2013  08:21:00      -20.465       -3.465       -4.152       12.029       12.175       10.362      144.686      148.225      107.367        0.042        0.020       20.756        8.715        0.176      339.052       12.122      854.110
05/05/2013  08:22:00      -22.921       15.192       11.003       12.052       14.800       11.953      145.242      219.025      142.873        0.069        0.025       27.498        6.409        0.054      339.067       12.147      854.136
05/05/2013  08:23:00       -6.006       21.843        0.355       19.842       21.739       18.364      393.710      472.581      337.218        0.086        0.060       22.654       15.218        0.451      339.076       12.162      854.158
05/05/2013  08:24:00        8.634       22.077       12.249       18.918       21.738       15.174      357.888      472.530      230.241        0.089        0.053       23.706        9.528        0.162      339.276       12.498      854.181
05/05/2013  08:25:00        0.580        0.693       26.752       22.908       23.211       16.294      524.792      538.753      265.509        0.102        0.066        0.904        9.593      112.702      339.340       12.605      854.199
05/05/2013  08:26:00       20.404       -9.126        6.305       42.252       52.907       24.742     1785.237     2799.125      612.169        0.287        0.260       22.352       20.241        0.820      339.130       12.253      854.218
05/05/2013  08:27:00      100.380     -111.946      -33.929       63.073       66.108       32.458     3978.202     4370.312     1053.529        1.658        0.470      150.359       30.904        0.042      339.085       12.175      854.225
05/05/2013  08:28:00       71.862       10.409       27.605       76.864       80.274       37.615     5908.107     6443.854     1414.904        0.990        0.688       72.612       43.068        0.352      339.254       12.462      854.241
05/05/2013  08:29:00      120.432       59.572       45.504       60.928       44.935       43.836     3712.261     2019.111     1921.556        1.389        0.383      134.360       33.089        0.061      338.967       11.978      854.252
05/05/2013  08:30:00      100.438       59.706       17.380       45.376       42.563       36.321     2058.981     1811.637     1319.184        0.957        0.259      116.845       17.649        0.023      339.097       12.198      854.258
05/05/2013  08:31:00       75.629       52.001       19.223       49.551       35.260       34.972     2455.327     1243.290     1223.052        0.686        0.246       91.782       24.210        0.070      339.135       12.259      854.264
05/05/2013  08:32:00      -11.681       -5.829       26.819       28.296       26.917       27.217      800.657      724.531      740.787        0.158        0.113       13.054       13.737        1.107      339.328       12.586      854.271
05/05/2013  08:33:00       -8.448      -22.873        4.129       16.277       29.936       16.386      264.937      896.174      268.497        0.102        0.071       24.384       10.833        0.197      339.239       12.437      854.290
05/05/2013  08:34:00       23.983      -46.102        9.964       33.653       47.424       31.192     1132.552     2249.065      972.938        0.358        0.218       51.967       28.533        0.301      339.438       12.772      854.301
05/05/2013  08:35:00       28.315      -39.788       14.420       39.569       47.963       32.563     1565.670     2300.438     1060.369        0.376        0.246       48.834       28.817        0.348      339.555       12.970      854.302
05/05/2013  08:36:00       46.828       29.957       55.510       50.690      110.100       81.204     2569.508    12121.915     6594.134        1.373        1.064       55.590       85.924        2.389      339.317       12.567      854.288
05/05/2013  08:37:00      126.902     -122.913        0.267       60.582       76.647       45.140     3670.170     5874.744     2037.627        2.140        0.579      176.668       47.748        0.073      339.054       12.123      854.304
05/05/2013  08:38:00       78.072      -68.969        6.236       60.694       52.693       36.984     3683.785     2776.544     1367.844        0.936        0.391      104.173       30.644        0.087      339.152       12.290      854.318
05/05/2013  08:39:00      107.938     -209.342      -22.022       63.531      104.903       54.825     4036.188    11004.578     3005.734        3.700        0.902      235.531       59.513        0.064      339.201       12.369      854.323
05/05/2013  08:40:00      115.404      -74.901       11.574       72.555       75.800       56.614     5264.163     5745.650     3205.199        1.664        0.711      137.580       49.103        0.127      339.202       12.373      854.319
05/05/2013  08:41:00       89.191      -56.846       32.062       77.812       77.425       55.747     6054.744     5994.586     3107.691        1.368        0.758      105.766       57.713        0.298      339.188       12.350      854.311
05/05/2013  08:42:00      136.880     -150.220      -30.210       49.250       67.693       39.020     2425.584     4582.395     1522.550        2.537        0.427      203.229       29.887        0.022      339.116       12.226      854.290
05/05/2013  08:43:00       56.333        3.591       49.937       67.038       61.321       46.532     4494.030     3760.300     2165.238        0.805        0.521       56.447       44.822        0.631      339.198       12.366      854.285
05/05/2013  08:44:00       30.436      -43.640       44.521       32.391       51.947       36.533     1049.145     2698.499     1334.651        0.495        0.254       53.205       28.426        0.285      339.178       12.335      854.293
05/05/2013  08:45:00       50.367      -68.673       -4.820       44.168       56.323       35.246     1950.790     3172.326     1242.251        0.682        0.318       85.164       25.384        0.089      339.028       12.081      854.297
05/05/2013  08:46:00        6.739       11.226        5.081       34.310       37.615       29.435     1177.176     1414.917      866.390        0.183        0.173       13.093       15.997        1.493      339.224       12.411      854.296
05/05/2013  08:47:00       50.349      -44.107        5.000       58.272       56.105       44.492     3395.625     3147.805     1979.580        0.651        0.426       66.936       43.954        0.431      339.173       12.324      854.294
05/05/2013  08:48:00      103.838      -69.692       10.018       62.477       60.938       43.107     3903.423     3713.442     1858.171        1.261        0.474      125.057       45.065        0.130      339.157       12.298      854.295
05/05/2013  08:49:00       78.302     -120.202       -2.176       36.233       55.754       34.345     1312.794     3108.519     1179.591        1.309        0.280      143.456       28.359        0.039      339.276       12.498      854.298
05/05/2013  08:50:00       52.718      -94.546        2.780       42.131       46.531       35.874     1775.040     2165.116     1286.944        0.848        0.261      108.251       27.892        0.066      339.420       12.740      854.288
05/05/2013  08:51:00       50.582     -105.218        4.215       51.387       68.851       36.593     2640.663     4740.401     1339.027        1.118        0.436      116.745       31.154        0.071      339.327       12.584      854.257
05/05/2013  08:52:00       56.276      -45.738       35.700       61.845       97.636       46.599     3824.855     9532.775     2171.432        1.103        0.776       72.518       38.387        0.280      339.426       12.750      854.266
05/05/2013  08:53:00        5.499       10.575       45.525       38.937       72.754       42.884     1516.055     5293.200     1839.057        0.543        0.432       11.919       38.412       10.386      339.312       12.559      854.273
05/05/2013  08:54:00       45.082      -10.148       47.706       68.652       92.198       49.048     4713.041     8500.518     2405.740        1.001        0.781       46.210       52.581        1.295      339.252       12.458      854.268
05/05/2013  08:55:00       32.203      -41.116       24.694       45.496       62.655       46.913     2069.867     3925.595     2200.834        0.577        0.410       52.226       31.448        0.363      339.350       12.623      854.263
05/05/2013  08:56:00       72.032      -31.173       42.240       60.571       63.269       46.484     3668.803     4003.029     2160.736        0.889        0.492       78.488       26.301        0.112      339.268       12.485      854.277
05/05/2013  08:57:00       26.281      -34.240       26.051       59.338       63.780       47.619     3521.046     4067.842     2267.533        0.620        0.493       43.163       52.375        1.472      339.304       12.546      854.291
05/05/2013  08:58:00       -7.175        5.737       27.556       27.416       45.195       26.242      751.664     2042.584      688.638        0.216        0.174        9.187       13.338        2.108      339.456       12.802      854.293
05/05/2013  08:59:00       53.185      -65.202       38.406       63.053       93.671       54.106     3975.707     8774.222     2927.420        1.211        0.784       84.142       50.626        0.362      339.197       12.364      854.277
05/05/2013  09:00:00       57.758       28.109       48.167       72.335       70.933       54.014     5232.336     5031.431     2917.502        0.981        0.659       64.235       52.305        0.663      339.237       12.432      854.288
05/05/2013  09:01:00       93.624      130.415      122.876      122.478       85.713       75.108    15000.771     7346.702     5641.215        3.443        1.399      160.542       75.568        0.222      339.121       12.235      854.293
05/05/2013  09:02:00      123.913       59.168       80.415      100.454      100.002       69.531    10091.077    10000.335     4834.625        2.512        1.246      137.314       45.974        0.112      339.186       12.345      854.299
05/05/2013  09:03:00       71.856       -0.427       54.331      102.918       83.971       52.566    10592.138     7051.157     2763.166        1.426        1.020       71.857       58.707        0.667      339.375       12.664      854.308
05/05/2013  09:04:00       82.698        5.802       44.789       77.503       67.536       48.384     6006.701     4561.100     2341.012        1.089        0.645       82.901       33.064        0.159      339.296       12.531      854.322
05/05/2013  09:05:00        2.050      -62.609        2.104       48.009       64.628       31.097     2304.879     4176.776      967.050        0.569        0.372       62.643       25.096        0.160      339.310       12.556      854.333
05/05/2013  09:06:00       78.377       18.116       40.393       36.086       92.594       45.315     1302.221     8573.733     2053.449        1.001        0.596       80.443       49.295        0.376      339.481       12.843      854.326
05/05/2013  09:07:00       29.653       27.081       41.791       43.410       41.791       29.109     1884.437     1746.476      847.306        0.392        0.224       40.158       23.339        0.338      339.742       13.284      854.330
05/05/2013  09:08:00       99.776       90.116       57.219       78.075       68.294       48.651     6095.653     4664.075     2366.904        1.724        0.656      134.448       34.499        0.066      339.539       12.940      854.328
05/05/2013  09:09:00      130.197       87.026       67.027       86.955       53.464       61.869     7561.232     2858.356     3827.812        2.163        0.712      156.604       58.050        0.137      339.490       12.859      854.299
05/05/2013  09:10:00       69.621       51.326       78.015       63.621       65.601       56.229     4047.611     4303.446     3161.736        1.254        0.576       86.495       43.148        0.249      339.652       13.131      854.269
05/05/2013  09:11:00       21.261       29.698       53.598       57.868       74.423       43.654     3348.698     5538.742     1905.671        0.750        0.540       36.523       43.006        1.386      339.812       13.401      854.263
05/05/2013  09:12:00       90.061       -3.333       29.175       62.226      108.516       53.027     3872.086    11775.755     2811.859        1.371        0.923       90.122       59.050        0.429      339.592       13.030      854.285
05/05/2013  09:13:00      112.374     -104.599        5.577       94.284       96.867       81.422     8889.544     9383.143     6629.521        2.425        1.245      153.521       87.207        0.323      339.782       13.350      854.282
05/05/2013  09:14:00       64.529      -73.605       57.883       77.588      122.460       62.586     6019.914    14996.502     3916.953        1.893        1.247       97.886       73.052        0.557      339.885       13.523      854.293
05/05/2013  09:15:00       70.130       60.279       84.006       80.877       75.428       64.118     6541.045     5689.338     4111.109        1.597        0.817       92.476       59.417        0.413      339.877       13.511      854.310
05/05/2013  09:16:00       93.652       -9.198       63.072       88.850      106.960       56.844     7894.380    11440.419     3231.242        1.770        1.128       94.103       69.403        0.544      339.751       13.297      854.314
05/05/2013  09:17:00       62.487       88.418       94.140       79.538       76.205       67.481     6326.267     5807.150     4553.715        1.863        0.834      108.270       52.660        0.237      339.792       13.367      854.302
05/05/2013  09:18:00      101.316        5.279       24.820       87.478      115.120       53.848     7652.401    13252.588     2899.653        1.735        1.190      101.453       42.252        0.173      340.049       13.801      854.282
05/05/2013  09:19:00      205.767     -161.341       -0.816       99.426      126.347       73.598     9885.468    15963.618     5416.685        4.981        1.563      261.478       79.046        0.091      339.949       13.629      854.251
05/05/2013  09:20:00       78.125      -80.744       47.214      100.071      125.738       72.321    10014.199    15810.135     5230.362        2.295        1.553      112.353       71.391        0.404      340.094       13.877      854.239
05/05/2013  09:21:00      103.159       22.891       88.753       89.916      123.630       84.719     8084.808    15284.278     7177.265        2.479        1.527      105.668       75.257        0.507      340.117       13.915      854.260
05/05/2013  09:22:00       78.109       57.262       49.932       76.348       69.041       40.507     5828.978     4766.658     1640.843        1.205        0.612       96.850       21.454        0.049      340.295       14.216      854.251
05/05/2013  09:23:00      112.195       95.781       64.989       80.635       54.645       39.244     6502.062     2986.026     1540.108        1.850        0.551      147.519       26.800        0.033      340.146       13.964      854.247
05/05/2013  09:24:00        4.151      -21.545       32.387       65.273       88.100       48.055     4260.552     7761.586     2309.279        0.793        0.717       21.942       55.087        6.303      340.163       13.994      854.251
05/05/2013  09:25:00       77.800      -92.871       25.873      101.934      149.258       76.826    10390.507    22278.031     5902.278        2.695        1.929      121.152      101.747        0.705      340.141       13.958      854.221
05/05/2013  09:26:00       69.787     -178.628      -11.581       70.184      107.208       64.981     4925.735    11493.492     4222.557        2.877        1.032      191.776       46.221        0.058      339.760       13.313      854.234
05/05/2013  09:27:00       57.739      -43.401       38.381       70.071      127.214       68.475     4909.956    16183.335     4688.819        1.623        1.289       72.231       75.806        1.101      339.928       13.595      854.256
05/05/2013  09:28:00      130.746       24.186       56.115       84.678      123.101       74.561     7170.309    15153.825     5559.368        2.435        1.394      132.964       69.985        0.277      339.628       13.090      854.271
05/05/2013  09:29:00      158.479     -158.080      -22.122       88.240       73.764       53.869     7786.333     5441.168     2901.852        3.336        0.806      223.841       51.712        0.053      339.663       13.147      854.268
05/05/2013  09:30:00       82.811     -107.859      -16.295       60.176       59.384       49.701     3621.142     3526.507     2470.185        1.419        0.481      135.983       34.738        0.065      339.709       13.228      854.274
05/05/2013  09:31:00      100.793      -41.187       57.752       88.443      142.711       85.047     7822.177    20366.327     7232.954        2.530        1.771      108.884      101.783        0.874      339.763       13.316      854.263
05/05/2013  09:32:00       76.288      -41.820       39.252       80.830       99.802       67.570     6533.514     9960.461     4565.713        1.508        1.053       86.999       60.687        0.487      339.656       13.139      854.271
05/05/2013  09:33:00       73.522     -108.362        9.804       48.876       92.388       44.528     2388.880     8535.584     1982.773        1.507        0.645      130.950       40.523        0.096      339.730       13.262      854.265
05/05/2013  09:34:00       28.675      -19.430       34.743       54.579       55.423       44.060     2978.816     3071.746     1941.316        0.520        0.400       34.638       24.632        0.506      339.776       13.341      854.257
05/05/2013  09:35:00        2.803      -72.658       26.093       54.468       63.030       39.976     2966.738     3972.744     1598.078        0.725        0.427       72.712       33.744        0.215      339.828       13.430      854.237
05/05/2013  09:36:00       73.595       44.061       38.227       84.865       52.904       50.651     7202.017     2798.783     2565.570        1.069        0.628       85.777       28.105        0.107      339.771       13.333      854.239
05/05/2013  09:37:00       84.633       89.503       71.108       93.299       55.476       49.384     8704.649     3077.629     2438.802        1.722        0.711      123.181       52.565        0.182      339.547       12.955      854.234
05/05/2013  09:38:00        1.589       14.619       36.683       30.278       69.383       38.176      916.754     4813.936     1457.416        0.437        0.359       14.705       15.688        1.138      339.767       13.324      854.220
05/05/2013  09:39:00       65.150      -90.765       -2.025       51.507       64.429       36.007     2652.951     4151.136     1296.536        1.029        0.405      111.726       35.413        0.100      339.706       13.223      854.211
05/05/2013  09:40:00        9.536       35.721       24.988       31.092       37.785       32.505      966.685     1427.701     1056.581        0.272        0.173       36.972       10.047        0.074      339.793       13.371      854.197
05/05/2013  09:41:00      131.883       99.336       68.569       83.431       36.125       44.493     6960.734     1304.997     1979.658        2.110        0.512      165.108       35.469        0.046      339.518       12.905      854.172
05/05/2013  09:42:00       85.967       99.103      106.184       76.303       53.139       50.925     5822.175     2823.724     2593.380        1.986        0.562      131.193       33.310        0.064      339.580       13.009      854.147
05/05/2013  09:43:00       70.586       79.425      113.379       84.416       88.487       60.109     7126.052     7829.871     3613.110        2.135        0.928      106.258       60.331        0.322      339.501       12.875      854.135
05/05/2013  09:44:00       59.570       39.867       63.487       69.891       76.599       47.789     4884.801     5867.333     2283.811        1.110        0.652       71.680       47.363        0.437      339.560       12.976      854.152
05/05/2013  09:45:00       56.897      -46.182       30.951       70.406       69.515       53.897     4956.972     4832.358     2904.909        0.951        0.635       73.281       48.378        0.436      339.619       13.077      854.161
05/05/2013  09:46:00       68.523     -104.111      -19.075       44.522       47.263       29.253     1982.193     2233.790      855.739        1.048        0.254      124.638       18.641        0.022      339.538       12.938      854.183
05/05/2013  09:47:00       47.230       10.550       25.827       55.108       69.874       47.479     3036.852     4882.363     2254.240        0.659        0.509       48.394       36.613        0.572      339.751       13.299      854.194
05/05/2013  09:48:00       49.684       26.843       39.336       50.929       82.999       42.394     2593.755     6888.856     1797.246        0.801        0.564       56.472       39.831        0.497      339.828       13.430      854.194
05/05/2013  09:49:00       59.994      -23.713       17.888       83.390       59.014       41.694     6953.882     3482.604     1738.374        0.833        0.609       64.510       33.201        0.265      339.735       13.271      854.193
05/05/2013  09:50:00       58.476       46.441       46.507       58.939       84.030       43.255     3473.785     7061.083     1871.023        1.007        0.620       74.674       23.164        0.096      339.760       13.313      854.189
05/05/2013  09:51:00      187.091       92.639       72.386      120.967       72.241       67.623    14633.067     5218.813     4572.934        3.662        1.221      208.770       72.027        0.119      339.739       13.276      854.196
05/05/2013  09:52:00      128.676      139.072      137.553      115.087       89.256       79.785    13245.064     7966.615     6365.698        4.119        1.379      189.470       60.262        0.101      339.587       13.020      854.213
05/05/2013  09:53:00      133.180      -62.317       41.348      122.501      215.658       77.613    15006.391    46508.540     6023.822        4.542        3.377      147.039      109.553        0.555      339.711       13.230      854.231
05/05/2013  09:54:00       73.162      -74.189       67.883       75.958      132.755       89.712     5769.568    17624.022     8048.253        2.345        1.572      104.196       89.541        0.738      339.847       13.459      854.228
05/05/2013  09:55:00       98.274       29.181      113.704      106.684      142.164       84.075    11381.436    20210.491     7068.543        3.104        1.933      102.515       92.428        0.813      339.822       13.418      854.235
05/05/2013  09:56:00      100.867       -5.786       66.334      125.742       95.447       61.920    15811.160     9110.108     3834.119        2.168        1.438      101.032       64.515        0.408      339.737       13.274      854.245
05/05/2013  09:57:00      106.418     -115.614       19.735      101.361      100.583       69.563    10274.122    10116.898     4839.033        2.515        1.262      157.135       59.975        0.146      339.782       13.349      854.252
05/05/2013  09:58:00      166.028     -177.118        7.387       88.122      132.072       64.562     7765.402    17443.084     4168.289        4.418        1.469      242.768       79.663        0.108      339.739       13.276      854.254
05/05/2013  09:59:00      134.108     -194.125      -20.737      124.392      114.866       77.313    15473.312    13194.194     5977.275        4.537        1.732      235.944       87.183        0.137      339.770       13.328      854.253
05/05/2013  10:00:00       55.957       -2.923       75.525       67.127      106.762       75.689     4506.092    11398.106     5728.776        1.523        1.082       56.033       72.993        1.697      339.742       13.283      854.273
05/05/2013  10:01:00       54.118      -63.734       43.920       67.718       75.063       50.487     4585.720     5634.502     2548.895        1.084        0.638       83.611       40.339        0.233      339.825       13.423      854.291
05/05/2013  10:02:00       86.275      -97.211       -0.192       66.534      143.790       60.446     4426.774    20675.446     3653.734        2.282        1.438      129.974       80.710        0.386      339.794       13.369      854.306
05/05/2013  10:03:00      138.321     -214.713      -36.422      110.903      134.572       61.733    12299.560    18109.515     3810.933        5.038        1.711      255.410       69.106        0.073      339.734       13.267      854.306
05/05/2013  10:04:00      134.560     -162.382        9.339      103.620      148.995       89.115    10737.113    22199.507     7941.442        4.271        2.044      210.889       73.781        0.122      339.713       13.233      854.312
05/05/2013  10:05:00      202.870     -147.067       40.360      180.011      182.905       87.120    32404.126    33454.107     7589.906        6.892        3.672      250.570      113.495        0.205      339.552       12.961      854.342
05/05/2013  10:06:00      129.901      -10.991      101.427      137.509      221.885      140.232    18908.777    49233.039    19665.133        5.753        4.390      130.365      164.784        1.598      339.572       12.995      854.355
05/05/2013  10:07:00      193.876      130.639      110.603      154.756      163.964      108.057    23949.501    26884.047    11676.362        6.469        3.125      233.783       98.742        0.178      339.487       12.851      854.354
05/05/2013  10:08:00      177.553      164.607      147.222      130.148      106.396       98.122    16938.509    11320.196     9627.874        5.908        1.894      242.117       83.528        0.119      339.435       12.762      854.336
05/05/2013  10:09:00      122.302      141.008      131.685      101.625      107.662       92.338    10327.704    11591.072     8526.342        4.131        1.522      186.657       80.409        0.186      339.442       12.775      854.333
05/05/2013  10:10:00      134.302       26.431       86.781      110.512      108.545       70.303    12212.884    11781.999     4942.579        2.760        1.447      136.878       56.788        0.172      339.510       12.890      854.325
05/05/2013  10:11:00       99.553       27.515       79.926      113.876      124.699       75.929    12967.691    15549.799     5765.228        2.566        1.714      103.285       90.105        0.761      339.531       12.927      854.314
05/05/2013  10:12:00      201.327      -53.670       63.765      131.471      136.533       75.611    17284.704    18641.166     5716.964        4.455        2.082      208.358       73.614        0.125      339.457       12.801      854.324
05/05/2013  10:13:00      124.570       74.735       94.886      114.757       95.353       66.525    13169.272     9092.149     4425.532        2.839        1.334      145.269       62.268        0.184      339.447       12.784      854.318
05/05/2013  10:14:00       74.337      -16.534       39.978       74.174       89.548       47.817     5501.793     8018.801     2286.493        1.160        0.790       76.153       45.569        0.358      339.449       12.789      854.319
05/05/2013  10:15:00       38.351      -47.394       51.869       66.366       90.739       59.507     4404.507     8233.656     3541.120        1.129        0.809       60.967       56.704        0.865      339.551       12.963      854.329
05/05/2013  10:16:00       46.131      -21.810       32.241       49.687       63.038       34.642     2468.803     3973.846     1200.054        0.564        0.382       51.027       28.984        0.323      339.716       13.241      854.348
05/05/2013  10:17:00       32.731       -0.281       14.055       41.593       62.526       37.244     1729.969     3909.447     1387.088        0.415        0.351       32.732       33.691        1.059      339.769       13.329      854.368
05/05/2013  10:18:00       84.338       28.405       78.306      135.613      140.635       78.044    18390.925    19778.084     6090.876        2.915        2.213       88.993       88.401        0.987      339.673       13.165      854.376
05/05/2013  10:19:00       56.281      -89.571       62.654       80.633      123.466       63.410     6501.676    15243.953     4020.887        2.044        1.288      105.786       57.413        0.295      339.700       13.210      854.387
05/05/2013  10:20:00      106.401     -112.763       17.742       83.134      100.110       58.914     6911.344    10021.971     3470.854        2.237        1.020      155.038       41.890        0.073      339.702       13.215      854.407
05/05/2013  10:21:00       11.733       -0.333       53.311       42.579       67.603       39.271     1812.978     4570.203     1542.239        0.545        0.396       11.738       34.681        8.730      339.724       13.255      854.435
05/05/2013  10:22:00       41.012       52.388       55.046       59.919       78.822       62.606     3590.316     6212.863     3919.526        1.059        0.686       66.532       48.406        0.529      339.749       13.295      854.443
05/05/2013  10:23:00       81.754      114.110      116.084       64.523       50.202       32.845     4163.161     2520.203     1078.823        2.047        0.388      140.374       26.256        0.035      339.609       13.060      854.454
05/05/2013  10:24:00       68.229       73.344       65.492       76.186       60.153       32.251     5804.350     3618.343     1040.142        1.239        0.523      100.172       20.484        0.042      339.727       13.259      854.466
05/05/2013  10:25:00       55.790       50.119       91.503       69.228       87.875       94.958     4792.566     7722.039     9016.948        1.776        1.077       74.996       62.745        0.700      339.790       13.364      854.452
05/05/2013  10:26:00      195.322     -200.938       -6.985      130.552      151.244       92.452    17043.789    22874.670     8547.311        6.351        2.423      280.226      104.035        0.138      339.656       13.136      854.433
05/05/2013  10:27:00      121.890        8.289       65.861      139.628      119.428       93.332    19495.955    14262.973     8710.955        3.086        2.123      122.171       87.751        0.516      339.623       13.083      854.475
05/05/2013  10:28:00       45.706       -1.421       81.673       88.928      129.435       91.347     7908.261    16753.376     8344.340        2.088        1.650       45.728       83.902        3.367      339.726       13.256      854.471
05/05/2013  10:29:00      104.436      -10.899       63.215      111.091      132.310       70.403    12341.123    17506.008     4956.588        2.491        1.740      105.003       92.741        0.780      339.674       13.167      854.489
05/05/2013  10:30:00      159.527     -171.214       19.605      108.566      160.332       87.006    11786.684    25706.260     7570.105        5.010        2.253      234.016       92.552        0.156      339.733       13.266      854.480
05/05/2013  10:31:00      200.518      -91.957       70.022      176.382      278.087      165.566    31110.461    77332.575    27412.010        9.469        6.793      220.599      211.062        0.915      339.703       13.215      854.478
05/05/2013  10:32:00      162.819     -109.494       55.821      131.324      169.310       99.448    17245.987    28665.913     9889.963        4.870        2.790      196.212      124.210        0.401      339.663       13.148      854.510
05/05/2013  10:33:00       88.254      -45.366       51.682       77.184       90.642       76.871     5957.341     8216.022     5909.182        1.630        1.004       99.231       59.840        0.364      339.752       13.299      854.523
05/05/2013  10:34:00      119.230       52.415       58.823       98.897       97.138       69.987     9780.624     9435.701     4898.175        2.226        1.206      130.243       65.197        0.251      339.716       13.238      854.512
05/05/2013  10:35:00       31.995      -33.099       30.392       72.558      114.304       59.230     5264.673    13065.344     3508.162        1.244        1.092       46.035       45.447        0.975      339.835       13.440      854.491
05/05/2013  10:36:00       59.929      -33.812       31.166       96.435       90.076       62.294     9299.778     8113.741     3880.602        1.350        1.065       68.809       57.678        0.703      339.812       13.401      854.509
05/05/2013  10:37:00      100.996      -63.213       64.871      121.250      222.326      102.001    14701.617    49428.974    10404.181        4.646        3.727      119.147      133.018        1.246      339.796       13.373      854.508
05/05/2013  10:38:00      245.737     -202.726       10.057      144.545      163.530       81.671    20893.242    26742.116     6670.154        7.794        2.715      318.566       85.392        0.072      339.746       13.287      854.485
05/05/2013  10:39:00      163.942      -97.195       77.507      172.889      211.328      138.656    29890.613    44659.461    19225.388        6.804        4.689      190.589      163.548        0.736      339.706       13.221      854.523
05/05/2013  10:40:00      187.430     -183.890       14.736      135.441      166.072       95.514    18344.148    27579.770     9122.854        6.210        2.752      262.575       99.697        0.144      339.717       13.239      854.558
05/05/2013  10:41:00       80.882      -91.846       54.315       89.416      177.288       83.620     7995.136    31430.981     6992.339        3.217        2.321      122.383      106.945        0.764      339.734       13.268      854.550
05/05/2013  10:42:00      221.507     -133.446       42.574      149.641      225.339      133.294    22392.482    50777.694    17767.385        7.980        4.547      258.599      165.156        0.408      339.590       13.024      854.464
05/05/2013  10:43:00      129.037     -176.440       36.772      106.173      166.038       93.402    11272.694    27568.751     8723.984        4.834        2.378      218.590      104.414        0.228      339.608       13.056      854.437
05/05/2013  10:44:00      105.930     -172.809      -14.687      116.482       81.798       43.075    13568.087     6690.879     1855.498        3.170        1.106      202.692       29.540        0.021      339.616       13.070      854.439
05/05/2013  10:45:00       47.203      -29.427       21.112       66.410       51.712       50.099     4410.321     2674.132     2509.957        0.657        0.480       55.624       40.763        0.537      339.581       13.012      854.459
05/05/2013  10:46:00      105.928      -93.651        0.712       81.790       91.510       51.405     6689.545     8374.100     2642.467        1.885        0.885      141.390       50.424        0.127      339.546       12.952      854.468
05/05/2013  10:47:00        4.980       87.939      138.668       75.987      116.280       87.270     5774.057    13521.079     7616.084        2.694        1.346       88.080       87.896        0.996      339.617       13.073      854.488
05/05/2013  10:48:00       25.838      -15.912       50.730       88.249       91.421       56.950     7787.806     8357.832     3243.264        1.144        0.969       30.344       57.903        3.641      339.628       13.091      854.479
05/05/2013  10:49:00       47.666        8.763       69.888       79.537       98.497       54.064     6326.190     9701.655     2922.926        1.309        0.948       48.465       61.422        1.606      339.572       12.996      854.496
05/05/2013  10:50:00       73.381      -61.362       21.792       77.326      102.398       64.291     5979.356    10485.423     4133.391        1.511        1.030       95.656       67.831        0.503      339.561       12.978      854.518
05/05/2013  10:51:00      180.189     -171.144       -4.220      113.226      129.633       81.761    12820.203    16804.706     6684.900        4.904        1.815      248.512       87.641        0.124      339.503       12.877      854.584
05/05/2013  10:52:00       55.581     -102.089       42.832       77.178      133.635       67.868     5956.381    17858.187     4606.098        2.188        1.421      116.239       61.967        0.284      339.544       12.949      854.601
05/05/2013  10:53:00      162.641     -257.034        4.577      129.764      235.121       96.355    16838.734    55281.657     9284.307        8.696        4.070      304.169      124.508        0.168      339.545       12.949      854.608
05/05/2013  10:54:00       49.696     -122.155      -24.090       99.422      140.703       76.869     9884.716    19797.250     5908.868        2.678        1.780      131.877       52.184        0.157      339.655       13.135      854.612
05/05/2013  10:55:00       -3.125      -57.773       11.812       59.893       67.263       32.538     3587.139     4524.254     1058.699        0.633        0.459       57.858       23.123        0.160      339.737       13.276      854.627
05/05/2013  10:56:00       40.709      -60.479       17.902       83.026       95.505       51.503     6893.308     9121.156     2652.529        1.215        0.933       72.903       46.908        0.414      339.745       13.288      854.629
05/05/2013  10:57:00       81.976     -147.606        0.271       89.139      144.248       71.227     7945.750    20807.390     5073.301        3.116        1.691      168.842       69.611        0.170      339.659       13.142      854.675
05/05/2013  10:58:00       44.386     -101.183       12.614      118.453      173.162       94.353    14031.096    29985.001     8902.496        3.263        2.646      110.490      102.176        0.855      339.651       13.128      854.648
05/05/2013  10:59:00       15.967      -76.943        9.100      166.540      113.811       60.180    27735.514    12952.966     3621.600        2.528        2.216       78.582       54.505        0.481      339.659       13.142      854.640
05/05/2013  11:00:00      -30.594      -50.209        9.182       83.164       58.073       40.750     6916.319     3372.457     1660.572        0.774        0.597       58.796       48.121        0.670      339.630       13.094      854.705
05/05/2013  11:01:00       17.815      -70.537       47.521       95.549      175.456      125.929     9129.578    30784.815    15858.067        3.165        2.789       72.752      128.396        3.115      339.544       12.947      854.728
05/05/2013  11:02:00      163.424     -309.908      -17.562      153.743      174.731       90.863    23637.026    30530.916     8256.075        9.273        3.121      350.357       88.953        0.064      339.431       12.756      854.703
05/05/2013  11:03:00       34.354     -137.804       17.817      136.025      151.481       64.508    18502.817    22946.411     4161.333        3.304        2.281      142.021       44.767        0.099      339.330       12.587      854.708
05/05/2013  11:04:00      -94.195     -117.171       -6.002      106.647       81.968       56.439    11373.632     6718.779     3185.353        2.195        1.064      150.339       29.433        0.038      339.224       12.409      854.681
05/05/2013  11:05:00     -248.991     -119.382      -19.244      138.253       81.918       60.605    19113.990     6710.553     3672.947        5.305        1.475      276.131       69.895        0.064      339.064       12.137      854.693
05/05/2013  11:06:00      -34.648      -26.832       18.770       47.843       48.818       37.330     2288.947     2383.158     1393.522        0.417        0.303       43.823       33.425        0.582      339.143       12.274      854.646
05/05/2013  11:07:00      -43.617      -49.548      -10.410       69.321       46.584       36.559     4805.400     2170.028     1336.551        0.639        0.416       66.011       27.647        0.175      339.117       12.230      854.649
05/05/2013  11:08:00       27.397      -40.636        7.068       65.761       57.241       35.832     4324.511     3276.570     1283.901        0.567        0.444       49.009       28.182        0.331      339.282       12.510      854.666
05/05/2013  11:09:00      -37.148      -92.632        8.649      116.594       59.685       38.581    13594.268     3562.292     1488.504        1.434        0.932       99.803       36.598        0.134      339.293       12.525      854.667
05/05/2013  11:10:00     -103.309      -58.749       -3.727       76.587       81.781       45.599     5865.494     6688.080     2079.232        1.438        0.732      118.845       47.534        0.160      339.134       12.258      854.656
05/05/2013  11:11:00      -33.785     -195.505      -10.108      138.325      204.974       67.364    19133.730    42014.523     4537.855        5.256        3.284      198.402       81.939        0.171      339.179       12.331      854.705
05/05/2013  11:12:00       -4.834     -156.485        6.511      107.916      111.692       86.849    11645.799    12475.186     7542.667        2.810        1.583      156.559       68.705        0.193      339.296       12.531      854.728
05/05/2013  11:13:00       31.601      -85.713       54.153       94.522      174.321       96.259     8934.489    30387.932     9265.801        2.992        2.429       91.353      111.446        1.488      339.312       12.558      854.702
05/05/2013  11:14:00      -37.091      -33.656       39.325       48.829       53.158       30.383     2384.297     2825.810      923.114        0.509        0.307       50.084       21.553        0.185      339.300       12.540      854.603
05/05/2013  11:15:00      -65.924      -28.504        6.015       47.066       48.431       35.364     2215.183     2345.545     1250.603        0.550        0.291       71.822       26.993        0.141      339.301       12.541      854.541
05/05/2013  11:16:00      -67.443      -76.489       -5.235       94.319       56.363       43.393     8896.027     3176.780     1882.975        1.219        0.698      101.976       34.717        0.116      339.293       12.526      854.484
05/05/2013  11:17:00      -59.066      -55.044        9.022       55.475       64.365       28.218     3077.433     4142.892      796.236        0.731        0.401       80.738       27.635        0.117      339.293       12.526      854.532
05/05/2013  11:18:00      -66.574     -170.039        1.506       96.636       89.630       50.324     9338.495     8033.556     2532.504        2.662        0.995      182.607       35.059        0.037      339.301       12.536      854.627
05/05/2013  11:19:00     -125.131      -90.915        7.139       79.140       66.998       43.188     6263.073     4488.770     1865.195        1.829        0.631      154.672       31.723        0.042      339.295       12.529      854.649
05/05/2013  11:20:00        1.574      -92.845        5.153      105.646       51.913       42.517    11161.102     2694.985     1807.659        1.215        0.783       92.858       28.053        0.091      339.392       12.693      854.651
05/05/2013  11:21:00       -1.631      -84.941       -3.208       48.553       51.411       36.832     2357.369     2643.077     1356.565        0.679        0.318       84.957       19.853        0.055      339.409       12.722      854.635
05/05/2013  11:22:00       13.013      -24.981        9.880       44.275       59.970       31.957     1960.246     3596.402     1021.262        0.373        0.329       28.167       33.390        1.405      339.242       12.440      854.597
05/05/2013  11:23:00      -24.256      -85.238       11.568       87.619       80.053       38.001     7677.079     6408.465     1444.106        1.176        0.776       88.622       30.689        0.120      339.539       12.941      854.570
05/05/2013  11:24:00       18.164      -75.127       -3.811       41.719       68.454       41.139     1740.449     4685.975     1692.413        0.705        0.406       77.291       35.620        0.212      339.518       12.904      854.556
05/05/2013  11:25:00      -10.669       28.579        8.992       15.274       41.388       21.030      233.285     1712.993      442.243        0.170        0.119       30.506       15.316        0.252      339.431       12.761      854.547
05/05/2013  11:26:00       28.128      -29.319       -6.288       35.270       33.365       22.694     1243.979     1113.209      515.005        0.228        0.144       40.630       19.947        0.241      339.404       12.713      854.553
05/05/2013  11:27:00       -0.631        1.437        6.723       20.923       20.183       19.208      437.770      407.339      368.934        0.063        0.061        1.569       11.269       51.572      339.469       12.823      854.559
05/05/2013  11:28:00      -29.431       58.195      -18.322       21.904       20.704       13.913      479.784      428.660      193.573        0.285        0.055       65.214        7.662        0.014      339.494       12.867      854.510
05/05/2013  11:29:00      -20.205       -4.297       -7.040       15.607       43.035       15.209      243.588     1852.033      231.308        0.140        0.116       20.657       15.893        0.592      339.478       12.840      854.537
05/05/2013  11:30:00       39.878       17.344       15.093       50.879       42.865       26.042     2588.645     1837.412      678.187        0.361        0.255       43.486       18.740        0.186      339.461       12.810      854.530
05/05/2013  11:31:00       84.264       26.278       17.625       86.829       66.605       47.235     7539.288     4436.259     2231.120        1.115        0.710       88.267       48.896        0.307      339.434       12.765      854.476
05/05/2013  11:32:00       49.219      -35.611       55.974       60.472      112.036       52.310     3656.822    12552.061     2736.386        1.288        0.947       60.750       46.734        0.592      339.323       12.578      854.424
05/05/2013  11:33:00       47.368      -72.684       19.920      136.155      154.203       74.354    18538.129    23778.698     5528.581        2.788        2.392       86.757       74.669        0.741      339.442       12.776      854.435
05/05/2013  11:34:00      125.106     -203.369       -6.777      105.149      103.065       76.480    11056.281    10622.469     5849.197        4.229        1.376      238.769       55.252        0.054      339.487       12.851      854.384
05/05/2013  11:35:00      223.928     -209.184      -26.515      125.669      124.281       79.832    15792.575    15445.682     6373.195        6.610        1.881      306.434       54.847        0.032      339.613       13.063      854.390
05/05/2013  11:36:00      -24.499     -101.640       38.937      154.015      108.970       61.224    23720.598    11874.443     3748.404        2.589        1.967      104.551       59.860        0.328      339.753       13.301      854.350
05/05/2013  11:37:00       50.717      -84.272       36.541       91.215      154.600       56.196     8320.093    23901.170     3158.037        2.319        1.769       98.356       57.481        0.342      339.864       13.487      854.248
05/05/2013  11:38:00      112.399     -110.559       37.372      106.072       81.541       50.220    11251.285     6648.967     2522.086        2.333        1.021      157.661       46.704        0.088      340.236       14.117      854.177
05/05/2013  11:39:00      281.001     -334.383      -81.388      177.757      164.404       83.514    31597.556    27028.685     6974.591       13.149        3.280      436.776       81.056        0.034      340.131       13.937      854.119
05/05/2013  11:40:00      100.806     -128.485       79.068      130.128      230.265      136.634    16933.196    53021.955    18668.728        6.076        4.431      163.310      149.496        0.838      340.135       13.944      854.142
05/05/2013  11:41:00      114.755      -66.675       73.337      131.927      167.998      117.308    17404.818    28223.422    13761.282        4.118        2.969      132.719      118.474        0.797      340.181       14.024      854.192
05/05/2013  11:42:00       25.095     -142.889        7.397       76.850      100.574       59.160     5905.887    10115.058     3499.861        2.031        0.976      145.076       61.265        0.178      340.301       14.225      854.263
05/05/2013  11:43:00       90.957     -145.858       26.338      102.438       90.371       80.550    10493.611     8166.866     6488.280        2.769        1.257      171.895       71.874        0.175      340.348       14.305      854.298
05/05/2013  11:44:00       93.893     -109.873        5.218      126.132      137.684       75.383    15909.320    18956.782     5682.657        3.073        2.027      144.527       68.122        0.222      340.234       14.111      854.350
05/05/2013  11:45:00      198.452     -323.047      -33.382      167.393      176.427      114.618    28020.558    31126.486    13137.313       10.856        3.614      379.134       95.678        0.064      340.279       14.186      854.331
05/05/2013  11:46:00      111.925     -268.407      -17.261      133.339      122.792       70.387    17779.377    15077.760     4954.311        6.133        1.891      290.809       75.113        0.067      340.256       14.147      854.319
05/05/2013  11:47:00        8.683      -23.636       47.293       63.884      121.884       70.933     4081.180    14855.755     5031.510        1.342        1.198       25.181       77.033        9.359      340.047       13.798      854.260
05/05/2013  11:48:00      -38.470      -33.028       61.710       70.945       92.725       53.064     5033.185     8597.957     2815.788        1.141        0.822       50.703       34.754        0.470      340.126       13.931      854.264
05/05/2013  11:49:00      -43.081     -121.694       10.166       38.878       71.933       40.346     1511.493     5174.315     1627.760        1.254        0.416      129.095       25.518        0.039      340.180       14.021      854.266
05/05/2013  11:50:00      -24.065      -29.319      -13.658       59.241       29.096       21.759     3509.476      846.562      473.448        0.323        0.241       37.931       14.913        0.155      340.202       14.058      854.245
05/05/2013  11:51:00       25.346      -24.540       24.390       22.049       42.643       23.205      486.147     1818.451      538.454        0.234        0.142       35.279       23.207        0.433      340.141       13.956      854.222
05/05/2013  11:52:00      -36.633      -23.353        1.584      102.318       45.758       32.237    10468.874     2093.831     1039.248        0.774        0.680       43.443       28.411        0.428      340.150       13.972      854.177
05/05/2013  11:53:00     -119.173        4.456       -6.190       73.571       53.349       33.116     5412.678     2846.125     1096.680        1.181        0.468      119.256       31.767        0.071      340.107       13.899      854.133
05/05/2013  11:54:00      -48.667      -68.768       -1.747       72.816       34.500       31.741     5302.193     1190.273     1007.503        0.730        0.375       84.247       27.018        0.103      340.069       13.834      854.128
05/05/2013  11:55:00      -90.340      -72.556       -3.094       57.038       49.714       27.523     3253.369     2471.510      757.514        0.996        0.324      115.869       36.168        0.097      340.095       13.879      854.149
05/05/2013  11:56:00     -100.034      -70.149       -1.848       50.032       53.341       25.891     2503.183     2845.311      670.364        1.047        0.301      122.179       21.967        0.032      340.086       13.865      854.178
05/05/2013  11:57:00     -174.429      -47.139       -7.168       66.885       48.594       29.372     4473.618     2361.370      862.686        2.020        0.385      180.686       26.567        0.022      340.090       13.868      854.182
05/05/2013  11:58:00       -1.353       21.740       -1.959       22.791       30.733       25.115      519.407      944.490      630.750        0.129        0.105       21.782       17.116        0.617      340.286       14.202      854.168
05/05/2013  11:59:00       10.671      -14.310        2.068       17.385       23.527       23.965      302.225      553.543      574.315        0.088        0.072       17.851        8.441        0.224      340.257       14.153      854.170
05/05/2013  12:00:00       26.396      -16.628        6.363       30.702       38.123       29.152      942.641     1453.396      849.853        0.213        0.162       31.196       25.838        0.686      340.190       14.039      854.168
05/05/2013  12:01:00        0.432       19.329       34.672       33.419       35.651       26.521     1116.828     1270.976      703.390        0.233        0.155       19.334       16.251        0.707      340.155       13.980      854.175
05/05/2013  12:02:00       27.498       28.580       37.627       38.968       46.815       37.233     1518.507     2191.618     1386.287        0.404        0.255       39.661       28.167        0.504      340.208       14.070      854.159
05/05/2013  12:03:00       56.269      -63.140       -3.435       61.721       41.636       32.814     3809.450     1733.565     1076.771        0.689        0.331       84.574       32.072        0.144      340.063       13.825      854.139
05/05/2013  12:04:00       61.423      -24.584       11.382       39.286       57.807       34.076     1543.359     3341.686     1161.145        0.528        0.302       66.160       24.419        0.136      340.392       14.380      854.103
05/05/2013  12:05:00       45.193       34.555        0.632       34.757       22.748       20.504     1208.041      517.452      420.418        0.269        0.107       56.890       14.203        0.062      340.441       14.464      854.079
05/05/2013  12:06:00       87.959       72.061       31.207       59.727       30.546       39.511     3567.320      933.031     1561.138        0.998        0.303      113.708       25.903        0.052      340.481       14.531      854.052
05/05/2013  12:07:00      193.944       96.250       13.521      101.230       78.309       65.167    10247.446     6132.354     4246.683        3.384        1.031      216.514       28.620        0.017      340.419       14.422      854.025
05/05/2013  12:08:00      233.710      186.208       24.813      106.232       85.291       73.842    11285.230     7274.621     5452.698        5.696        1.201      298.821       40.864        0.019      340.127       13.930      854.017
05/05/2013  12:09:00       66.858      143.334       -1.333       70.422       75.296       64.971     4959.240     5669.511     4221.219        1.993        0.742      158.160       52.369        0.110      340.227       14.100      854.014
05/05/2013  12:10:00      115.904       81.682       31.720       57.248       54.447       47.255     3277.328     2964.443     2233.081        1.479        0.424      141.794       28.124        0.039      340.326       14.269      853.993
05/05/2013  12:11:00      189.741      114.359       17.262       69.567       62.659       50.721     4839.549     3926.135     2572.648        3.036        0.567      221.539       38.233        0.030      340.318       14.252      853.986
05/05/2013  12:12:00      126.924      112.839       12.913       61.586       38.911       43.501     3792.837     1514.058     1892.375        1.810        0.360      169.830       39.657        0.055      340.247       14.134      853.982
05/05/2013  12:13:00       -3.793       40.359       24.191       55.950       41.689       32.786     3130.374     1737.996     1074.892        0.408        0.297       40.537       27.905        0.474      340.645       14.810      853.969
05/05/2013  12:14:00       69.674       50.664       36.434       73.656       77.280       58.412     5425.152     5972.188     3411.952        1.178        0.740       86.147       43.068        0.250      340.519       14.595      853.947
05/05/2013  12:15:00       40.547      -65.660       -3.484       57.843       84.518       41.940     3345.855     7143.279     1758.934        0.911        0.612       77.170       40.731        0.279      340.371       14.346      853.935
05/05/2013  12:16:00     -113.548      -36.611      -10.663       37.632       62.032       25.997     1416.192     3847.978      675.863        1.014        0.297      119.304       25.719        0.046      340.381       14.361      853.896
05/05/2013  12:17:00      -10.322       40.917       35.037       36.311       28.284       25.422     1318.511      800.003      646.269        0.289        0.138       42.199       22.759        0.291      341.014       15.433      853.870
05/05/2013  12:18:00        7.129        7.617       29.890       36.671       61.539       36.458     1344.769     3787.058     1329.167        0.373        0.323       10.433       38.304       13.481      341.040       15.476      853.851
05/05/2013  12:19:00       11.715       93.431      111.588       73.877       71.604       76.447     5457.822     5127.126     5844.134        1.887        0.821       94.163       61.479        0.426      340.807       15.082      853.831
05/05/2013  12:20:00      166.699      143.347       75.714       59.590       47.341       54.502     3550.928     2241.179     2970.422        3.141        0.438      219.856       48.639        0.049      340.351       14.309      853.823
05/05/2013  12:21:00       89.030       99.847       29.862       62.302       32.489       37.743     3881.565     1055.545     1424.545        1.257        0.318      133.775       30.038        0.050      340.380       14.361      853.797
05/05/2013  12:22:00       -9.174       23.782       14.442       37.967       24.540       22.999     1441.522      602.211      528.932        0.172        0.129       25.491       20.164        0.626      340.641       14.801      853.759
05/05/2013  12:23:00      -80.588       52.663      -33.683       23.417       29.776       20.350      548.339      886.590      414.131        0.613        0.092       96.270        9.114        0.009      340.501       14.564      853.718
05/05/2013  12:24:00      -55.926       11.807      -22.339       28.898       34.507       16.007      835.096     1190.728      256.219        0.302        0.114       57.158       16.724        0.086      340.547       14.643      853.672
05/05/2013  12:25:00      -36.552       50.143      -12.987       31.540       56.118       20.087      994.765     3149.217      403.499        0.428        0.227       62.051       13.217        0.045      340.730       14.952      853.642
05/05/2013  12:26:00      106.935       75.501       29.497       89.881       50.765       30.239     8078.576     2577.037      914.371        1.479        0.578      130.903       28.051        0.046      340.872       15.192      853.630
05/05/2013  12:27:00      177.954       94.748       32.051      102.571       89.155       56.702    10520.827     7948.602     3215.142        3.167        1.084      201.606       48.689        0.058      340.662       14.833      853.615
05/05/2013  12:28:00       18.457       62.824       66.776       49.998       56.028       46.738     2499.765     3139.149     2184.450        0.828        0.391       65.479       31.382        0.230      340.908       15.253      853.599
05/05/2013  12:29:00       53.719       21.242       76.566       57.104      102.130       51.228     3260.853    10430.500     2624.335        1.275        0.816       57.766       55.569        0.925      340.951       15.326      853.575
05/05/2013  12:30:00       89.760       80.270       35.367       80.916       74.763       52.255     6547.418     5589.517     2730.540        1.531        0.743      120.417       22.543        0.035      341.083       15.548      853.551
05/05/2013  12:31:00       -7.469       85.037      114.716       40.813       56.133       35.537     1665.664     3150.944     1262.855        1.326        0.304       85.365       31.023        0.132      341.119       15.611      853.537
05/05/2013  12:32:00      160.785       82.703       20.811       84.164       71.106       41.070     7083.640     5056.106     1686.731        2.347        0.691      180.809       22.573        0.016      340.755       14.990      853.539
05/05/2013  12:33:00       54.725       62.562       21.293       52.687       34.508       32.721     2775.937     1190.797     1070.693        0.620        0.252       83.120       26.820        0.104      340.948       15.322      853.543
05/05/2013  12:34:00       95.506       52.995       14.683       52.268       43.019       34.354     2731.943     1850.637     1180.228        0.895        0.288      109.224       22.775        0.043      340.942       15.311      853.523
05/05/2013  12:35:00       56.289       -2.192       26.663       55.948       51.191       33.279     3130.139     2620.471     1107.524        0.537        0.343       56.332       24.846        0.195      341.345       15.993      853.511
05/05/2013  12:36:00       58.011      -28.613       42.004       65.712       66.443       49.822     4318.128     4414.612     2482.240        0.858        0.561       64.684       43.872        0.460      341.238       15.812      853.496
05/05/2013  12:37:00       20.975      -38.809       22.098       42.371       61.596       31.948     1795.297     3794.051     1020.707        0.452        0.331       44.114       25.793        0.342      341.002       15.412      853.492
05/05/2013  12:38:00       57.672      -75.117       -5.840       50.060       52.456       43.257     2506.024     2751.596     1871.177        0.806        0.356       94.703       35.930        0.144      341.131       15.632      853.485
05/05/2013  12:39:00      127.053     -212.602      -15.073       80.516       75.867       45.463     6482.748     5755.802     2066.865        3.793        0.715      247.673       41.310        0.028      341.067       15.521      853.477
05/05/2013  12:40:00      112.385      -59.476       21.548       89.828      120.115       60.696     8069.079    14427.719     3684.061        2.140        1.309      127.153       76.928        0.366      341.194       15.736      853.474
05/05/2013  12:41:00       88.455       71.609       52.753       70.578       43.249       39.105     4981.214     1870.457     1529.181        1.206        0.419      113.808       23.476        0.043      341.160       15.679      853.468
05/05/2013  12:42:00       32.940       10.852       40.652       71.054       82.777       44.097     5048.650     6852.031     1944.531        0.835        0.692       34.682       31.629        0.832      341.481       16.223      853.454
05/05/2013  12:43:00       76.561       -0.971       54.963       66.212       72.236       68.177     4384.007     5218.088     4648.063        1.156        0.713       76.567       49.807        0.423      341.386       16.062      853.458
05/05/2013  12:44:00      142.419       71.340       55.512       70.023      128.228       66.420     4903.265    16442.432     4411.627        2.710        1.288      159.288       58.725        0.136      341.231       15.797      853.459
05/05/2013  12:45:00      101.102      -24.675       20.164       87.735      149.386       48.970     7697.403    22316.152     2398.030        2.182        1.621      104.069       39.424        0.144      341.597       16.418      853.459
05/05/2013  12:46:00      116.228     -130.661        9.813       75.452       97.773       48.880     5693.030     9559.542     2389.277        2.416        0.882      174.875       45.037        0.066      341.521       16.289      853.459
05/05/2013  12:47:00      133.657     -137.499        7.502      105.972      121.986       64.436    11230.023    14880.686     4151.998        3.354        1.513      191.756       73.173        0.146      341.557       16.351      853.463
05/05/2013  12:48:00       83.689      -25.316       56.838       91.368      131.220       91.183     8348.073    17218.769     8314.305        2.237        1.694       87.434       99.809        1.303      341.529       16.304      853.477
05/05/2013  12:49:00       88.659       -4.030       54.174       87.384      103.765       68.296     7636.041    10767.164     4664.390        1.694        1.153       88.751       75.776        0.729      341.232       15.801      853.481
05/05/2013  12:50:00       64.708       14.564       49.840       85.419       78.444       53.329     7296.336     6153.478     2843.973        1.159        0.815       66.327       38.987        0.346      341.407       16.098      853.483
05/05/2013  12:51:00       77.082      -99.227       40.855       71.036       80.978       48.605     5046.123     6557.499     2362.425        1.571        0.698      125.648       41.529        0.109      341.368       16.032      853.468
05/05/2013  12:52:00       18.169      -14.894       48.621       50.017       89.560       36.862     2501.668     8020.914     1358.790        0.740        0.594       23.493       18.159        0.597      341.842       16.837      853.444
05/05/2013  12:53:00       -2.224       39.128       66.886       37.140       51.818       27.382     1379.382     2685.078      749.759        0.541        0.241       39.192       23.627        0.363      341.841       16.833      853.445
05/05/2013  12:54:00       27.585      -38.139       26.607       33.927       44.415       30.447     1151.047     1972.658      927.020        0.349        0.203       47.069       29.499        0.393      341.790       16.747      853.453
05/05/2013  12:55:00       43.595      -27.118       42.267       58.295      104.595       41.619     3398.353    10940.183     1732.139        1.024        0.804       51.341       50.817        0.980      341.920       16.967      853.441
05/05/2013  12:56:00       59.980      -15.448       20.747       63.025      104.980       46.313     3972.101    11020.874     2144.908        1.070        0.857       61.938       42.175        0.464      341.777       16.724      853.419
05/05/2013  12:57:00       65.858       23.483       63.064       82.513       98.450       53.666     6808.375     9692.375     2880.076        1.412        0.969       69.920       47.751        0.466      341.747       16.674      853.399
05/05/2013  12:58:00      142.380      112.681       48.688       39.210       35.870       41.144     1537.408     1286.634     1692.834        1.993        0.226      181.574       15.787        0.008      341.230       15.798      853.385
05/05/2013  12:59:00       21.900       23.958        7.546       49.823       52.926       43.534     2482.326     2801.196     1895.244        0.414        0.359       32.459       38.515        1.408      341.665       16.537      853.367
05/05/2013  13:00:00       40.811       12.817       39.862       38.088       61.927       28.624     1450.695     3834.989      819.346        0.476        0.305       42.777       34.243        0.641      341.878       16.896      853.337
05/05/2013  13:01:00       21.239      -73.228       13.972       58.977      100.697       53.470     3478.280    10139.907     2859.068        1.124        0.824       76.246       52.961        0.482      341.803       16.770      853.301
05/05/2013  13:02:00      -47.273      -32.235        7.988       65.494       55.389       31.286     4289.480     3067.917      978.838        0.584        0.417       57.217       20.946        0.134      341.845       16.841      853.264
05/05/2013  13:03:00      -13.180      -30.746       -7.221       51.994       71.826       28.561     2703.331     5159.044      815.715        0.492        0.434       33.452       15.449        0.213      341.815       16.790      853.235
05/05/2013  13:04:00      118.885      -99.819       18.356       68.257       93.895       53.209     4658.991     8816.267     2831.240        2.037        0.815      155.233       59.659        0.148      341.603       16.428      853.212
05/05/2013  13:05:00      108.178       31.921       49.895       90.620       98.428       41.253     8211.947     9688.122     1701.794        1.740        0.980      112.790       33.226        0.087      341.807       16.775      853.165
05/05/2013  13:06:00      142.297      133.108       94.277       93.330       62.010       63.594     8710.548     3845.198     4044.145        3.172        0.830      194.849       57.770        0.088      341.681       16.558      853.143
05/05/2013  13:07:00       54.499       21.705       62.057       78.944       77.721       44.848     6232.121     6040.522     2011.381        1.079        0.714       58.662       36.841        0.394      341.839       16.829      853.143
05/05/2013  13:08:00      -68.753      -24.156       -3.998       59.087       37.463       24.034     3491.292     1403.479      577.612        0.540        0.274       72.874       14.308        0.039      341.742       16.666      853.118
05/05/2013  13:09:00        5.666      -23.235        5.852       43.563       57.999       48.079     1897.731     3363.846     2311.553        0.409        0.379       23.916       40.885        2.922      342.163       17.381      853.103
05/05/2013  13:10:00      -28.465       16.107        1.386       48.963       58.406       24.887     2397.414     3411.242      619.363        0.375        0.321       32.706       17.924        0.300      342.032       17.159      853.103
05/05/2013  13:11:00       12.115       48.383       13.657       37.346       44.275       32.230     1394.707     1960.287     1038.803        0.353        0.220       49.877       24.270        0.237      342.375       17.741      853.097
05/05/2013  13:12:00       41.437       17.536        7.589       37.088       31.274       31.868     1375.516      978.077     1015.567        0.273        0.168       44.995       15.716        0.122      342.114       17.297      853.090
05/05/2013  13:13:00       79.213      -30.703       -3.989       60.293       77.123       45.280     3635.259     5947.984     2050.273        0.943        0.582       84.955       25.973        0.093      341.778       16.727      853.091
05/05/2013  13:14:00       31.811      -43.583       26.508       60.594       54.724       28.831     3671.692     2994.710      831.198        0.555        0.375       53.958       29.409        0.297      342.278       17.577      853.089
05/05/2013  13:15:00       88.219      -69.538        9.985       78.643       89.611       48.787     6184.695     8030.211     2380.157        1.465        0.830      112.331       20.485        0.033      342.166       17.384      853.052
05/05/2013  13:16:00      207.127      125.548       27.556       82.935       64.885       57.290     6878.160     4210.002     3282.133        3.689        0.719      242.206       21.397        0.008      342.023       17.139      853.049
05/05/2013  13:17:00      162.903      130.753       77.360       73.820       72.329       77.884     5449.441     5231.438     6065.878        3.318        0.837      208.887       35.661        0.029      342.038       17.165      853.032
05/05/2013  13:18:00      186.144      117.917       34.439       66.703       50.882       59.226     4449.264     2588.999     3507.730        3.014        0.527      220.350       37.283        0.029      342.114       17.297      853.039
05/05/2013  13:19:00      169.460      128.207       10.457      103.942       63.812       66.579    10803.880     4071.920     4432.824        3.228        0.965      212.494       48.947        0.053      341.689       16.574      853.048
05/05/2013  13:20:00      -17.166       -3.779      -11.133       32.666       19.289       22.942     1067.094      372.079      526.314        0.120        0.098       17.577       21.952        1.560      341.690       16.578      853.038
05/05/2013  13:21:00       78.717       55.120       17.135       90.073       46.409       33.549     8113.186     2153.831     1125.551        1.046        0.570       96.097       17.947        0.035      341.972       17.056      853.028
05/05/2013  13:22:00        5.221      222.582      -40.185       84.255       72.931       39.830     7098.883     5318.961     1586.426        3.259        0.700      222.643       28.649        0.017      341.659       16.523      853.008
05/05/2013  13:23:00      -71.699      166.022      -16.786       46.580       55.189       40.076     2169.725     3045.779     1606.069        1.990        0.341      180.843       36.008        0.040      341.948       17.013      852.993
05/05/2013  13:24:00       -4.743      102.736       10.905       37.037       64.123       41.710     1371.772     4111.724     1739.723        0.896        0.361      102.845       38.943        0.143      342.265       17.554      852.984
05/05/2013  13:25:00      -38.876       -0.940       21.382       57.505       57.541       36.033     3306.795     3311.001     1298.365        0.494        0.396       38.887       37.950        0.952      342.193       17.431      852.982
05/05/2013  13:26:00       16.623       52.117       59.769       42.932       46.493       39.523     1843.185     2161.632     1562.096        0.606        0.278       54.704       21.704        0.157      342.545       18.029      852.964
05/05/2013  13:27:00       82.423       77.954       50.739       73.219       70.882       40.196     5361.069     5024.281     1615.720        1.372        0.600      113.448       23.194        0.042      342.147       17.352      852.953
05/05/2013  13:28:00       55.343       37.111       20.102       30.476       26.637       29.298      928.790      709.529      858.364        0.367        0.125       66.634       12.298        0.034      341.836       16.827      852.941
05/05/2013  13:29:00       71.506       28.445       26.068       95.263       63.497       34.771     9075.084     4031.893     1209.046        1.046        0.716       76.956       26.921        0.122      342.230       17.493      852.902
05/05/2013  13:30:00       30.024       69.428       90.047       59.005       57.655       36.917     3481.558     3324.114     1362.860        1.100        0.408       75.642       35.843        0.225      342.574       18.078      852.884
05/05/2013  13:31:00       44.617      -38.229        8.133       57.971       55.356       53.664     3360.594     3064.242     2879.799        0.641        0.465       58.755       34.775        0.350      342.314       17.638      852.880
05/05/2013  13:32:00      154.982     -137.286       17.260      133.336      167.336       91.684    17778.584    28001.198     8405.868        4.867        2.709      207.043       90.046        0.189      342.355       17.704      852.817
05/05/2013  13:33:00      168.295       95.374      103.000      118.874      147.067      109.290    14131.135    21628.693    11944.239        4.786        2.385      193.441      108.856        0.317      341.934       16.987      852.850
05/05/2013  13:34:00      177.867       61.806       57.896      115.848       83.237       68.607    13420.754     6928.466     4706.858        3.193        1.253      188.300       47.120        0.063      341.866       16.872      852.873
05/05/2013  13:35:00      118.454      -53.626       44.603      122.371      120.550       64.218    14974.631    14532.360     4123.894        2.626        1.682      130.027       69.354        0.284      342.030       17.153      852.849
05/05/2013  13:36:00      129.683     -181.441      -37.426       65.331       68.710       33.018     4268.195     4721.086     1090.209        3.061        0.504      223.021       34.472        0.024      341.778       16.724      852.835
05/05/2013  13:37:00      107.746     -179.867      -21.237       65.491       73.394       41.486     4289.060     5386.668     1721.076        2.790        0.570      209.669       32.873        0.025      341.881       16.897      852.822
05/05/2013  13:38:00       50.591     -103.885       17.417       73.805       83.996       64.150     5447.228     7055.356     4115.226        1.513        0.831      115.549       54.996        0.227      342.110       17.290      852.813
05/05/2013  13:39:00      122.698      -53.597       58.194       89.530      183.373      109.023     8015.623    33625.723    11886.015        3.741        2.676      133.893      131.186        0.960      342.271       17.560      852.797
05/05/2013  13:40:00       54.427       40.927       84.379       63.885       59.030       51.556     4081.343     3484.492     2658.037        1.099        0.511       68.099       40.480        0.353      342.421       17.819      852.832
05/05/2013  13:41:00      118.448     -150.753        2.959       71.121      114.750       45.512     5058.179    13167.617     2071.376        2.853        1.015      191.720       38.611        0.041      341.867       16.875      852.838
05/05/2013  13:42:00       39.059      -13.142       37.587       55.108       68.478       42.233     3036.845     4689.199     1783.639        0.631        0.475       41.210       48.693        1.396      342.313       17.635      852.829
05/05/2013  13:43:00       18.662      -48.995       20.012       39.996       68.572       36.523     1599.715     4702.101     1333.913        0.539        0.382       52.429       30.798        0.345      342.254       17.536      852.797
05/05/2013  13:44:00       66.048        0.020       25.972       51.598       52.634       30.144     2662.346     2770.353      908.672        0.569        0.317       66.048       27.775        0.177      342.221       17.479      852.778
05/05/2013  13:45:00      106.441       71.339       40.554       48.448       80.069       40.740     2347.249     6411.027     1659.740        1.424        0.521      128.136       28.730        0.050      342.111       17.293      852.762
05/05/2013  13:46:00       39.658      -48.777       11.244       89.171       61.933       41.395     7951.439     3835.645     1713.550        0.879        0.675       62.865       31.700        0.254      341.899       16.932      852.756
05/05/2013  13:47:00       96.824       76.032       70.417      128.891       92.857       75.106    16612.932     8622.345     5640.961        2.549        1.544      123.109       52.450        0.182      342.139       17.338      852.693
05/05/2013  13:48:00      102.374      125.037      101.346       58.564       72.237       60.160     3429.791     5218.119     3619.180        2.432        0.613      161.600       43.315        0.072      341.832       16.817      852.686
05/05/2013  13:49:00      136.460      112.068       63.697       58.193       56.655       65.106     3386.450     3209.793     4238.825        2.303        0.542      176.581       38.146        0.047      341.729       16.644      852.660
05/05/2013  13:50:00       51.015      123.562      -18.255       70.510       62.496       36.690     4971.593     3905.780     1346.159        1.421        0.511      133.679       28.840        0.047      341.839       16.831      852.651
05/05/2013  13:51:00        1.055       22.570      -18.505       23.489       30.062       18.016      551.715      903.724      324.579        0.132        0.089       22.595       13.388        0.351      341.864       16.872      852.640
05/05/2013  13:52:00        6.627       18.382        1.548       19.465       34.761       23.130      378.901     1208.334      534.980        0.125        0.106       19.540       24.034        1.513      342.150       17.359      852.653
05/05/2013  13:53:00        8.295       18.666       -3.460       19.745       32.828       29.370      389.854     1077.649      862.587        0.138        0.117       20.427       17.973        0.774      341.922       16.971      852.653
05/05/2013  13:54:00       30.122      -37.860        4.157       22.992       45.285       23.683      528.645     2050.697      560.867        0.275        0.157       48.381       20.346        0.177      342.069       17.221      852.663
05/05/2013  13:55:00       30.741     -110.898        1.227       40.552       42.052       34.080     1644.479     1768.346     1161.427        0.891        0.229      115.079       24.953        0.047      342.057       17.200      852.662
05/05/2013  13:56:00       82.616      -87.452       10.031       76.035       87.968       59.838     5781.355     7738.331     3580.590        1.583        0.855      120.305       52.984        0.194      342.393       17.768      852.652
05/05/2013  13:57:00       40.650      -20.680       25.687       49.526       89.990       52.019     2452.777     8098.218     2705.998        0.800        0.663       45.608       54.849        1.446      342.323       17.653      852.654
05/05/2013  13:58:00       84.934     -100.108        7.658      109.729      146.548       69.253    12040.490    21476.292     4795.949        2.780        1.916      131.283       94.679        0.520      342.491       17.935      852.633
05/05/2013  13:59:00       98.939     -235.342      -15.579       60.183       80.082       43.628     3622.050     6413.063     1903.370        3.868        0.597      255.293       34.097        0.018      342.114       17.293      852.596
05/05/2013  14:00:00      101.302     -179.183      -21.337       78.974       76.298       45.762     6236.918     5821.346     2094.160        2.849        0.708      205.837       33.099        0.026      342.338       17.674      852.570
05/05/2013  14:01:00       24.636      -51.943       42.043       52.905       85.741       52.277     2798.990     7351.438     2732.899        0.898        0.644       57.490       48.314        0.706      342.631       18.175      852.522
05/05/2013  14:02:00       72.788      -64.400       50.379      109.726      115.459       78.730    12039.751    13330.800     6198.391        2.177        1.578       97.188       78.750        0.657      342.612       18.141      852.469
05/05/2013  14:03:00      150.187     -315.961      -24.325       89.933      107.587       67.557     8087.910    11574.920     4563.952        7.360        1.211      349.840       55.520        0.025      342.317       17.638      852.436
05/05/2013  14:04:00       77.168     -146.234      -10.668       79.333       88.584       58.276     6293.661     7847.086     3396.146        2.249        0.877      165.346       51.277        0.096      342.488       17.929      852.447
05/05/2013  14:05:00      169.202     -256.902      -37.022      109.879      141.999       54.270    12073.418    20163.664     2945.225        6.558        1.759      307.616       50.138        0.027      342.386       17.757      852.439
05/05/2013  14:06:00      128.736     -111.829      -10.366       75.151       71.093       52.503     5647.734     5054.251     2756.518        2.132        0.673      170.525       60.933        0.128      342.252       17.531      852.464
05/05/2013  14:07:00       45.837      -27.959        0.152       74.754       64.307       42.563     5588.183     4135.449     1811.650        0.721        0.577       53.691       34.878        0.422      342.331       17.665      852.467
05/05/2013  14:08:00      185.950       99.646       39.428      118.369      100.179       75.580    14011.267    10035.831     5712.376        3.791        1.488      210.966       53.355        0.064      342.529       18.001      852.448
05/05/2013  14:09:00      159.389      107.289       19.951       59.112       50.428       44.595     3494.213     2542.994     1988.672        2.267        0.401      192.135       18.704        0.009      342.653       18.210      852.440
05/05/2013  14:10:00      150.838       40.603       15.051       85.311       88.542       48.690     7277.912     7839.763     2370.708        2.105        0.874      156.208       16.566        0.011      342.858       18.561      852.433
05/05/2013  14:11:00      -21.688       48.892      -18.957       53.041      102.840       37.522     2813.393    10575.994     1407.929        0.901        0.740       53.486       35.198        0.433      342.707       18.304      852.419
05/05/2013  14:12:00      -15.088       29.478       13.349       95.759       39.842       39.218     9169.724     1587.366     1538.080        0.678        0.615       33.115       54.782        2.737      342.919       18.666      852.399
05/05/2013  14:13:00      242.059      160.440       45.586       93.227       78.131       50.772     8691.306     6104.447     2577.773        5.189        0.869      290.402       36.302        0.016      342.596       18.112      852.375
05/05/2013  14:14:00      132.616       99.505       24.590      101.531       67.183       63.911    10308.501     4513.612     4084.610        2.350        0.945      165.796       32.034        0.037      342.814       18.486      852.358
05/05/2013  14:15:00       95.316       95.604       12.671      104.771       90.536       60.985    10976.907     8196.690     3719.155        2.064        1.145      135.001       48.054        0.127      342.666       18.232      852.351
05/05/2013  14:16:00       76.821       78.971        1.918       72.921       86.781       58.335     5317.411     7531.013     3402.940        1.419        0.813      110.172       48.630        0.195      342.849       18.546      852.349
05/05/2013  14:17:00       63.296      151.231       -1.989       88.979      100.541       72.463     7917.289    10108.582     5250.896        2.508        1.164      163.942       65.595        0.160      342.421       17.818      852.342
05/05/2013  14:18:00      -28.867      190.128      -32.979       70.743       56.066       29.965     5004.636     3143.424      897.905        2.356        0.452      192.307       26.138        0.018      342.295       17.603      852.345
05/05/2013  14:19:00     -151.570      180.301      -31.558       97.482      108.268       66.261     9502.817    11722.000     4390.473        4.104        1.281      235.546       43.658        0.034      342.587       18.098      852.290
05/05/2013  14:20:00     -143.202       59.920      -15.700       77.908       54.331       46.254     6069.586     2951.902     2139.442        1.775        0.558      155.233       49.323        0.101      342.543       18.024      852.287
05/05/2013  14:21:00       -2.751       24.675       16.086       23.116       44.790       33.438      534.349     2006.157     1118.129        0.227        0.183       24.828       33.099        1.777      343.020       18.840      852.299
05/05/2013  14:22:00       74.455       43.836       31.940       57.580       48.634       46.094     3315.495     2365.265     2124.632        0.814        0.390       86.401       27.427        0.101      342.771       18.414      852.287
05/05/2013  14:23:00       76.785       14.388       34.967       80.723       75.436       51.450     6516.155     5690.587     2647.135        1.109        0.743       78.121       51.224        0.430      342.431       17.835      852.282
05/05/2013  14:24:00       58.918       20.753       17.540       76.022       51.511       42.210     5779.369     2653.385     1781.704        0.721        0.511       62.466       38.445        0.379      342.783       18.435      852.267
05/05/2013  14:25:00       24.586      -33.901        8.588       28.744       37.191       25.636      826.226     1383.193      657.206        0.235        0.143       41.878       16.275        0.151      343.100       18.975      852.251
05/05/2013  14:26:00       25.414        2.781        8.549       31.761       34.069       23.514     1008.790     1160.696      552.924        0.172        0.136       25.565       10.458        0.167      343.137       19.037      852.236
05/05/2013  14:27:00      -12.467       -8.457       -6.701       47.703       79.131       29.411     2275.577     6261.756      864.997        0.484        0.470       15.065       23.323        2.397      343.034       18.861      852.232
05/05/2013  14:28:00       77.999      -95.975       -7.049       30.716       44.351       26.426      943.466     1966.982      698.312        0.948        0.180      123.673       24.691        0.040      342.452       17.871      852.213
05/05/2013  14:29:00       69.475      -90.927       -6.560      101.628      101.680       52.515    10328.150    10338.750     2757.838        1.828        1.171      114.431       71.456        0.390      342.801       18.464      852.201
05/05/2013  14:30:00       88.011     -142.355      -46.590       71.780       91.635       52.027     5152.350     8396.996     2706.808        2.322        0.813      167.365       37.854        0.051      342.559       18.053      852.163
05/05/2013  14:31:00       98.505     -195.123      -24.334       78.198       53.128       34.408     6114.883     2822.617     1183.892        2.924        0.506      218.578       36.651        0.028      342.322       17.649      852.194
05/05/2013  14:32:00      -35.771      -12.187       10.712       38.551       54.276       31.687     1486.156     2945.850     1004.039        0.349        0.272       37.790       36.757        0.946      342.841       18.534      852.197
05/05/2013  14:33:00       37.544       21.945        4.260       43.760       23.598       28.081     1914.894      556.845      788.516        0.258        0.163       43.488       17.365        0.159      342.331       17.666      852.196
05/05/2013  14:34:00      -35.191       58.555       -9.583       34.674       39.036       26.598     1202.320     1523.776      707.448        0.410        0.172       68.316       17.625        0.067      342.832       18.519      852.202
05/05/2013  14:35:00      -38.356       41.727        2.392       58.647       58.612       33.220     3439.515     3435.327     1103.576        0.560        0.399       56.678       35.900        0.401      342.909       18.649      852.190
05/05/2013  14:36:00      -51.214       58.812       -3.487       41.742       47.730       29.129     1742.410     2278.172      848.519        0.548        0.243       77.985       32.735        0.176      342.883       18.604      852.173
05/05/2013  14:37:00      -49.784      -36.783        4.816       50.751       41.875       30.361     2575.632     1753.547      921.796        0.455        0.263       61.899       21.391        0.119      343.192       19.131      852.173
05/05/2013  14:38:00      -43.207      -25.755        4.878       75.354       48.040       40.526     5678.226     2307.835     1642.318        0.609        0.481       50.301       32.101        0.407      342.986       18.779      852.183
05/05/2013  14:39:00       13.860      -39.752       32.179       57.128       79.536       48.315     3263.642     6325.949     2334.334        0.736        0.596       42.099       38.829        0.851      343.176       19.104      852.180
05/05/2013  14:40:00        9.997      -77.113        4.113       89.157       69.033       51.399     7948.978     4765.514     2641.859        1.071        0.768       77.758       45.149        0.337      343.044       18.878      852.192
05/05/2013  14:41:00      -28.296      -96.436       -1.512       71.793       62.116       40.950     5154.244     3858.345     1676.883        1.039        0.534      100.501       30.464        0.092      343.054       18.896      852.177
05/05/2013  14:42:00      -19.397      -83.209       -0.570       62.724      104.342       48.151     3934.258    10887.159     2318.530        1.222        0.857       85.440       49.511        0.336      343.097       18.968      852.186
05/05/2013  14:43:00      -32.300      -54.657        7.055       77.149       49.160       41.250     5952.031     2416.702     1701.550        0.707        0.504       63.487       41.487        0.427      342.926       18.678      852.178
05/05/2013  14:44:00      -28.014      -17.686        2.651       46.447       40.242       41.436     2157.298     1619.400     1716.968        0.330        0.275       33.130       27.799        0.704      342.796       18.458      852.184
05/05/2013  14:45:00       -3.365      -76.033       -6.959       68.432       83.077       35.595     4682.973     6901.708     1267.006        0.934        0.643       76.108       45.565        0.358      342.810       18.480      852.176
05/05/2013  14:46:00       67.288      -72.584        0.493       38.876       76.100       34.299     1511.353     5791.268     1176.428        0.914        0.424       98.976       36.371        0.135      342.561       18.057      852.169
05/05/2013  14:47:00       56.197        0.084       14.567       50.583       29.084       33.735     2558.688      845.859     1138.027        0.396        0.227       56.197       24.073        0.183      342.525       17.996      852.143
05/05/2013  14:48:00       15.162       18.905       24.676       51.234       31.423       29.666     2624.907      987.405      880.078        0.284        0.225       24.234       10.548        0.189      342.843       18.537      852.108
05/05/2013  14:49:00      -30.650       73.223       11.320       22.800       45.593       31.916      519.819     2078.761     1018.599        0.502        0.181       79.378       27.003        0.116      342.864       18.573      852.064
05/05/2013  14:50:00      -90.154       58.113      -17.234       32.276       36.903       20.174     1041.753     1361.820      406.989        0.731        0.141      107.261       16.906        0.025      342.757       18.392      852.038
05/05/2013  14:51:00     -105.825       24.540      -21.307       61.997       58.692       44.038     3843.643     3444.799     1939.379        1.074        0.461      108.633       39.445        0.132      342.601       18.122      851.993
05/05/2013  14:52:00      -29.545      -30.174      -15.566       38.690       39.677       31.354     1496.914     1574.272      983.065        0.304        0.203       42.230       31.707        0.564      342.580       18.089      851.957
05/05/2013  14:53:00     -117.842      -44.719       -2.586       48.623       41.627       26.434     2364.197     1732.797      698.781        1.034        0.240      126.042       14.600        0.013      342.855       18.557      851.918
05/05/2013  14:54:00     -162.708        5.564      -11.658       77.589       38.761       34.976     6020.079     1502.387     1223.314        1.769        0.437      162.803       44.181        0.074      342.813       18.483      851.889
05/05/2013  14:55:00     -104.556       55.122      -12.114       56.795       70.152       31.313     3225.723     4921.329      980.524        1.162        0.456      118.196       35.742        0.091      342.841       18.533      851.883
05/05/2013  14:56:00      -43.530       28.202       12.172       39.601       42.515       30.167     1568.242     1807.514      910.048        0.356        0.214       51.867       29.831        0.331      343.420       19.521      851.876
05/05/2013  14:57:00      -38.199      -25.042       15.396       74.156       35.191       27.783     5499.073     1238.396      771.886        0.492        0.375       45.675       33.161        0.527      343.270       19.265      851.864
05/05/2013  14:58:00      -74.013       12.084       -2.774       67.484       64.502       36.835     4554.111     4160.522     1356.839        0.785        0.504       74.993       34.612        0.213      343.473       19.609      851.870
05/05/2013  14:59:00     -125.984       -2.185       -6.285       53.339       78.204       37.263     2845.060     6115.811     1388.512        1.313        0.517      126.003       37.372        0.088      343.150       19.059      851.888
05/05/2013  15:00:00     -104.197       44.945      -22.255       31.594       29.274       21.442      998.185      856.976      459.757        0.784        0.116      113.477       10.190        0.008      342.822       18.500      851.905
05/05/2013  15:01:00       -7.152       54.755      -17.979       23.298       22.915       16.864      542.782      525.108      284.409        0.236        0.068       55.220       12.240        0.049      342.695       18.286      851.912
05/05/2013  15:02:00       22.787       34.656        6.773       24.491       22.191       28.759      599.816      492.448      827.071        0.184        0.096       41.476       21.785        0.276      342.853       18.552      851.903
05/05/2013  15:03:00       -5.209       64.079       -4.427       35.954       35.274       24.717     1292.661     1244.255      610.921        0.365        0.157       64.291       16.235        0.064      342.763       18.399      851.882
05/05/2013  15:04:00       50.306       28.179       13.254       40.313       43.643       29.719     1625.104     1904.733      883.240        0.396        0.221       57.661       21.509        0.139      342.650       18.209      851.864
05/05/2013  15:05:00       -2.929       -7.320        4.006       27.372       37.862       23.950      749.225     1433.543      573.611        0.142        0.138        7.885       12.702        2.595      343.112       18.994      851.847
05/05/2013  15:06:00      -45.541        4.967        3.681      118.044       32.140       43.784    13934.283     1032.976     1916.996        0.950        0.844       45.811       60.373        1.737      343.028       18.851      851.836
05/05/2013  15:07:00      -80.956        8.481        0.298       46.317       35.528       31.695     2145.290     1262.224     1004.559        0.552        0.221       81.399       25.350        0.097      343.279       19.280      851.826
05/05/2013  15:08:00     -178.457      -22.681       -0.940       72.006       39.057       27.296     5184.792     1525.444      745.095        1.991        0.373      179.893       25.084        0.019      343.027       18.849      851.810
05/05/2013  15:09:00     -193.632      -14.167       -5.445      107.473       98.107       45.896    11550.477     9625.037     2106.425        3.050        1.164      194.150       17.493        0.008      343.252       19.230      851.798
05/05/2013  15:10:00     -219.546        4.782      -19.126       75.715       65.575       40.839     5732.701     4300.086     1667.838        3.014        0.585      219.598       44.104        0.040      343.025       18.843      851.795
05/05/2013  15:11:00     -162.036      -11.786       -6.468       73.911       93.772       41.737     5462.787     8793.136     1742.016        2.121        0.800      162.464       34.579        0.045      343.036       18.862      851.791
05/05/2013  15:12:00     -153.277       67.651      -21.234       44.138       28.731       23.727     1948.168      825.492      562.985        1.593        0.167      167.543        9.385        0.003      342.789       18.445      851.785
05/05/2013  15:13:00       17.238       72.186       -6.757       41.448       36.818       36.090     1717.960     1355.599     1302.478        0.496        0.219       74.216       28.821        0.151      343.033       18.860      851.777
05/05/2013  15:14:00      -74.313        9.970       12.044       84.696       45.804       37.176     7173.367     2097.988     1382.054        0.821        0.533       74.979       47.289        0.398      343.302       19.319      851.746
05/05/2013  15:15:00     -103.752       75.312      -12.066       41.336       60.728       38.475     1708.702     3687.899     1480.337        1.173        0.344      128.204       34.944        0.074      342.935       18.693      851.733
05/05/2013  15:16:00       -4.229       67.048      -14.562       66.835       57.933       32.397     4466.971     3356.252     1049.551        0.680        0.444       67.181       43.901        0.427      342.770       18.412      851.720
05/05/2013  15:17:00       34.708       -0.127        9.111       22.584       29.158       24.805      510.044      850.211      615.291        0.163        0.099       34.708       10.288        0.088      342.896       18.627      851.707
05/05/2013  15:18:00      -24.127       28.432       16.160       33.976       27.987       28.791     1154.348      783.245      828.900        0.221        0.138       37.289       20.039        0.289      343.317       19.344      851.694
05/05/2013  15:19:00        0.234       46.020       37.867       53.052       42.659       40.910     2814.508     1819.756     1673.607        0.493        0.315       46.021       30.664        0.444      343.459       19.586      851.691
05/05/2013  15:20:00      -89.660       55.671       -4.156       44.972       39.523       30.742     2022.436     1562.031      945.086        0.784        0.226      105.537       25.819        0.060      342.992       18.789      851.682
05/05/2013  15:21:00      -55.993       95.613      -11.484       32.190       41.437       25.454     1036.180     1717.016      647.907        0.790        0.170      110.802       17.520        0.025      342.937       18.697      851.685
05/05/2013  15:22:00      -65.582       74.242      -23.178       38.570       50.038       22.393     1487.681     2503.839      501.468        0.742        0.225       99.060        9.125        0.008      342.738       18.359      851.663
05/05/2013  15:23:00      -77.810       90.907      -29.510       27.832       37.171       18.009      774.634     1381.661      324.309        0.883        0.124      119.660       16.809        0.020      342.718       18.324      851.643
05/05/2013  15:24:00      -85.417       91.794      -16.141       40.203       40.418       29.520     1616.246     1633.653      871.426        1.005        0.206      125.389       28.753        0.053      343.033       18.861      851.589
05/05/2013  15:25:00     -116.238       82.750      -10.237       52.953       59.041       29.438     2804.019     3485.802      866.580        1.381        0.358      142.685       28.637        0.040      342.852       18.552      851.551
05/05/2013  15:26:00      -58.444       37.198        3.328       53.494       44.863       30.019     2861.597     2012.671      901.119        0.529        0.289       69.277       27.858        0.162      343.224       19.186      851.517
05/05/2013  15:27:00      -57.506       51.947       -4.318       42.817       43.268       33.620     1833.335     1872.139     1130.296        0.543        0.242       77.494       18.485        0.057      343.270       19.263      851.482
05/05/2013  15:28:00      -99.973       81.246      -19.440       46.819       40.041       32.311     2192.031     1603.295     1044.013        1.091        0.242      128.824       24.831        0.037      342.928       18.679      851.445
05/05/2013  15:29:00      -36.040       -9.226        4.905       33.248       19.995       16.411     1105.422      399.813      269.317        0.159        0.089       37.202       17.661        0.225      343.176       19.105      851.427
05/05/2013  15:30:00       15.383        2.101       23.274       19.943       13.070       15.980      397.725      170.814      255.367        0.080        0.041       15.526       10.879        0.491      343.642       19.896      851.403
05/05/2013  15:31:00       21.516      -37.772      -14.242       30.803       28.902       28.619      948.855      835.329      819.041        0.235        0.130       43.470        8.217        0.036      342.823       18.502      851.388
05/05/2013  15:32:00       24.777      -13.747        1.490       20.360       17.619       17.797      414.530      310.430      316.722        0.092        0.052       28.335        8.031        0.080      342.676       18.253      851.377
05/05/2013  15:33:00       15.528       29.639       -4.085       17.569       31.750       23.107      308.664     1008.077      533.940        0.149        0.093       33.460       21.349        0.407      343.138       19.038      851.384
05/05/2013  15:34:00       -6.006      -43.567       -6.801       32.060       33.933       21.396     1027.870     1151.474      457.784        0.231        0.132       43.979       10.072        0.052      343.125       19.016      851.375
05/05/2013  15:35:00     -156.029      -67.301      -18.855       51.671       32.818       23.479     2669.919     1077.049      551.258        1.676        0.215      169.925       23.665        0.019      342.989       18.785      851.360
05/05/2013  15:36:00     -112.730     -154.929       14.649      111.861      103.422       58.844    12512.891    10696.148     3462.626        3.179        1.334      191.601       60.068        0.098      343.184       19.113      851.321
05/05/2013  15:37:00     -205.888     -108.842       -7.962       96.709       79.250       42.244     9352.676     6280.535     1784.563        3.586        0.871      232.887       41.008        0.031      343.152       19.060      851.283
05/05/2013  15:38:00     -288.054     -163.070      -27.642       93.130       81.246       41.049     8673.185     6600.902     1685.011        6.364        0.848      331.009       45.058        0.019      343.131       19.023      851.260
05/05/2013  15:39:00     -224.700      -82.603      -17.797       84.420       78.882       41.517     7126.757     6222.309     1723.632        3.635        0.754      239.401       45.339        0.036      343.156       19.066      851.240
05/05/2013  15:40:00     -106.879      -39.676        8.726       65.159       54.819       38.883     4245.641     3005.176     1511.869        1.092        0.438      114.006       29.610        0.067      343.311       19.332      851.205
05/05/2013  15:41:00     -142.067      -41.328       -0.008       82.588       80.088       38.980     6820.752     6414.126     1519.455        1.832        0.738      147.956       39.500        0.071      343.471       19.605      851.192
05/05/2013  15:42:00     -129.157       68.152       -0.076      117.826       75.670       50.988    13882.988     5725.960     2599.749        2.176        1.110      146.034       54.237        0.138      343.312       19.333      851.172
05/05/2013  15:43:00     -165.403       45.602      -11.837       79.768       63.649       42.069     6362.955     4051.146     1769.842        2.088        0.609      171.574       31.716        0.034      342.976       18.760      851.163
05/05/2013  15:44:00     -110.411     -108.817        5.461      104.099       95.808       58.028    10836.609     9179.132     3367.286        2.372        1.169      155.022       58.463        0.142      343.164       19.080      851.154
05/05/2013  15:45:00     -112.693      -80.693        6.351       67.334       78.125       46.320     4533.927     6103.447     2145.555        1.602        0.639      138.604       41.892        0.091      343.087       18.952      851.154
05/05/2013  15:46:00     -126.688      -69.986       -9.860       48.734       48.033       26.814     2375.034     2307.194      718.990        1.322        0.270      144.734       22.687        0.025      342.963       18.739      851.166
05/05/2013  15:47:00      -39.981      -45.972       19.435       81.502       60.499       33.670     6642.588     3660.117     1133.678        0.776        0.572       60.926       36.058        0.350      343.259       19.244      851.179
05/05/2013  15:48:00      -13.809      -55.410       11.058       45.961       54.482       45.996     2112.425     2968.342     2115.627        0.529        0.360       57.104       23.210        0.165      343.191       19.129      851.182
05/05/2013  15:49:00      -86.746      -83.465        4.369       75.670       69.893       42.211     5725.899     4885.025     1781.791        1.345        0.620      120.380       43.605        0.131      343.134       19.033      851.190
05/05/2013  15:50:00      -44.893      -47.538        1.167       45.557       49.325       27.371     2075.464     2432.915      749.159        0.477        0.263       65.385       24.006        0.135      342.928       18.679      851.185
05/05/2013  15:51:00     -122.205     -128.094        0.588       64.715       72.119       42.440     4188.028     5201.203     1801.167        2.126        0.560      177.037       39.267        0.049      343.032       18.857      851.173
05/05/2013  15:52:00     -177.122     -163.715       -0.262      100.917       56.586       40.624    10184.284     3201.979     1650.343        3.660        0.752      241.194       39.760        0.027      342.971       18.750      851.159
05/05/2013  15:53:00     -189.973     -170.209        7.785       88.242       80.998       54.589     7786.717     6560.682     2979.980        4.122        0.866      255.070       54.652        0.046      343.022       18.837      851.148
05/05/2013  15:54:00     -191.210     -101.512        1.417      117.487       69.116       48.899    13803.218     4777.013     2391.111        3.392        1.049      216.486       55.043        0.065      343.007       18.812      851.138
05/05/2013  15:55:00     -136.626     -118.847        1.033       94.315       58.346       37.681     8895.403     3404.254     1419.892        2.325        0.686      181.084       38.463        0.045      343.047       18.881      851.152
05/05/2013  15:56:00     -103.088      -93.318        6.150      111.727       66.144       53.926    12482.989     4374.981     2908.017        1.957        0.988      139.052       36.479        0.069      343.090       18.956      851.176
05/05/2013  15:57:00     -103.228     -140.973       -9.030       59.529       78.489       39.598     3543.701     6160.570     1568.029        2.094        0.564      174.726       37.535        0.046      343.093       18.960      851.197
05/05/2013  15:58:00      -67.239     -118.577        8.981       80.722       81.722       42.595     6515.999     6678.404     1814.311        1.683        0.750      136.314       41.817        0.094      343.061       18.905      851.212
05/05/2013  15:59:00     -119.912     -197.256       -0.969      117.616       91.358       53.395    13833.598     8346.357     2851.067        3.916        1.252      230.844       45.544        0.039      342.999       18.800      851.255
05/05/2013  16:00:00      -17.231     -182.146        5.041       69.072      106.193       51.286     4770.894    11277.010     2630.258        2.609        0.934      182.959       48.905        0.071      342.951       18.718      851.291
05/05/2013  16:01:00      -88.599     -133.720        5.503       92.112       83.106       48.841     8484.665     6906.551     2385.456        2.177        0.889      160.408       40.171        0.063      342.952       18.721      851.329
05/05/2013  16:02:00      -76.673      -61.659      -10.407       73.996       38.945       29.825     5475.440     1516.693      889.544        0.883        0.394       98.390       21.034        0.046      342.979       18.768      851.350
05/05/2013  16:03:00       24.945      -36.471       22.434       35.636       54.426       35.228     1269.902     2962.179     1241.046        0.396        0.274       44.186       27.986        0.401      343.003       18.808      851.387
05/05/2013  16:04:00       49.587     -125.154        6.703       90.043      100.349       50.411     8107.678    10069.991     2541.310        1.944        1.036      134.620       49.308        0.134      342.945       18.709      851.426
05/05/2013  16:05:00       25.583     -108.970       12.674      127.945      125.849       71.903    16369.936    15837.945     5169.996        2.503        1.869      111.933       74.142        0.439      342.930       18.681      851.485
05/05/2013  16:06:00       33.875     -143.369       12.937      100.743       66.667       49.665    10149.140     4444.443     2466.622        1.946        0.853      147.317       38.828        0.069      343.013       18.825      851.539
05/05/2013  16:07:00       -6.075     -147.290       29.364       81.186      101.084       82.652     6591.197    10217.958     6831.320        2.311        1.182      147.415       60.716        0.170      343.041       18.871      851.646
05/05/2013  16:08:00      -74.430     -197.300        6.107      195.734      203.177      107.676    38311.947    41280.791    11594.133        6.783        4.559      210.872       85.175        0.163      342.678       18.253      851.786
05/05/2013  16:09:00       78.870     -645.778       -4.474      307.883      331.800      167.438    94791.895   110090.916    28035.623       32.806       11.646      650.577      183.631        0.080      341.576       16.381      851.888
05/05/2013  16:10:00      196.126     -417.122      -34.588      261.679      270.994      133.232    68475.746    73437.866    17750.713       18.663        7.983      460.929      116.556        0.064      341.464       16.192      851.927
05/05/2013  16:11:00      241.043     -542.523      -45.538      325.172      302.177      147.441   105736.633    91310.806    21738.940       28.661       10.939      593.661      121.814        0.042      341.302       15.916      851.959
05/05/2013  16:12:00      155.952     -437.752      -25.386      199.652      277.440      149.707    39860.735    76973.069    22412.183       17.790        6.962      464.702      127.241        0.075      341.197       15.739      852.005
05/05/2013  16:13:00       64.950     -419.128       16.514      211.334      258.620      147.875    44662.134    66884.547    21867.113       15.676        6.671      424.130       82.447        0.038      341.181       15.713      852.120
05/05/2013  16:14:00      142.257     -296.651        2.887      185.101      242.288      122.268    34262.547    58703.451    14949.549       10.806        5.396      328.997      117.281        0.127      341.198       15.741      852.167
05/05/2013  16:15:00      207.760     -218.443      135.285      307.804      413.636      212.614    94743.578   171094.921    45204.727       21.006       15.552      301.466      259.772        0.743      341.208       15.758      852.205
05/05/2013  16:16:00      223.254     -413.320       13.127      158.904      243.132      121.771    25250.435    59113.004    14828.175       16.000        4.960      469.761      116.128        0.061      341.306       15.924      852.403
05/05/2013  16:17:00       81.586     -281.563       -6.000      168.237      169.823      116.311    28303.587    28839.904    13528.176        7.831        3.534      293.145       73.657        0.063      341.367       16.026      852.457
05/05/2013  16:18:00       67.396     -329.696       70.514      327.843      349.022      184.414   107480.768   121816.256    34008.545       19.072       13.165      336.514      164.930        0.240      341.135       15.634      852.540
05/05/2013  16:19:00      -41.797     -576.595       -6.525      189.132      315.315      118.495    35770.959    99423.852    14041.121       24.172        7.462      578.108       54.143        0.009      340.937       15.300      852.691
05/05/2013  16:20:00       13.982     -445.252       -6.426      239.622      287.683      142.014    57418.937    82761.794    20168.032       17.939        8.017      445.471      117.741        0.070      340.607       14.741      852.843
05/05/2013  16:21:00       28.532     -381.995       20.859      306.979      298.905      165.604    94236.349    89343.964    27424.577       17.905       10.550      383.059      153.732        0.161      340.436       14.452      852.985
05/05/2013  16:22:00       20.151     -385.013      -24.358      175.123      193.848      122.039    30668.111    37577.174    14893.584       11.617        4.157      385.540      103.123        0.072      340.450       14.474      852.971
05/05/2013  16:23:00     -120.122     -314.494       -8.095      171.006      258.054      106.270    29243.145    66592.063    11293.385       11.025        5.356      336.654      119.653        0.126      340.432       14.446      853.064
05/05/2013  16:24:00      -72.572     -422.731        9.461      192.805      191.599      108.851    37173.841    36710.302    11848.451       13.488        4.287      428.915       87.483        0.042      340.315       14.248      853.109
05/05/2013  16:25:00     -105.131     -222.475      -15.449      229.512      157.203       88.620    52675.659    24712.748     7853.465        7.300        4.262      246.064       64.196        0.068      340.189       14.035      853.053
05/05/2013  16:26:00     -232.035     -304.727       26.889      256.958      237.516       87.639    66027.337    56413.869     7680.620       13.875        6.506      383.013      119.712        0.098      340.168       14.000      853.021
05/05/2013  16:27:00     -311.201     -281.246      -16.861      200.614      198.390       83.946    40245.794    39358.433     7046.907       13.143        4.333      419.458      103.058        0.060      340.159       13.983      853.030
05/05/2013  16:28:00      -39.265     -108.578       22.871      135.887       97.384       54.698    18465.412     9483.610     2991.824        2.239        1.547      115.460       57.837        0.251      340.239       14.122      852.948
05/05/2013  16:29:00       -0.795        0.989       30.089       70.692       52.704       50.014     4997.365     2777.665     2501.355        0.559        0.514        1.268       49.554     1526.301      340.141       13.957      852.899
05/05/2013  16:30:00      -55.645       23.731       -6.445       38.504       37.898       34.231     1482.570     1436.256     1171.748        0.390        0.205       60.494       17.932        0.088      340.107       13.900      852.883
05/05/2013  16:31:00      145.070      102.141       21.658       55.330       50.623       45.923     3061.451     2562.645     2108.949        1.984        0.387      177.421       21.315        0.014      340.224       14.095      852.798
05/05/2013  16:32:00       42.030      125.544      -28.002       68.932       53.412       28.292     4751.553     2852.801      800.427        1.336        0.420      132.392       26.351        0.040      340.374       14.351      852.673
05/05/2013  16:33:00     -171.553       29.868      -29.830       45.652       71.059       29.623     2084.098     5049.331      877.514        1.961        0.401      174.134       25.111        0.021      340.521       14.598      852.542
05/05/2013  16:34:00       18.340      -25.776        1.737       89.498       66.907       33.804     8009.910     4476.509     1142.690        0.731        0.681       31.635       34.749        1.207      340.582       14.702      852.507
05/05/2013  16:35:00      114.689      -59.794       48.706       97.002       91.188       59.044     9409.451     8315.196     3486.155        2.015        1.061      129.340       45.941        0.126      340.407       14.405      852.482
05/05/2013  16:36:00       38.196      -96.261       -1.005       58.732       92.283       64.709     3449.463     8516.242     4187.275        1.344        0.808      103.562       60.551        0.342      340.413       14.415      852.421
05/05/2013  16:37:00       64.192     -112.973      -10.006       52.769       71.136       48.956     2784.527     5060.366     2396.714        1.361        0.512      129.937       40.648        0.098      340.611       14.751      852.433
05/05/2013  16:38:00       38.736      -63.912       -3.197       41.244       45.458       32.766     1701.071     2066.425     1073.635        0.522        0.242       74.734       25.360        0.115      340.580       14.699      852.487
05/05/2013  16:39:00      118.244       69.051       18.949       42.800       29.868       21.155     1831.799      892.069      447.534        1.114        0.159      136.929       20.638        0.023      340.714       14.926      852.558
05/05/2013  16:40:00       69.518       52.667        8.365       57.232       32.253       26.941     3275.451     1040.287      725.829        0.636        0.252       87.215       17.408        0.040      340.662       14.837      852.600
05/05/2013  16:41:00       17.823        1.654       -4.708       47.103       32.979       17.978     2218.715     1087.600      323.214        0.199        0.181       17.900       13.262        0.549      340.709       14.918      852.621
05/05/2013  16:42:00      -23.891      -22.761       -6.004       32.984       23.857       25.325     1087.915      569.147      641.342        0.171        0.115       32.998       18.102        0.301      340.734       14.960      852.570
05/05/2013  16:43:00      -25.688      -26.077        1.639       38.557       36.014       17.929     1486.669     1297.001      321.445        0.222        0.155       36.604       13.598        0.138      340.737       14.965      852.520
05/05/2013  16:44:00      -81.366        2.619       -9.105       23.866       19.755       14.460      569.607      390.251      209.086        0.394        0.058       81.408       14.176        0.030      340.666       14.844      852.482
05/05/2013  16:45:00      -33.105        0.158       -3.593       72.911       22.193       22.349     5315.971      492.550      499.491        0.371        0.315       33.105       12.219        0.136      340.707       14.914      852.470
05/05/2013  16:46:00       26.062       56.854       65.275       40.892       38.906       24.997     1672.116     1513.707      624.825        0.599        0.191       62.543       21.183        0.115      340.609       14.750      852.546
05/05/2013  16:47:00       34.510       -4.537       44.716       48.037       57.329       43.573     2307.583     3286.632     1898.597        0.535        0.375       34.807       39.600        1.294      340.583       14.703      852.565
05/05/2013  16:48:00      112.225       65.303       17.444       71.362       43.703       29.227     5092.470     1909.927      854.209        1.251        0.393      129.842       18.899        0.021      340.710       14.916      852.471
05/05/2013  16:49:00      215.724      117.675       17.123       94.285       71.637       55.451     8889.572     5131.883     3074.807        3.888        0.855      245.733       36.037        0.022      340.527       14.607      852.388
05/05/2013  16:50:00       33.508      191.158      -13.052       91.108      115.680       68.172     8300.732    13381.843     4647.433        3.208        1.317      194.073       70.445        0.132      340.449       14.475      852.226
05/05/2013  16:51:00       93.798      130.047        6.812      137.921       93.304       70.295    19022.094     8705.605     4941.340        2.921        1.633      160.345       59.593        0.138      340.924       15.279      852.111
05/05/2013  16:52:00      177.705       86.066       32.379      112.760       77.035       59.745    12714.786     5934.344     3569.509        3.112        1.111      197.449       30.936        0.025      340.705       14.907      852.136
05/05/2013  16:53:00      106.121       92.962       89.911      111.313       84.167       76.263    12390.636     7084.122     5816.087        2.663        1.265      141.080       64.525        0.209      340.454       14.484      852.216
05/05/2013  16:54:00      128.487       93.981       82.403       97.833       89.810       70.459     9571.329     8065.760     4964.524        2.736        1.130      159.190       38.017        0.057      340.575       14.689      852.297
05/05/2013  16:55:00      241.458      147.101       76.632      142.561       92.139      100.119    20323.613     8489.567    10023.802        6.232        1.942      282.738       76.859        0.074      340.755       14.991      852.356
05/05/2013  16:56:00       66.899      -21.152       49.032       78.389      107.549       55.166     6144.902    11566.762     3043.295        1.404        1.038       70.163       49.679        0.501      340.664       14.841      852.375
05/05/2013  16:57:00      121.191       62.800       34.442       93.691      114.518       60.476     8778.093    13114.291     3657.362        2.268        1.277      136.496       41.893        0.094      340.773       15.024      852.353
05/05/2013  16:58:00       77.218     -222.995        9.697       77.896      120.318       59.058     6067.768    14476.326     3487.887        3.990        1.202      235.986       63.705        0.073      340.915       15.261      852.354
05/05/2013  16:59:00       60.974      -45.335       43.329       89.187      158.501       83.970     7954.410    25122.642     7051.009        2.388        2.006       75.981      107.789        2.013      340.886       15.214      852.334
05/05/2013  17:00:00       76.862      -83.094       33.807       89.416       98.511       57.090     7995.159     9704.476     3259.311        1.745        1.048      113.192       68.237        0.363      340.907       15.251      852.316
05/05/2013  17:01:00      162.253     -230.545      -22.983       67.643       73.035       44.494     4575.633     5334.063     1979.695        4.595        0.594      281.916       32.841        0.014      340.956       15.330      852.309
05/05/2013  17:02:00       47.589     -122.433      -24.133       78.517       61.314       39.251     6164.932     3759.446     1540.660        1.465        0.573      131.357       46.001        0.123      341.026       15.451      852.345
05/05/2013  17:03:00       51.264      -61.070      -13.989       53.967       57.171       22.859     2912.481     3268.572      522.533        0.663        0.335       79.734       18.589        0.054      341.063       15.515      852.365
05/05/2013  17:04:00      -10.101      -20.833       -1.361       44.365       36.845       25.471     1968.228     1357.567      648.766        0.226        0.199       23.153        9.434        0.166      341.049       15.494      852.348
05/05/2013  17:05:00     -106.521      -97.264        3.186       74.676       61.714       33.590     5576.556     3808.584     1128.292        1.566        0.526      144.246       31.080        0.046      340.993       15.394      852.319
05/05/2013  17:06:00      -98.793      -78.233        9.216       74.445       49.027       33.709     5542.084     2403.680     1136.326        1.252        0.454      126.018       35.530        0.079      340.982       15.376      852.291
05/05/2013  17:07:00      -99.610      -91.478        5.105       66.578       68.277       35.244     4432.618     4661.708     1242.108        1.432        0.517      135.242       43.203        0.102      341.022       15.447      852.252
05/05/2013  17:08:00      -94.353      -69.284       -0.502       62.924       45.150       34.584     3959.375     2038.495     1196.071        1.045        0.360      117.059       37.191        0.101      341.020       15.442      852.223
05/05/2013  17:09:00     -100.077      -83.080       -1.687       99.946       49.346       33.656     9989.180     2435.075     1132.736        1.524        0.678      130.068       29.557        0.052      341.072       15.529      852.203
05/05/2013  17:10:00     -117.559     -112.922      -18.521       59.113       61.294       33.784     3494.354     3756.947     1141.365        1.765        0.420      163.008       22.048        0.018      340.969       15.354      852.191
05/05/2013  17:11:00     -163.777      -87.154       -6.331       71.952       79.236       38.451     5177.088     6278.333     1478.500        2.369        0.647      185.523       31.353        0.029      340.848       15.150      852.190
05/05/2013  17:12:00     -160.804      -56.807       -4.746       86.582       67.839       37.062     7496.506     4602.129     1373.598        2.129        0.674      170.543       34.592        0.041      340.827       15.114      852.182
05/05/2013  17:13:00     -167.216      -59.146      -24.524       84.689       52.378       24.923     7172.213     2743.450      621.149        2.130        0.527      177.368       28.430        0.026      340.811       15.090      852.174
05/05/2013  17:14:00     -120.643      -48.135       -9.381       36.695       38.484       24.044     1346.555     1481.022      578.099        1.018        0.170      129.891       16.789        0.017      340.841       15.140      852.178
05/05/2013  17:15:00     -106.560        8.789       -7.081       45.221       57.171       24.473     2044.943     3268.523      598.931        0.870        0.296      106.922       20.889        0.038      340.869       15.187      852.184
05/05/2013  17:16:00      -94.538       16.201       -4.671       67.789       51.983       32.490     4595.353     2702.223     1055.629        0.879        0.418       95.916       30.591        0.102      340.831       15.123      852.195
05/05/2013  17:17:00     -151.396       -1.875      -11.583       57.943       32.455       27.544     3357.384     1053.350      758.658        1.411        0.258      151.408       30.190        0.040      340.816       15.097      852.210
05/05/2013  17:18:00     -203.916       -7.597       -9.146       65.618       49.709       39.958     4305.765     2470.984     1596.605        2.505        0.419      204.057       39.499        0.037      340.822       15.106      852.230
05/05/2013  17:19:00     -166.687      -71.414      -11.028       60.508       43.876       24.047     3661.223     1925.104      578.262        1.958        0.308      181.341       23.934        0.017      340.801       15.071      852.243
05/05/2013  17:20:00     -114.120      -62.605        4.403       67.278       29.973       23.840     4526.283      898.388      568.332        1.148        0.300      130.164       29.273        0.051      340.878       15.200      852.266
05/05/2013  17:21:00     -137.920      -49.585       -0.465       54.021       40.887       24.850     2918.253     1671.743      617.515        1.334        0.260      146.563       28.653        0.038      340.892       15.225      852.291
05/05/2013  17:22:00     -110.574      -26.445        0.254       41.582       46.520       28.670     1729.085     2164.083      821.950        0.882        0.236      113.693       19.292        0.029      340.905       15.249      852.323
05/05/2013  17:23:00     -120.402      -48.783       -6.611       48.575       50.361       25.155     2359.500     2536.210      632.779        1.122        0.276      129.909       26.158        0.041      340.916       15.265      852.356
05/05/2013  17:24:00      -85.024      -92.281       12.419       95.013       56.604       39.484     9027.556     3203.962     1558.963        1.484        0.690      125.479       49.347        0.155      340.985       15.381      852.379
05/05/2013  17:25:00     -124.190      -92.539       -0.230       63.428       45.463       30.245     4023.148     2066.909      914.754        1.549        0.350      154.876       31.621        0.042      340.915       15.264      852.402
05/05/2013  17:26:00     -139.776      -69.954       -5.024       46.662       38.764       32.006     2177.306     1502.679     1024.414        1.458        0.235      156.304       22.948        0.022      340.953       15.329      852.427
05/05/2013  17:27:00      -51.662      -34.330        9.448       72.928       34.318       25.058     5318.525     1177.755      627.916        0.553        0.356       62.028       26.202        0.178      341.065       15.519      852.436
05/05/2013  17:28:00      -21.481      -36.068       19.497       58.786       44.966       33.701     3455.839     2021.929     1135.770        0.438        0.331       41.980       31.834        0.575      341.113       15.601      852.426
05/05/2013  17:29:00      -89.157      -56.972        8.918       58.768       45.217       32.276     3453.722     2044.568     1041.713        0.891        0.327      105.805       34.907        0.109      341.018       15.440      852.416
05/05/2013  17:30:00     -105.573      -45.613       -7.412       39.855       40.827       22.313     1588.426     1666.852      497.863        0.852        0.188      115.005       11.565        0.010      341.088       15.558      852.393
05/05/2013  17:31:00     -234.174      -54.751       -8.479       72.821       51.867       35.921     5302.877     2690.146     1290.341        3.359        0.464      240.489       38.179        0.025      340.887       15.214      852.346
05/05/2013  17:32:00     -133.144       -6.996       -5.889       60.827       45.456       30.568     3699.907     2066.239      934.414        1.225        0.335      133.328       27.138        0.041      340.995       15.400      852.278
05/05/2013  17:33:00     -180.940      -22.559       -8.667       70.426       83.443       40.133     4959.793     6962.797     1610.631        2.343        0.677      182.341       41.049        0.051      340.982       15.376      852.184
05/05/2013  17:34:00     -262.668      -23.043      -29.078       92.530       73.472       39.950     8561.801     5398.066     1595.974        4.296        0.778      263.677       46.701        0.031      340.968       15.352      852.127
05/05/2013  17:35:00     -203.192      -80.452      -11.715       81.532       78.592       39.212     6647.398     6176.723     1537.581        3.113        0.718      218.540       43.450        0.040      341.023       15.445      852.123
05/05/2013  17:36:00     -122.342      -53.349        1.122       63.322       58.871       30.796     4009.707     3465.816      948.383        1.312        0.421      133.468       27.293        0.042      341.053       15.500      852.162
05/05/2013  17:37:00     -169.865      -64.745       -5.917       69.886       61.040       30.566     4884.003     3725.915      934.298        2.131        0.477      181.786       36.402        0.040      341.014       15.431      852.232
05/05/2013  17:38:00     -207.207      -50.639      -14.382       94.013       38.790       34.341     8838.376     1504.633     1179.331        2.861        0.576      213.305       40.688        0.036      341.010       15.423      852.286
05/05/2013  17:39:00     -120.074        5.436       -0.878       54.873       34.035       23.135     3011.069     1158.410      535.214        0.958        0.235      120.197       28.040        0.054      341.024       15.448      852.294
05/05/2013  17:40:00      -56.627      -15.589       -0.512       33.083       38.235       21.387     1094.479     1461.927      457.396        0.323        0.151       58.733       20.869        0.126      341.074       15.537      852.273
05/05/2013  17:41:00      -38.462      -29.729        3.416       47.095       40.602       23.685     2217.950     1648.553      560.999        0.340        0.221       48.612       16.498        0.115      341.087       15.558      852.241
05/05/2013  17:42:00      -54.229      -28.289       11.815       66.903       31.349       31.778     4476.025      982.772     1009.868        0.517        0.323       61.164       28.876        0.223      341.161       15.682      852.188
05/05/2013  17:43:00     -176.488      -22.258      -11.443       77.345       56.216       34.618     5982.219     3160.226     1198.405        2.106        0.517      177.886       39.582        0.050      341.085       15.552      852.148
05/05/2013  17:44:00     -140.418      -66.587       11.160       85.276       93.458       43.985     7272.061     8734.342     1934.636        2.111        0.897      155.406       47.970        0.095      341.063       15.514      852.111
05/05/2013  17:45:00     -194.208      -14.730      -10.740       64.290       73.431       39.916     4133.200     5392.161     1593.267        2.458        0.556      194.766       33.738        0.030      341.084       15.548      852.064
05/05/2013  17:46:00     -248.546      -41.720       -9.055       81.318       77.395       39.650     6612.582     5989.994     1572.150        3.888        0.709      252.023       31.214        0.015      341.057       15.502      852.013
05/05/2013  17:47:00     -219.179      -96.793       -8.301      113.409       97.601       49.113    12861.602     9525.932     2412.114        4.113        1.240      239.600       53.124        0.049      341.047       15.485      851.981
05/05/2013  17:48:00     -201.163      -83.438       -4.718       75.164       63.630       46.155     5649.560     4048.816     2130.261        2.964        0.591      217.781       27.268        0.016      341.055       15.500      851.971
05/05/2013  17:49:00     -231.254      -67.178        5.715       91.764       64.392       43.885     8420.717     4146.317     1925.914        3.626        0.725      240.814       48.748        0.041      340.997       15.400      851.983
05/05/2013  17:50:00     -187.205      -37.139       -6.440       52.980       47.433       30.259     2806.925     2249.930      915.605        2.122        0.299      190.854       30.619        0.026      341.033       15.463      852.011
05/05/2013  17:51:00     -122.386      -25.365       -0.903       61.300       46.295       31.201     3757.638     2143.212      973.521        1.125        0.344      124.987       27.199        0.047      341.072       15.532      852.036
05/05/2013  17:52:00     -159.483      -48.596      -11.134       48.206       57.361       29.854     2323.827     3290.269      891.271        1.721        0.325      166.722       30.044        0.032      341.058       15.506      852.047
05/05/2013  17:53:00     -150.677      -63.978       -7.191       67.966       55.687       30.255     4619.374     3101.029      915.390        1.774        0.432      163.697       36.173        0.049      341.046       15.486      852.065
05/05/2013  17:54:00     -107.893        3.937       -0.200       27.481       48.538       34.220      755.200     2355.930     1171.039        0.797        0.214      107.965       15.989        0.022      341.120       15.612      852.070
05/05/2013  17:55:00     -160.867        7.164      -14.052       46.424       50.428       23.526     2155.214     2542.952      553.473        1.569        0.263      161.026        7.575        0.002      341.099       15.577      852.064
05/05/2013  17:56:00     -143.634      -50.457      -14.333       24.034       30.632       16.902      577.636      938.313      285.686        1.259        0.090      152.238        5.473        0.001      341.094       15.569      852.068
05/05/2013  17:57:00     -103.658      -36.798       -7.899       36.295       35.352       21.943     1317.300     1249.753      481.515        0.760        0.152      109.996       19.649        0.032      341.150       15.661      852.078
05/05/2013  17:58:00      -93.946       -8.789       -3.049       36.296       36.318       24.082     1317.373     1318.999      579.923        0.606        0.161       94.356       17.487        0.034      341.160       15.679      852.096
05/05/2013  17:59:00     -118.344       47.305      -18.158       48.738       19.803       19.017     2375.404      392.155      361.641        0.985        0.156      127.449       17.148        0.018      341.156       15.672      852.111
05/05/2013  18:00:00       -5.918       90.456        0.794       38.911       33.244       27.156     1514.057     1105.153      737.458        0.579        0.168       90.650       22.116        0.060      341.244       15.823      852.129
05/05/2013  18:01:00      -40.906      180.274      -14.798       65.229       91.376       39.382     4254.875     8349.539     1550.920        2.427        0.708      184.857       45.811        0.061      341.161       15.679      852.146
05/05/2013  18:02:00      -38.067      210.878      -15.749       39.890       84.723       37.343     1591.214     7178.039     1394.490        2.816        0.508      214.287       42.014        0.038      341.041       15.474      852.147
05/05/2013  18:03:00      -55.272      244.034      -18.674       53.598       84.123       34.673     2872.726     7076.600     1202.220        3.705        0.558      250.215       36.732        0.022      341.077       15.536      852.155
05/05/2013  18:04:00      -76.600      145.899       -7.293       46.850       53.973       35.849     2194.878     2913.082     1285.147        1.680        0.320      164.785       32.257        0.038      341.056       15.504      852.184
05/05/2013  18:05:00       26.463       51.133       -2.208       25.584       51.639       27.365      654.555     2666.542      748.840        0.369        0.203       57.575       28.044        0.237      341.093       15.567      852.211
05/05/2013  18:06:00       45.525       61.347       -6.776       19.357       30.339       20.033      374.701      920.442      401.335        0.379        0.085       76.394       18.459        0.058      341.052       15.496      852.244
05/05/2013  18:07:00       18.865       33.073       18.209       29.372       34.390       26.561      862.698     1182.662      705.479        0.227        0.138       38.075       20.794        0.298      341.082       15.549      852.267
05/05/2013  18:08:00       21.644      115.695       -5.674       30.600       55.166       32.127      936.344     3043.256     1032.162        0.945        0.251      117.702       30.793        0.068      341.027       15.455      852.293
05/05/2013  18:09:00        2.213       88.899      -19.513       19.553       61.991       17.051      382.320     3842.884      290.729        0.640        0.226       88.926       14.067        0.025      341.027       15.453      852.313
05/05/2013  18:10:00      -64.075       76.582      -12.032      106.061       67.925       34.358    11248.833     4613.758     1180.469        1.358        0.852       99.852       41.750        0.175      341.029       15.456      852.317
05/05/2013  18:11:00      -17.427      231.912       -9.111       84.506      101.901       53.311     7141.283    10383.839     2842.021        3.727        1.018      232.565       56.004        0.058      340.941       15.305      852.318
05/05/2013  18:12:00      -40.767      202.601      -15.318       68.838       76.423       34.266     4738.647     5840.549     1174.139        2.735        0.588      206.662       36.447        0.031      340.935       15.297      852.315
05/05/2013  18:13:00      -38.690      198.635      -20.790       54.403       71.777       29.774     2959.702     5151.868      886.519        2.519        0.450      202.368       22.522        0.012      340.936       15.298      852.307
05/05/2013  18:14:00      -53.960      118.006       -5.983       45.443       64.528       28.605     2065.067     4163.879      818.259        1.196        0.352      129.757       26.566        0.042      340.995       15.399      852.306
05/05/2013  18:15:00     -148.414       30.138      -27.354       54.598       48.719       23.485     2980.941     2373.570      551.535        1.479        0.295      151.443       26.083        0.030      340.980       15.375      852.306
05/05/2013  18:16:00      -62.545       -1.215      -10.046       44.232       27.501       18.220     1956.475      756.292      331.952        0.353        0.152       62.557       12.286        0.039      341.000       15.407      852.303
05/05/2013  18:17:00      -40.570      -10.513       11.987       33.222       35.526       18.878     1103.695     1262.127      356.381        0.231        0.136       41.910       19.901        0.225      341.064       15.519      852.300
05/05/2013  18:18:00      -19.128      -13.010       -0.528       27.137       29.225       18.220      736.434      854.104      331.961        0.123        0.096       23.133       12.526        0.293      341.073       15.530      852.302
05/05/2013  18:19:00      -66.345      -53.034       -1.351       81.548       43.275       25.746     6650.047     1872.727      662.838        0.820        0.459       84.937       15.952        0.035      341.082       15.546      852.301
05/05/2013  18:20:00     -103.071      -61.387       -5.535       61.465       49.186       31.258     3777.984     2419.231      977.080        1.080        0.359      119.967       18.227        0.023      341.058       15.506      852.308
05/05/2013  18:21:00     -152.327      -31.406       -5.516       36.459       39.439       27.226     1329.282     1555.447      741.273        1.392        0.181      155.531       23.961        0.024      341.049       15.495      852.306
05/05/2013  18:22:00     -161.587     -129.435       -7.009       63.352       52.396       35.825     4013.471     2745.325     1283.436        2.548        0.402      207.036       26.951        0.017      341.039       15.473      852.293
05/05/2013  18:23:00     -154.122      -61.718       -5.177      101.468       60.851       38.447    10295.709     3702.827     1478.148        2.153        0.774      166.020       46.094        0.077      341.058       15.504      852.285
05/05/2013  18:24:00      -96.682      -32.272       -5.572       63.215       50.733       24.898     3996.179     2573.789      619.925        0.880        0.359      101.926       24.813        0.059      341.080       15.544      852.290
05/05/2013  18:25:00     -121.272      -82.803        4.213       78.130       49.595       35.927     6104.298     2459.688     1290.718        1.572        0.493      146.844       39.762        0.073      341.074       15.535      852.280
05/05/2013  18:26:00     -107.716     -157.569       -2.616       64.099       84.316       37.365     4108.684     7109.218     1396.166        2.452        0.631      190.869       25.576        0.018      340.989       15.387      852.254
05/05/2013  18:27:00      -62.370      -47.768       -1.882       64.583       41.244       26.998     4170.921     1701.044      728.918        0.639        0.330       78.561       23.303        0.088      341.054       15.502      852.228
05/05/2013  18:28:00     -121.819      -64.189        3.212      103.521       58.687       32.583    10716.697     3444.159     1061.674        1.709        0.761      137.695       34.383        0.062      341.073       15.531      852.206
05/05/2013  18:29:00     -200.049     -138.620       -5.108       91.962       72.141       48.748     8457.034     5204.393     2376.357        3.765        0.802      243.382       47.304        0.038      340.877       15.198      852.179
05/05/2013  18:30:00     -215.596     -116.681       -7.719       86.415       69.615       52.935     7467.627     4846.297     2802.066        3.763        0.756      245.145       56.452        0.053      340.802       15.072      852.157
05/05/2013  18:31:00     -110.745      -42.125       -8.597       74.526       41.237       33.337     5554.189     1700.483     1111.375        1.124        0.418      118.486       29.034        0.060      340.880       15.206      852.166
05/05/2013  18:32:00      -78.758      -93.681        7.180       66.354       44.961       36.561     4402.877     2021.524     1336.690        1.139        0.388      122.388       35.337        0.083      340.895       15.231      852.169
05/05/2013  18:33:00      -89.522      -69.979        1.527       69.768       49.301       40.593     4867.601     2430.612     1647.811        1.093        0.447      113.628       43.268        0.145      340.918       15.269      852.179
05/05/2013  18:34:00      -89.983      -38.508       -1.540       60.013       42.596       28.716     3601.556     1814.429      824.632        0.791        0.312       97.876       28.782        0.086      340.920       15.273      852.194
05/05/2013  18:35:00     -136.904        0.262       -2.208       70.070       44.300       28.376     4909.869     1962.527      805.186        1.321        0.384      136.904       29.843        0.048      340.860       15.171      852.213
05/05/2013  18:36:00     -175.494      -45.513      -10.833       64.319       60.781       29.555     4136.970     3694.388      873.516        2.084        0.435      181.300       26.657        0.022      340.848       15.148      852.214
05/05/2013  18:37:00     -117.353      -81.257      -23.614       60.770       41.042       33.071     3692.993     1684.456     1093.711        1.370        0.324      142.739       25.187        0.031      340.878       15.199      852.219
05/05/2013  18:38:00     -167.216      -61.729      -24.042       90.677       67.594       33.192     8222.276     4568.897     1101.702        2.312        0.695      178.246       36.794        0.043      340.876       15.196      852.225
05/05/2013  18:39:00     -133.652      -50.731        0.345       57.405       56.939       27.771     3295.318     3242.020      771.220        1.387        0.365      142.957       16.993        0.014      340.904       15.246      852.238
05/05/2013  18:40:00      -31.513       -7.269       22.436      109.819       74.597       56.062    12060.249     5564.733     3142.903        1.116        1.038       32.341       52.693        2.655      340.885       15.214      852.240
05/05/2013  18:41:00     -140.587       16.623       -2.356      106.014       64.722       41.405    11238.920     4188.976     1714.390        1.859        0.857      141.566       40.042        0.080      340.823       15.109      852.265
05/05/2013  18:42:00     -152.948       19.218      -16.150      125.579       69.340       43.945    15769.970     4808.009     1931.135        2.326        1.125      154.151       58.830        0.146      340.848       15.151      852.293
05/05/2013  18:43:00     -293.893      -20.749      -33.375      100.731       81.838       53.832    10146.700     6697.471     2897.892        5.383        0.987      294.625       48.065        0.027      340.723       14.937      852.329
05/05/2013  18:44:00     -180.349       86.929      -30.665       46.828       85.912       38.665     2192.872     7380.862     1494.965        2.604        0.553      200.205       27.426        0.019      340.740       14.968      852.361
05/05/2013  18:45:00      -91.352      -15.398      -19.152       59.940       52.660       20.649     3592.786     2773.100      426.379        0.787        0.340       92.641       17.669        0.036      340.781       15.040      852.370
05/05/2013  18:46:00     -209.466       30.735      -29.191       91.270       58.463       30.725     8330.158     3417.958      944.011        2.918        0.635      211.708       40.482        0.037      340.760       14.998      852.383
05/05/2013  18:47:00     -158.761      -73.235        0.732       76.656       69.022       38.399     5876.134     4764.097     1474.448        2.134        0.606      174.838       37.307        0.046      340.730       14.951      852.371
05/05/2013  18:48:00      -85.335      -16.944        7.613       87.695       37.468       39.813     7690.366     1403.885     1585.055        0.915        0.534       87.001       54.954        0.399      340.772       15.022      852.356
05/05/2013  18:49:00     -233.985      -53.297      -13.604       92.858       68.729       35.839     8622.597     4723.640     1284.425        3.620        0.732      239.978       32.489        0.018      340.756       14.993      852.344
05/05/2013  18:50:00     -252.670      -20.136      -18.944       63.048       47.473       37.359     3975.016     2253.690     1395.705        3.611        0.381      253.471       32.461        0.016      340.710       14.915      852.353
05/05/2013  18:51:00     -228.682       38.407      -19.447       80.618       72.883       48.058     6499.246     5311.943     2309.567        3.413        0.706      231.885       42.251        0.033      340.695       14.889      852.359
05/05/2013  18:52:00     -169.934      -77.101       -1.740       64.169       81.238       34.044     4117.673     6599.643     1158.993        2.335        0.594      186.607       30.040        0.026      340.711       14.918      852.368
05/05/2013  18:53:00     -209.222      -94.875      -10.372       73.463       60.367       47.654     5396.879     3644.133     2270.877        3.210        0.566      229.729       45.097        0.039      340.704       14.904      852.392
05/05/2013  18:54:00     -179.896      -61.414        1.576       70.825       64.570       34.586     5016.238     4169.258     1196.194        2.326        0.519      190.090       31.064        0.027      340.706       14.907      852.414
05/05/2013  18:55:00     -193.275      -55.391       -2.699       68.058       51.145       34.949     4631.878     2615.848     1221.401        2.445        0.423      201.055       34.820        0.030      340.714       14.924      852.447
05/05/2013  18:56:00     -203.948      -81.614       -4.654       72.492       49.126       34.500     5255.046     2413.358     1190.230        2.857        0.443      219.672       31.795        0.021      340.708       14.910      852.504
05/05/2013  18:57:00     -159.194      -35.782       -9.877       55.486       51.009       30.640     3078.689     2601.922      938.800        1.667        0.331      163.166       30.151        0.034      340.702       14.905      852.541
05/05/2013  18:58:00     -102.728      -64.761       -9.349       34.871       40.885       19.784     1215.975     1671.550      391.410        0.906        0.164      121.437       10.560        0.008      340.710       14.918      852.581
05/05/2013  18:59:00      -57.393      -90.992       -5.099       32.604       37.338       19.105     1063.035     1394.143      364.982        0.721        0.141      107.580       13.094        0.015      340.804       15.078      852.642
05/05/2013  19:00:00      -23.429      -59.274        9.883       50.134       36.193       28.346     2513.431     1309.948      803.496        0.439        0.231       63.736       28.282        0.197      340.809       15.085      852.683
05/05/2013  19:01:00      -65.452      -73.504       -3.580       33.519       26.442       19.644     1123.514      699.156      385.876        0.595        0.110       98.421       16.666        0.029      340.774       15.026      852.732
05/05/2013  19:02:00      -58.422      -74.438       -0.954       26.244       38.831       16.593      688.728     1507.850      275.326        0.571        0.124       94.626       14.559        0.024      340.810       15.088      852.787
05/05/2013  19:03:00      -74.047      -92.836       -3.214       39.921       50.570       20.901     1593.715     2557.359      436.865        0.935        0.229      118.749       16.935        0.020      340.846       15.148      852.812
05/05/2013  19:04:00      -83.826      -82.187       -1.439       28.572       53.616       21.432      816.350     2874.639      459.332        0.897        0.208      117.395        8.821        0.006      340.829       15.120      852.818
05/05/2013  19:05:00      -32.868      -13.852        3.674       30.261       21.472       18.884      915.727      461.045      356.598        0.151        0.087       35.668       18.837        0.279      340.800       15.072      852.831
05/05/2013  19:06:00      -29.133       44.986        4.172       21.793       17.075       12.838      474.915      291.559      164.827        0.191        0.047       53.595       11.585        0.047      340.760       15.004      852.815
05/05/2013  19:07:00      -33.092       21.333        3.904       36.956       27.830       22.920     1365.732      774.490      525.348        0.212        0.133       39.372        9.137        0.054      340.776       15.028      852.827
05/05/2013  19:08:00      -28.673       71.669        0.891       27.483       45.220       15.881      755.306     2044.806      252.196        0.451        0.153       77.192       16.060        0.043      340.791       15.055      852.834
05/05/2013  19:09:00     -142.656      118.453      -26.647       71.124       51.923       35.290     5058.567     2695.958     1245.412        2.204        0.450      185.423       21.375        0.013      340.690       14.883      852.850
05/05/2013  19:10:00     -150.638       74.345      -16.619       44.483       54.782       35.069     1978.721     3001.114     1229.869        1.735        0.310      167.985       22.148        0.017      340.612       14.752      852.850
05/05/2013  19:11:00     -131.542       36.019      -14.418       60.213       33.194       24.309     3625.601     1101.821      590.933        1.206        0.266      136.384       27.663        0.041      340.634       14.788      852.852
05/05/2013  19:12:00      -83.436       67.926      -20.788       36.911       37.461       20.264     1362.411     1403.334      410.617        0.759        0.159      107.590       14.492        0.018      340.623       14.770      852.862
05/05/2013  19:13:00      -76.175       29.305       -8.211       41.576       23.071       28.386     1728.527      532.282      805.792        0.490        0.153       81.618       29.528        0.131      340.662       14.836      852.868
05/05/2013  19:14:00      -91.160       30.522      -10.954       39.228       31.479       23.497     1538.853      990.930      552.105        0.622        0.154       96.134       17.820        0.034      340.695       14.894      852.882
05/05/2013  19:15:00      -87.646       17.563      -13.459       24.542       24.337       17.868      602.313      592.307      319.271        0.484        0.076       89.388        8.845        0.010      340.715       14.927      852.899
05/05/2013  19:16:00      -50.284       -1.477       -4.383       34.366       23.129       15.811     1181.052      534.954      250.000        0.226        0.098       50.306       20.054        0.159      340.769       15.017      852.916
05/05/2013  19:17:00       26.925       -7.599       15.213       16.321       29.282       13.642      266.360      857.420      186.113        0.116        0.065       27.977        9.374        0.112      340.822       15.107      852.927
05/05/2013  19:18:00       23.600       39.790       38.920       27.884       24.284       21.813      777.539      589.727      475.798        0.275        0.092       46.263       19.940        0.186      340.806       15.079      852.927
05/05/2013  19:19:00      -18.959      -23.486       13.911       21.372       24.850       28.097      456.754      617.500      789.454        0.148        0.093       30.183       18.607        0.380      340.860       15.171      852.950
05/05/2013  19:20:00       26.361      -26.811       11.586       34.677       25.618       25.081     1202.512      656.277      629.062        0.202        0.124       37.600       18.874        0.252      340.903       15.244      852.978
05/05/2013  19:21:00      -47.535       -0.123       18.070       60.787       53.840       39.781     3695.083     2898.756     1582.518        0.538        0.409       47.535       36.472        0.589      340.858       15.169      852.973
05/05/2013  19:22:00      -86.527      -52.674       -9.617       80.975       33.006       22.061     6556.876     1089.406      486.700        0.924        0.407      101.299       13.937        0.019      340.830       15.121      852.991
05/05/2013  19:23:00     -207.559      -39.811      -16.758       63.195       65.126       30.131     3993.637     4241.428      907.907        2.704        0.457      211.342       29.668        0.020      340.766       15.012      852.996
05/05/2013  19:24:00     -222.384      -63.946      -11.201       95.434       73.768       39.434     9107.659     5441.662     1555.069        3.488        0.805      231.395       48.791        0.044      340.761       15.001      852.982
05/05/2013  19:25:00     -212.259      -71.591       -7.723       89.679       71.758       40.429     8042.336     5149.259     1634.467        3.253        0.741      224.007       41.389        0.034      340.770       15.017      852.969
05/05/2013  19:26:00     -213.465      -61.617        7.978      104.173       68.141       50.822    10852.022     4643.209     2582.886        3.375        0.904      222.180       58.842        0.070      340.750       14.984      852.970
05/05/2013  19:27:00     -166.860      -70.695      -14.218       70.283       40.984       31.300     4939.680     1679.699      979.698        2.032        0.380      181.218       35.177        0.038      340.790       15.052      852.948
05/05/2013  19:28:00     -100.471       -2.723       -8.400       36.907       31.520       17.725     1362.116      993.531      314.180        0.642        0.133      100.507       18.413        0.034      340.782       15.039      852.907
05/05/2013  19:29:00     -134.547      -59.422        1.488       52.275       65.093       37.387     2732.678     4237.109     1397.799        1.500        0.418      147.085       35.958        0.060      340.766       15.012      852.908
05/05/2013  19:30:00     -138.708     -102.605        3.535      100.123       68.563       46.080    10024.561     4700.871     2123.324        2.331        0.842      172.534       45.018        0.068      340.712       14.922      852.913
05/05/2013  19:31:00      -86.797     -128.402       -4.296       70.901       48.451       27.096     5026.953     2347.497      734.182        1.607        0.405      154.986       28.464        0.034      340.721       14.937      852.887
05/05/2013  19:32:00      -91.898      -96.037       10.311       67.804       60.426       40.869     4597.360     3651.295     1670.283        1.385        0.496      132.922       43.605        0.108      340.703       14.907      852.899
05/05/2013  19:33:00      -53.270      -34.531       18.431       65.989       35.873       32.908     4354.545     1286.838     1082.932        0.555        0.336       63.482       36.970        0.339      340.697       14.899      852.903
05/05/2013  19:34:00     -124.487      -65.466       12.805      109.362       74.100       45.664    11960.060     5490.831     2085.204        1.974        0.977      140.651       52.717        0.140      340.753       14.990      852.906
05/05/2013  19:35:00     -149.739      -81.436        2.146      123.761       86.696       64.492    15316.746     7516.142     4159.210        2.802        1.350      170.451       62.113        0.133      340.786       15.044      852.876
05/05/2013  19:36:00     -227.090      -55.539        2.428      126.223       76.319       54.794    15932.356     5824.546     3002.349        3.971        1.238      233.783       58.143        0.062      340.824       15.109      852.858
05/05/2013  19:37:00     -287.744     -116.817       -0.388      155.676      130.065       62.053    24235.025    16917.019     3850.551        7.072        2.250      310.553       57.142        0.034      340.792       15.055      852.845
05/05/2013  19:38:00     -236.872      -30.269        5.897      140.570      113.844       57.478    19759.979    12960.528     3303.768        4.654        1.801      238.799       64.442        0.073      340.733       14.955      852.820
05/05/2013  19:39:00     -319.132     -193.039        9.185      178.280      114.276       76.022    31783.682    13058.949     5779.373        9.490        2.531      372.973       91.337        0.060      340.684       14.872      852.809
05/05/2013  19:40:00     -254.172     -176.658       -3.568      157.884      113.620       76.645    24927.478    12909.603     5874.399        6.976        2.186      309.534       88.169        0.081      340.639       14.796      852.782
05/05/2013  19:41:00     -262.216      -67.129      -11.854      131.058       95.106       55.792    17176.291     9045.069     3112.706        5.136        1.467      270.672       54.236        0.040      340.622       14.766      852.791
05/05/2013  19:42:00     -305.978     -141.754       -4.666      176.639      183.896       69.967    31201.285    33817.801     4895.434        9.181        3.496      337.219       79.443        0.055      340.597       14.722      852.816
05/05/2013  19:43:00     -271.776      -78.053        8.048      173.781      126.568       79.649    30199.665    16019.444     6344.002        6.628        2.628      282.763       87.200        0.095      340.582       14.698      852.826
05/05/2013  19:44:00     -319.244      -85.391      -13.831      164.568      121.443       63.095    27082.601    14748.445     3981.040        7.760        2.291      330.467       77.616        0.055      340.534       14.618      852.866
05/05/2013  19:45:00     -258.811      -56.725      -12.010      166.145      120.368       66.254    27604.277    14488.549     4389.627        5.841        2.324      264.954       72.815        0.076      340.530       14.610      852.882
05/05/2013  19:46:00     -453.276      -83.213      -26.025      135.093      125.765       66.642    18250.254    15816.918     4441.208       12.578        1.925      460.851       64.276        0.019      340.506       14.569      852.907
05/05/2013  19:47:00     -294.514      -59.157      -10.837      149.671      132.411       67.218    22401.488    17532.697     4518.297        6.740        2.223      300.397       78.942        0.069      340.492       14.546      852.907
05/05/2013  19:48:00     -473.084     -122.575      -21.236      211.834      177.272       84.781    44873.658    31425.361     7187.862       16.137        4.174      488.706      106.896        0.048      340.477       14.521      852.928
05/05/2013  19:49:00     -352.136     -112.365      -22.873      150.383      120.970       63.427    22615.122    14633.737     4023.045        8.920        2.064      369.629       66.826        0.033      340.439       14.457      852.949
05/05/2013  19:50:00     -337.063      -30.659       -1.491      153.668      164.692       66.265    23613.818    27123.403     4391.074        8.483        2.756      338.455       64.872        0.037      340.382       14.360      852.962
05/05/2013  19:51:00     -378.632      -48.101      -27.053      155.868      109.944       56.964    24294.718    12087.640     3244.918        9.301        1.981      381.675       62.798        0.027      340.351       14.309      852.970
05/05/2013  19:52:00     -323.178       -6.904      -19.556      144.576      107.983       69.162    20902.079    11660.355     4783.377        7.110        1.867      323.251       65.851        0.041      340.315       14.246      852.977
05/05/2013  19:53:00     -435.931      -83.829       -7.416      202.198      126.611       88.750    40883.862    16030.241     7876.640       13.094        3.240      443.918      114.723        0.067      340.264       14.161      852.989
05/05/2013  19:54:00     -386.220     -124.231       -7.571      172.725      159.639       72.696    29833.998    25484.680     5284.644       11.262        3.030      405.708       68.837        0.029      340.233       14.107      853.008
05/05/2013  19:55:00     -410.049     -140.797      -14.333      185.145      175.858       81.725    34278.802    30925.941     6679.036       13.001        3.594      433.548       89.437        0.043      340.190       14.036      853.011
05/05/2013  19:56:00     -434.217     -108.362      -14.065      213.508      155.341       85.577    45585.817    24130.721     7323.469       13.875        3.852      447.534       86.625        0.037      340.168       13.998      853.043
05/05/2013  19:57:00     -389.160     -128.639      -21.020      164.021      112.094       68.622    26903.013    12565.081     4708.927       10.630        2.209      409.870       74.380        0.033      340.146       13.962      853.111
05/05/2013  19:58:00     -319.629      -50.145       -2.185      122.651      115.922       49.485    15043.168    13437.827     2448.799        6.780        1.546      323.539       46.711        0.021      340.123       13.923      853.131
05/05/2013  19:59:00     -449.048     -135.436      -23.274      214.456      131.390       77.142    45991.386    17263.269     5950.854       14.486        3.460      469.028       76.088        0.026      340.090       13.866      853.134
05/05/2013  20:00:00     -413.208     -133.680      -10.106      173.661      129.767       65.380    30158.135    16839.423     4274.500       11.998        2.564      434.294       60.429        0.019      340.053       13.804      853.149
05/05/2013  20:01:00     -329.179     -128.373      -15.234      216.953      107.160       67.703    47068.494    11483.208     4583.654        9.409        3.157      353.325       73.097        0.043      340.039       13.780      853.154
05/05/2013  20:02:00     -491.576      -96.182      -17.349      199.583      145.092       83.837    39833.295    21051.804     7028.717       15.954        3.396      500.897       85.544        0.029      339.984       13.689      853.167
05/05/2013  20:03:00     -470.282     -116.935      -12.016      213.500      145.841       87.626    45582.414    21269.578     7678.231       15.474        3.727      484.602       98.208        0.041      339.945       13.624      853.195
05/05/2013  20:04:00     -509.511     -106.462      -14.754      197.017      199.169       94.952    38815.564    39668.191     9015.892       17.931        4.375      520.515       97.428        0.035      339.912       13.565      853.203
05/05/2013  20:05:00     -281.037      -84.377       -9.462      157.530      163.663       73.718    24815.717    26785.598     5434.383        7.160        2.852      293.430       74.982        0.065      339.923       13.586      853.237
05/05/2013  20:06:00     -383.033      -47.024      -19.413      148.039      138.756       68.488    21915.404    19253.354     4690.586        9.757        2.293      385.909       67.276        0.030      339.918       13.577      853.245
05/05/2013  20:07:00     -222.907      -31.783       -2.720      168.834      112.410       81.142    28504.866    12635.904     6584.016        4.921        2.386      225.162       78.042        0.120      339.930       13.599      853.234
05/05/2013  20:08:00     -199.847      -48.524        5.896      259.576      145.551       97.363    67379.762    21185.033     9479.634        7.017        4.902      205.653      126.163        0.376      339.928       13.596      853.205
05/05/2013  20:09:00     -109.703      -26.086        2.803      139.880       90.720       68.075    19566.383     8230.094     4634.204        2.257        1.622      112.761       63.123        0.313      339.951       13.636      853.207
05/05/2013  20:10:00     -289.464     -149.975       -1.035      172.809      163.119       80.300    29862.853    26607.714     6448.051        8.459        3.146      326.009       77.390        0.056      339.886       13.522      853.243
05/05/2013  20:11:00     -459.745      -62.184      -15.725      263.288      146.690       88.054    69320.559    21518.091     7753.524       15.702        4.930      463.931      102.876        0.049      339.854       13.469      853.254
05/05/2013  20:12:00     -418.180     -104.665      -19.925      190.389      119.916       69.728    36248.114    14379.861     4861.943       12.085        2.774      431.079       64.578        0.022      339.854       13.469      853.277
05/05/2013  20:13:00     -215.810     -145.938      -14.396      168.508      113.980       75.791    28395.073    12991.500     5744.307        5.760        2.357      260.523       69.522        0.071      339.878       13.509      853.302
05/05/2013  20:14:00     -253.110      -22.307        2.257      191.674      101.733       64.611    36739.098    10349.540     4174.518        5.791        2.563      254.091       75.563        0.088      339.889       13.529      853.320
05/05/2013  20:15:00     -259.150      -87.564       -3.911      160.252      119.353       72.299    25680.550    14245.118     5227.184        5.999        2.258      273.544       74.899        0.075      339.834       13.435      853.339
05/05/2013  20:16:00     -269.848      -33.920       -0.989      174.045       83.495       65.453    30291.798     6971.372     4284.127        5.775        2.077      271.971       75.462        0.077      339.817       13.407      853.360
05/05/2013  20:17:00     -374.585     -116.950      -11.373      125.578      121.176       57.850    15769.817    14683.677     3346.634        9.395        1.690      392.417       55.062        0.020      339.788       13.359      853.365
05/05/2013  20:18:00     -298.503      -71.610       -8.646      193.499      124.086       68.445    37441.813    15397.276     4684.687        7.591        2.876      306.972       65.830        0.046      339.772       13.333      853.380
05/05/2013  20:19:00     -470.968      -24.614      -24.416      174.080      115.815       72.886    30303.818    13413.225     5312.320       13.601        2.451      471.611       69.233        0.022      339.753       13.300      853.400
05/05/2013  20:20:00     -548.254      -34.555      -40.380      198.175      106.989       82.372    39273.147    11446.582     6785.088       18.045        2.875      549.342      101.308        0.034      339.734       13.267      853.411
05/05/2013  20:21:00     -435.859     -109.827      -16.986      152.864      113.017       72.898    23367.399    12772.910     5314.120       12.188        2.073      449.483       75.697        0.028      339.745       13.288      853.450
05/05/2013  20:22:00     -240.453      -34.801       22.930      187.574      129.701       83.344    35184.016    16822.234     6946.251        5.924        2.948      242.958       91.430        0.142      339.752       13.298      853.481
05/05/2013  20:23:00     -324.860       18.167      -28.387      159.521       77.091       61.674    25446.850     5943.036     3803.680        7.093        1.760      325.368       72.132        0.049      339.717       13.240      853.498
05/05/2013  20:24:00     -278.206     -101.092       -8.721      167.315      112.844       71.314    27994.285    12733.815     5085.686        6.675        2.291      296.004       85.321        0.083      339.730       13.260      853.523
05/05/2013  20:25:00     -222.622      -64.128       -3.664      139.549      110.207       53.407    19473.850    12145.595     2852.293        4.407        1.724      231.674       51.416        0.049      339.724       13.253      853.538
05/05/2013  20:26:00     -229.926        0.150      -11.662      123.960      107.441       53.334    15366.156    11543.480     2844.521        4.137        1.488      229.926       51.775        0.051      339.724       13.253      853.563
05/05/2013  20:27:00     -291.695      -84.908      -21.933      112.345      103.820       61.447    12621.457    10778.562     3775.683        5.997        1.359      303.802       48.937        0.026      339.748       13.292      853.578
05/05/2013  20:28:00     -275.711      -70.950       -6.988      117.964      109.076       55.492    13915.558    11897.577     3079.377        5.499        1.445      284.694       57.580        0.041      339.741       13.279      853.590
05/05/2013  20:29:00     -160.782       37.036       -8.564       97.290       75.619       54.240     9465.435     5718.162     2942.011        2.271        0.906      164.992       49.636        0.091      339.747       13.293      853.594
05/05/2013  20:30:00     -198.008      -82.435       -3.188      190.701       93.369       65.492    36366.856     8717.813     4289.205        4.769        2.469      214.482       93.599        0.190      339.773       13.334      853.590
05/05/2013  20:31:00     -233.591       12.287       -1.905      104.435       92.926       51.046    10906.613     8635.197     2605.698        3.843        1.107      233.914       44.769        0.037      339.791       13.364      853.595
05/05/2013  20:32:00     -468.927     -121.328      -11.268      152.479       93.175       67.356    23249.873     8681.636     4536.889       13.560        1.823      484.369       77.436        0.026      339.799       13.377      853.590
05/05/2013  20:33:00     -207.297       11.767      -19.426       95.633       93.512       51.587     9145.697     8744.464     2661.263        3.202        1.028      207.631       51.427        0.061      339.814       13.403      853.598
05/05/2013  20:34:00     -375.865       -0.484      -19.164      132.094       86.503       61.391    17448.841     7482.698     3768.860        8.517        1.435      375.865       72.237        0.037      339.816       13.405      853.628
05/05/2013  20:35:00     -215.094      -21.816      -23.809       90.851       89.102       45.781     8253.925     7939.174     2095.896        3.280        0.914      216.198       34.141        0.025      339.844       13.451      853.634
05/05/2013  20:36:00     -123.931       23.185      -23.215       60.842       48.742       29.070     3701.738     2375.786      845.052        1.168        0.346      126.081       19.800        0.025      339.874       13.505      853.663
05/05/2013  20:37:00     -101.752       99.450      -17.354       50.343       49.973       38.821     2534.458     2497.314     1507.079        1.354        0.327      142.281       31.757        0.050      339.885       13.522      853.705
05/05/2013  20:38:00     -133.629      109.565      -21.730       73.260       76.170       40.373     5367.098     5801.829     1629.969        2.156        0.640      172.804       41.613        0.058      339.937       13.614      853.721
05/05/2013  20:39:00     -125.062      137.625      -17.157       71.942       88.711       42.452     5175.623     7869.584     1802.190        2.486        0.742      185.960       36.521        0.039      339.909       13.562      853.739
05/05/2013  20:40:00      -47.713      152.392      -18.181       41.635       53.628       27.866     1733.498     2876.008      776.527        1.561        0.269      159.686       20.036        0.016      339.937       13.611      853.750
05/05/2013  20:41:00      -43.608      131.173       -9.210       80.557       96.021       44.677     6489.466     9220.028     1996.074        1.845        0.885      138.232       43.985        0.101      340.003       13.724      853.738
05/05/2013  20:42:00      -80.423      201.293      -17.057       53.754       77.760       46.210     2889.535     6046.577     2135.347        2.917        0.554      216.764       38.424        0.031      340.089       13.866      853.738
05/05/2013  20:43:00      -64.032      144.905      -15.019       44.970       58.983       34.704     2022.272     3479.016     1204.348        1.601        0.335      158.422       25.951        0.027      340.142       13.957      853.733
05/05/2013  20:44:00      -97.829       79.022      -19.388       63.205       75.866       29.470     3994.917     5755.682      868.472        1.340        0.531      125.758       17.340        0.019      340.156       13.980      853.746
05/05/2013  20:45:00     -124.656      174.777      -23.362       76.504       84.068       50.362     5852.913     7067.421     2536.283        3.104        0.773      214.677       50.099        0.054      340.125       13.929      853.766
05/05/2013  20:46:00     -143.903      228.916      -29.712       81.064      112.204       55.713     6571.296    12589.661     3103.902        4.813        1.113      270.390       58.131        0.046      340.016       13.744      853.779
05/05/2013  20:47:00     -179.033      327.150      -49.927       63.222       92.792       42.938     3996.969     8610.400     1843.691        7.801        0.723      372.934       45.916        0.015      339.950       13.631      853.780
05/05/2013  20:48:00     -107.909      162.046      -19.802       65.248       88.830       44.268     4257.349     7890.853     1959.655        2.620        0.705      194.688       42.097        0.047      339.935       13.608      853.799
05/05/2013  20:49:00     -146.434      250.840      -34.284      101.972      106.849       55.796    10398.220    11416.792     3113.242        5.523        1.246      290.454       57.584        0.039      339.884       13.520      853.804
05/05/2013  20:50:00     -164.273      183.268      -24.404       73.145      116.492       42.616     5350.230    13570.284     1816.158        4.095        1.037      246.116       43.362        0.031      339.818       13.409      853.822
05/05/2013  20:51:00     -156.293      292.594      -46.157       96.435      127.162       50.527     9299.722    16170.194     2552.954        7.009        1.401      331.721       49.695        0.022      339.782       13.349      853.828
05/05/2013  20:52:00     -200.561      343.553      -56.436       83.035       85.508       54.014     6894.811     7311.605     2917.565        8.928        0.856      397.811       52.040        0.017      339.756       13.304      853.840
05/05/2013  20:53:00     -128.683      195.764      -40.884       65.687       74.662       41.455     4314.805     5574.457     1718.519        3.408        0.580      234.271       37.845        0.026      339.759       13.312      853.843
05/05/2013  20:54:00      -85.816      243.969      -33.975       79.882      127.295       43.725     6381.126    16203.926     1911.854        4.626        1.225      258.622       44.442        0.030      339.759       13.310      853.839
05/05/2013  20:55:00      -99.807      259.084      -20.396       79.643      112.285       54.274     6342.969    12607.907     2945.703        4.970        1.095      277.644       54.784        0.039      339.790       13.362      853.856
05/05/2013  20:56:00     -164.307      259.256      -25.950       86.236      121.340       77.838     7436.576    14723.363     6058.737        6.155        1.411      306.937       70.901        0.053      339.785       13.355      853.889
05/05/2013  20:57:00     -126.462      292.802      -39.937       66.814      100.954       47.821     4464.094    10191.764     2286.844        6.013        0.847      318.945       48.082        0.023      339.776       13.340      853.921
05/05/2013  20:58:00      -85.846      141.220      -16.288       58.357      118.643       43.548     3405.554    14076.197     1896.437        2.347        0.969      165.265       26.644        0.026      339.827       13.425      853.943
05/05/2013  20:59:00      -97.536      149.244      -19.371       84.836       81.108       42.506     7197.067     6578.436     1806.773        2.387        0.779      178.289       39.107        0.048      339.823       13.420      853.981
05/05/2013  21:00:00      -46.961      237.581      -25.565       61.034      143.633       50.584     3725.140    20630.573     2558.708        4.310        1.346      242.178       53.934        0.050      339.868       13.492      854.004
05/05/2013  21:01:00     -107.060      214.152      -15.094       83.396      124.729       50.012     6954.860    15557.259     2501.228        4.128        1.251      239.422       40.824        0.029      339.877       13.509      854.040
05/05/2013  21:02:00     -168.065      222.479      -43.905       96.079       95.985       46.596     9231.101     9213.027     2171.156        5.014        1.031      278.824       51.611        0.034      339.850       13.463      854.064
05/05/2013  21:03:00      -27.453      366.031      -30.339       60.728      116.998       51.863     3687.871    13688.587     2689.738        7.786        1.003      367.059       53.200        0.021      339.846       13.455      854.085
05/05/2013  21:04:00     -112.726      240.328      -20.406       80.157      110.234       62.415     6425.215    12151.532     3895.625        4.667        1.124      265.452       60.714        0.052      339.881       13.514      854.104
05/05/2013  21:05:00      -62.739      246.515      -14.728       57.509      113.943       48.477     3307.241    12982.956     2350.032        4.178        0.932      254.373       52.282        0.042      339.891       13.531      854.133
05/05/2013  21:06:00      -67.273      253.793      -23.299       54.151       68.094       46.718     2932.300     4636.740     2182.557        3.961        0.488      262.558       42.066        0.026      339.897       13.541      854.157
05/05/2013  21:07:00      -46.257      244.157      -25.727       42.256       65.681       31.455     1785.599     4314.008      989.419        3.475        0.354      248.501       31.584        0.016      339.864       13.488      854.192
05/05/2013  21:08:00      -26.805      159.554      -10.952       44.508       62.646       35.450     1980.942     3924.571     1256.735        1.673        0.358      161.790       33.016        0.042      339.877       13.509      854.209
05/05/2013  21:09:00      -23.160      143.194      -16.021       39.182       74.320       37.839     1535.253     5523.483     1431.820        1.489        0.425      145.055       40.736        0.079      339.918       13.580      854.230
05/05/2013  21:10:00      -84.368      190.186      -19.306       69.238       92.559       47.884     4793.922     8567.144     2292.878        2.966        0.783      208.059       50.582        0.059      339.906       13.556      854.240
05/05/2013  21:11:00      -39.423      173.603      -10.390       53.951       61.699       32.810     2910.686     3806.719     1076.527        1.980        0.390      178.023       30.562        0.029      339.964       13.656      854.244
05/05/2013  21:12:00      -80.312       98.576      -15.907       43.298       85.630       32.966     1874.725     7332.553     1086.789        1.336        0.515      127.150       33.816        0.071      339.976       13.676      854.236
05/05/2013  21:13:00      -41.789      188.685      -14.141       52.788       57.052       29.141     2786.574     3254.972      849.202        2.222        0.345      193.257       28.835        0.022      339.938       13.611      854.226
05/05/2013  21:14:00      -29.787      245.705      -24.774       76.378      101.115       49.208     5833.525    10224.267     2421.419        4.017        0.924      247.504       57.318        0.054      339.914       13.569      854.195
05/05/2013  21:15:00      -66.759      411.885      -44.780       67.500      106.213       45.251     4556.203    11281.140     2047.682        9.700        0.894      417.260       47.520        0.013      339.919       13.578      854.170
05/05/2013  21:16:00      -57.868      411.208      -49.174       51.024       87.682       30.678     2603.462     7688.125      941.146        9.304        0.562      415.260       25.380        0.004      339.919       13.578      854.144
05/05/2013  21:17:00      -84.872      354.700      -41.970       64.937       70.503       42.979     4216.794     4970.693     1847.210        7.290        0.552      364.712       35.258        0.009      339.921       13.582      854.139
05/05/2013  21:18:00      -40.893      288.618      -35.068       70.690       94.503       39.085     4997.013     8930.725     1527.636        5.083        0.773      291.500       41.302        0.020      339.925       13.587      854.149
05/05/2013  21:19:00      -30.402      183.482      -21.057       49.394      116.468       42.289     2439.813    13564.686     1788.335        2.641        0.890      185.984       56.224        0.091      339.957       13.644      854.154
05/05/2013  21:20:00      -42.758      320.488      -31.336       71.899      158.939       58.735     5169.411    25261.762     3449.849        6.970        1.694      323.327       68.892        0.045      339.924       13.588      854.179
05/05/2013  21:21:00      -94.236      329.687      -40.925       76.265      115.401       61.047     5816.301    13317.329     3726.776        7.105        1.143      342.890       58.130        0.029      339.931       13.600      854.183
05/05/2013  21:22:00     -143.307      338.520      -40.619      124.319      168.401       72.862    15455.124    28358.793     5308.883        9.294        2.456      367.603       77.177        0.044      339.931       13.601      854.201
05/05/2013  21:23:00     -138.043      254.278      -40.660       94.400      122.353       60.021     8911.355    14970.197     3602.490        5.642        1.374      289.333       65.537        0.051      339.914       13.571      854.232
05/05/2013  21:24:00     -102.572      258.056      -32.233       87.455      106.315       60.002     7648.329    11302.775     3600.264        5.035        1.128      277.694       63.806        0.053      339.901       13.549      854.209
05/05/2013  21:25:00     -144.626      320.137      -42.369       84.794      104.229       60.944     7190.004    10863.679     3714.130        7.348        1.088      351.290       58.755        0.028      339.863       13.482      854.211
05/05/2013  21:26:00     -142.363      354.168      -37.224      106.126      122.318       61.427    11262.709    14961.740     3773.227        8.854        1.500      381.710       60.766        0.025      339.848       13.458      854.216
05/05/2013  21:27:00     -186.197      341.615      -42.340      103.078      137.887       62.601    10625.070    19012.924     3918.929        9.335        1.678      389.063       60.031        0.024      339.872       13.499      854.236
05/05/2013  21:28:00     -174.584      362.239      -50.438       84.375      134.587       70.652     7119.181    18113.569     4991.776        9.723        1.511      402.116       65.315        0.026      339.904       13.551      854.273
05/05/2013  21:29:00     -144.893      328.900      -36.848      123.827      139.231       73.407    15333.157    19385.230     5388.578        8.531        2.005      359.401       79.281        0.049      339.881       13.513      854.298
05/05/2013  21:30:00     -103.336      425.799      -38.380      114.381      111.000       65.741    13082.904    12321.105     4321.886       11.159        1.486      438.159       56.236        0.016      339.844       13.453      854.333
05/05/2013  21:31:00       -7.126      227.352      -13.307       81.085      140.992       57.543     6574.809    19878.864     3311.202        4.084        1.488      227.464       67.597        0.088      339.711       13.229      854.344
05/05/2013  21:32:00        3.388      354.782      -33.650       97.586      190.157       84.994     9523.098    36159.704     7224.033        8.995        2.645      354.798       99.249        0.078      339.657       13.139      854.354
05/05/2013  21:33:00     -112.035      469.884      -52.980      108.455      150.159       65.012    11762.591    22547.650     4226.544       13.734        1.927      483.056       45.630        0.009      339.738       13.274      854.362
05/05/2013  21:34:00      -89.167      388.437      -44.148       65.941      116.241       51.140     4348.241    13512.007     2615.253        9.063        1.024      398.540       45.951        0.013      339.727       13.256      854.386
05/05/2013  21:35:00     -100.130      221.003      -36.070      103.742      172.995       64.459    10762.449    29927.147     4154.960        5.250        2.242      242.628       62.603        0.067      339.751       13.298      854.411
05/05/2013  21:36:00     -140.317      348.415      -27.949      119.571      174.911       90.323    14297.334    30593.690     8158.316        9.745        2.652      375.609       75.521        0.040      339.685       13.184      854.444
05/05/2013  21:37:00     -111.063      378.504      -41.539       90.001      113.350       70.255     8100.198    12848.314     4935.815        9.160        1.294      394.462       69.602        0.031      339.648       13.120      854.477
05/05/2013  21:38:00      -74.212      340.005      -47.812       86.063      111.286       47.230     7406.862    12384.533     2230.686        7.271        1.101      348.010       43.809        0.016      339.599       13.040      854.491
05/05/2013  21:39:00     -123.812      163.850      -23.920       90.867       93.077       52.766     8256.870     8663.389     2784.234        3.122        0.985      205.369       46.675        0.052      339.607       13.052      854.496
05/05/2013  21:40:00     -118.823      270.970      -30.603      106.971      143.101       60.731    11442.744    20477.823     3688.243        6.204        1.780      295.878       70.103        0.056      339.541       12.943      854.507
05/05/2013  21:41:00     -169.216      415.085      -54.565      110.333      155.358       64.860    12173.405    24136.117     4206.765       12.220        2.026      448.252       58.102        0.017      339.495       12.864      854.516
05/05/2013  21:42:00     -158.317      289.161      -37.854      110.473      215.269       64.651    12204.236    46340.625     4179.801        8.641        3.136      329.664       76.411        0.054      339.510       12.889      854.515
05/05/2013  21:43:00     -146.491      311.217      -36.714       96.025      149.151       66.550     9220.792    22246.128     4428.875        7.777        1.795      343.970       71.815        0.044      339.477       12.833      854.508
05/05/2013  21:44:00     -124.283      293.743      -25.083       86.344      117.915       57.220     7455.299    13903.928     3274.172        6.349        1.232      318.953       49.660        0.024      339.447       12.784      854.493
05/05/2013  21:45:00     -214.322      229.813      -41.556      120.904       86.380       66.727    14617.853     7461.491     4452.466        6.350        1.327      314.242       68.850        0.048      339.444       12.778      854.497
05/05/2013  21:46:00     -128.951      218.186      -35.908       75.784      108.133       57.538     5743.219    11692.675     3310.630        4.313        1.037      253.443       62.595        0.061      339.421       12.741      854.501
05/05/2013  21:47:00     -102.249      299.156      -33.360      103.611      159.822       68.056    10735.327    25542.975     4631.560        7.098        2.045      316.147       69.751        0.049      339.421       12.738      854.492
05/05/2013  21:48:00     -162.183      219.063      -24.072      103.168      112.310       60.718    10643.700    12613.481     3686.718        5.090        1.347      272.565       39.540        0.021      339.430       12.753      854.481
05/05/2013  21:49:00     -187.773      320.436      -54.695      120.921       98.652       61.658    14621.961     9732.216     3801.664        8.454        1.408      371.400       58.102        0.024      339.436       12.763      854.499
05/05/2013  21:50:00     -169.894      340.692      -57.825      119.854      125.662       67.761    14365.065    15790.872     4591.547        9.151        1.737      380.703       58.352        0.023      339.436       12.763      854.505
05/05/2013  21:51:00      -93.474      305.351      -29.237       68.962      105.402       46.157     4755.749    11109.673     2130.444        6.041        0.900      319.338       39.982        0.016      339.406       12.713      854.507
05/05/2013  21:52:00     -172.709      265.807      -47.222      131.569       88.801       62.355    17310.274     7885.655     3888.174        6.589        1.454      316.989       60.563        0.037      339.453       12.793      854.513
05/05/2013  21:53:00     -139.794      162.413      -26.228       80.985      125.087       50.387     6558.568    15646.697     2538.891        3.567        1.237      214.290       56.191        0.069      339.411       12.724      854.510
05/05/2013  21:54:00     -150.468      236.548      -37.293       78.355       94.277       53.732     6139.490     8888.173     2887.116        4.895        0.896      280.349       47.444        0.029      339.395       12.695      854.498
05/05/2013  21:55:00     -109.334      174.855      -11.439       86.249      105.693       70.729     7438.869    11170.945     5002.587        3.313        1.181      206.224       65.612        0.101      339.388       12.684      854.492
05/05/2013  21:56:00     -233.024      262.525      -51.778      108.867      113.992       60.367    11852.127    12994.083     3644.122        7.719        1.425      351.027       60.128        0.029      339.371       12.655      854.498
05/05/2013  21:57:00     -185.387      222.197      -46.145       94.443       91.651       50.463     8919.549     8399.879     2546.515        5.286        0.993      289.379       51.556        0.032      339.353       12.624      854.514
05/05/2013  21:58:00     -209.243      193.730      -29.073      107.061       83.628       57.748    11462.013     6993.724     3334.796        5.197        1.090      285.156       55.777        0.038      339.342       12.605      854.522
05/05/2013  21:59:00     -173.643      245.156      -31.672       70.576       85.956       52.005     4980.991     7388.401     2704.483        5.316        0.754      300.423       50.410        0.028      339.296       12.527      854.544
05/05/2013  22:00:00     -161.869      241.653      -45.222       72.314       87.609       50.412     5229.279     7675.324     2541.378        5.104        0.772      290.857       35.722        0.015      339.302       12.538      854.579
05/05/2013  22:01:00     -149.225      140.203      -24.685       73.522      113.951       52.581     5405.486    12984.749     2764.743        3.184        1.058      204.756       50.513        0.061      339.270       12.487      854.603
05/05/2013  22:02:00     -151.102      217.987      -38.002       70.893       90.243       53.623     5025.755     8143.805     2875.437        4.392        0.802      265.236       53.012        0.040      339.284       12.507      854.629
05/05/2013  22:03:00      -96.862      182.924      -26.049       67.446       94.915       46.961     4549.023     9008.808     2205.314        2.964        0.788      206.986       53.391        0.067      339.278       12.499      854.670
05/05/2013  22:04:00     -109.154      210.872      -38.520       66.143       55.790       42.101     4374.889     3112.568     1772.519        3.356        0.463      237.448       39.925        0.028      339.308       12.547      854.706
05/05/2013  22:05:00      -85.276      132.277       -7.353       77.979      101.066       50.384     6080.684    10214.380     2538.515        2.183        0.942      157.382       43.185        0.075      339.287       12.516      854.733
05/05/2013  22:06:00      -88.111      111.578       -9.463       60.731       53.712       39.024     3688.286     2885.028     1522.892        1.420        0.405      142.173       33.144        0.054      339.266       12.480      854.761
05/05/2013  22:07:00     -170.343      137.339      -43.798       84.782       65.940       39.040     7187.926     4348.034     1524.125        3.143        0.653      218.812       36.776        0.028      339.284       12.511      854.788
05/05/2013  22:08:00     -160.408      163.956      -26.487       68.396       73.945       52.091     4677.947     5467.926     2713.463        3.308        0.643      229.374       48.804        0.045      339.307       12.547      854.827
05/05/2013  22:09:00     -102.413      180.684      -31.885       51.065       68.213       41.308     2607.649     4653.036     1706.353        2.656        0.448      207.690       37.835        0.033      339.323       12.574      854.861
05/05/2013  22:10:00      -93.557       90.701      -21.120       63.153       81.325       31.612     3988.245     6613.798      999.328        1.451        0.580      130.306       32.398        0.062      339.356       12.631      854.868
05/05/2013  22:11:00      -61.582       69.500       -6.579       73.371       99.930       48.825     5383.255     9985.966     2383.925        1.321        0.888       92.858       48.009        0.267      339.337       12.601      854.885
05/05/2013  22:12:00     -119.301       34.454      -10.385       65.391       71.583       45.802     4275.984     5124.127     2097.798        1.351        0.575      124.176       43.840        0.125      339.329       12.584      854.912
05/05/2013  22:13:00      -42.286       46.693       -3.322       36.677       42.520       20.226     1345.216     1807.915      409.101        0.377        0.178       62.995       18.848        0.090      339.321       12.572      854.936
05/05/2013  22:14:00      -79.074       41.290      -12.078       43.144       35.439       20.009     1861.403     1255.948      400.344        0.581        0.176       89.205       19.927        0.050      339.325       12.581      854.958
05/05/2013  22:15:00      -65.609      138.388      -18.121       43.593       64.152       34.855     1900.384     4115.538     1214.841        1.551        0.362      153.153       31.614        0.043      339.329       12.585      854.959
05/05/2013  22:16:00      -74.954       69.632      -16.733       59.470       69.249       35.374     3536.663     4795.426     1251.342        1.016        0.479      102.307       37.188        0.132      339.351       12.624      854.962
05/05/2013  22:17:00      -58.242       70.121      -14.098       36.206       50.709       34.347     1310.871     2571.440     1179.718        0.678        0.253       91.154       18.471        0.041      339.410       12.725      854.960
05/05/2013  22:18:00      -49.328       67.036        1.301       41.389       64.281       30.520     1713.065     4132.038      931.460        0.685        0.339       83.229       20.309        0.060      339.369       12.655      854.952
05/05/2013  22:19:00     -120.183       83.394      -31.319       54.513       59.282       30.801     2971.622     3514.405      948.678        1.491        0.372      146.282       26.269        0.032      339.383       12.679      854.955
05/05/2013  22:20:00      -65.664       79.450      -14.102       43.123       56.714       32.905     1859.635     3216.449     1082.746        0.849        0.308      103.073       25.898        0.063      339.385       12.682      854.957
05/05/2013  22:21:00     -101.242       22.172       -7.528       37.866       40.160       22.819     1433.801     1612.815      520.702        0.718        0.178      103.641       15.820        0.023      339.380       12.673      854.962
05/05/2013  22:22:00      -94.740        0.608      -13.583       41.129       37.310       30.375     1691.602     1392.023      922.627        0.658        0.200       94.742       24.535        0.067      339.402       12.708      854.968
05/05/2013  22:23:00     -133.422      -38.221       -8.986       77.593       55.954       33.094     6020.643     3130.879     1095.200        1.479        0.512      138.789       31.492        0.051      339.416       12.733      854.974
05/05/2013  22:24:00      -64.566      -31.243       -0.314       48.945       37.774       25.665     2395.570     1426.913      658.694        0.481        0.224       71.728       20.193        0.079      339.434       12.766      854.990
05/05/2013  22:25:00      -75.797      -57.982        7.726       71.910       52.666       33.018     5171.110     2773.724     1090.198        0.910        0.452       95.431       31.688        0.110      339.434       12.763      855.005
05/05/2013  22:26:00     -125.259      -60.291       -3.797       59.757       58.162       39.508     3570.954     3382.851     1560.907        1.393        0.426      139.014       33.544        0.058      339.432       12.762      855.029
05/05/2013  22:27:00     -119.451       20.221      -16.411       55.935       94.775       35.400     3128.716     8982.356     1253.172        1.415        0.668      121.150       35.232        0.085      339.403       12.714      855.042
05/05/2013  22:28:00     -197.351       -9.505      -20.114       78.356       64.029       31.237     6139.728     4099.768      975.750        2.533        0.561      197.580       32.615        0.027      339.415       12.730      855.041
05/05/2013  22:29:00     -166.711      -64.089       -9.092       65.141       68.612       30.882     4243.285     4707.645      953.699        2.094        0.495      178.605       21.126        0.014      339.398       12.702      855.024
05/05/2013  22:30:00     -137.676       85.377      -13.833       62.856       50.423       40.256     3950.842     2542.482     1620.565        1.727        0.406      162.000       34.975        0.047      339.400       12.707      855.008
05/05/2013  22:31:00     -169.878       48.878      -14.330       49.461       59.377       28.134     2446.370     3525.614      791.523        1.911        0.338      176.770       15.436        0.008      339.414       12.731      854.970
05/05/2013  22:32:00     -242.919      -27.378      -24.659       57.347       49.704       28.968     3288.666     2470.468      839.121        3.348        0.330      244.457       25.498        0.011      339.426       12.747      854.938
05/05/2013  22:33:00     -124.631      -42.639       -7.526       50.202       47.807       26.780     2520.288     2285.467      717.162        1.146        0.276      131.724       23.597        0.032      339.392       12.695      854.913
05/05/2013  22:34:00     -195.583      -24.513       -4.676       76.164       54.986       35.440     5800.955     3023.453     1256.015        2.448        0.504      197.113       31.116        0.025      339.401       12.708      854.899
05/05/2013  22:35:00     -160.520      -21.469       -4.028       65.145       43.818       33.860     4243.844     1920.000     1146.522        1.678        0.366      161.950       33.705        0.043      339.420       12.741      854.904
05/05/2013  22:36:00     -118.756      -24.350        5.961       75.561       48.464       30.033     5709.439     2348.796      901.953        1.184        0.448      121.227       37.463        0.096      339.413       12.730      854.928
05/05/2013  22:37:00      -78.547      -39.750       -4.488       69.364       52.858       25.468     4811.310     2793.958      648.606        0.801        0.413       88.033       32.362        0.135      339.458       12.805      854.956
05/05/2013  22:38:00     -196.768      -69.805        0.563       81.238       68.499       39.399     6599.580     4692.144     1552.292        2.822        0.642      208.783       39.948        0.037      339.364       12.645      854.982
05/05/2013  22:39:00     -122.602      -48.479       -0.688       57.617       57.612       30.413     3319.754     3319.114      924.978        1.247        0.378      131.839       23.770        0.033      339.376       12.668      854.990
05/05/2013  22:40:00     -132.942      -12.986      -13.088       71.233       48.880       26.258     5074.073     2389.224      689.465        1.308        0.408      133.574       24.847        0.035      339.345       12.613      855.000
05/05/2013  22:41:00     -168.726      -53.672      -18.924       88.164       71.771       40.998     7772.805     5151.053     1680.796        2.315        0.730      177.057       42.493        0.058      339.320       12.568      854.997
05/05/2013  22:42:00     -171.354      -60.958      -14.649       66.631       44.496       26.907     4439.646     1979.937      723.968        2.022        0.357      181.874       29.689        0.027      339.302       12.539      854.996
05/05/2013  22:43:00     -140.802      -40.791       -2.247       66.341       55.547       29.236     4401.187     3085.470      854.731        1.492        0.417      146.591       26.477        0.033      339.295       12.529      855.003
05/05/2013  22:44:00     -179.540       15.724       -8.681       51.218       52.009       29.006     2623.246     2704.907      841.320        1.936        0.308      180.228       29.632        0.027      339.287       12.517      855.013
05/05/2013  22:45:00     -142.396      -26.370      -12.835       38.946       44.223       26.679     1516.812     1955.665      711.756        1.266        0.209      144.817       19.335        0.018      339.280       12.505      855.028
05/05/2013  22:46:00     -181.620      -46.330      -18.662       57.485       45.780       31.160     3304.511     2095.782      970.954        2.092        0.319      187.436       27.553        0.022      339.316       12.564      855.051
05/05/2013  22:47:00     -145.675      -46.665       -9.342       52.314       35.644       24.952     2736.727     1270.460      622.600        1.406        0.231      152.967       25.801        0.028      339.324       12.579      855.071
05/05/2013  22:48:00     -130.212      -14.724       -9.971       43.214       41.446       27.375     1867.410     1717.741      749.413        1.080        0.217      131.042       23.908        0.033      339.343       12.611      855.085
05/05/2013  22:49:00     -148.463        5.278      -19.008       27.030       42.318       22.971      730.623     1790.845      527.688        1.274        0.152      148.557       18.346        0.015      339.313       12.559      855.093
05/05/2013  22:50:00     -133.940      -51.488       -9.030       40.476       42.731       17.777     1638.288     1825.941      316.033        1.223        0.189      143.495       10.673        0.006      339.337       12.601      855.091
05/05/2013  22:51:00     -191.655      -55.862       -9.919       74.030       51.516       34.584     5480.372     2653.889     1196.055        2.464        0.467      199.631       37.690        0.036      339.299       12.534      855.086
05/05/2013  22:52:00     -151.577      -32.660        1.769       64.499       53.407       39.138     4160.097     2852.318     1531.774        1.629        0.427      155.056       36.643        0.056      339.314       12.561      855.076
05/05/2013  22:53:00     -235.317      -41.417      -21.898       68.236       59.170       33.861     4656.122     3501.034     1146.563        3.343        0.465      238.934       28.367        0.014      339.323       12.575      855.082
05/05/2013  22:54:00     -145.421      -31.106       -6.509       57.047       60.815       35.672     3254.322     3698.425     1272.479        1.519        0.411      148.711       33.163        0.050      339.293       12.526      855.084
05/05/2013  22:55:00     -293.638     -138.007      -15.807       79.998       68.245       43.692     6399.658     4657.391     1909.033        5.924        0.648      324.452       36.121        0.012      339.367       12.649      855.100
05/05/2013  22:56:00     -213.615      -60.966        1.262       73.703       68.216       35.069     5432.169     4653.397     1229.868        3.033        0.566      222.145       35.997        0.026      339.328       12.583      855.116
05/05/2013  22:57:00     -174.640      -38.441        4.119       86.856       63.337       44.563     7543.972     4011.540     1985.818        2.277        0.677      178.821       44.895        0.063      339.302       12.540      855.107
05/05/2013  22:58:00     -242.186      -53.220        1.394       89.741       77.701       40.516     8053.514     6037.475     1641.577        3.861        0.787      247.965       38.165        0.024      339.307       12.548      855.088
05/05/2013  22:59:00     -189.053     -102.398       -2.557       93.973      102.211       48.413     8830.885    10447.141     2343.811        3.392        1.081      215.003       53.075        0.061      339.327       12.580      855.072
05/05/2013  23:00:00     -222.030      -34.183      -14.389       77.279       48.479       39.603     5972.003     2350.217     1568.366        3.028        0.495      224.646       40.441        0.032      339.295       12.526      855.082
05/05/2013  23:01:00     -227.651      -68.670      -11.564       68.671       66.456       36.583     4715.731     4416.391     1338.303        3.357        0.524      237.783       35.058        0.022      339.297       12.529      855.094
05/05/2013  23:02:00     -211.962      -36.342       -7.108       93.322       72.671       36.936     8709.050     5281.104     1364.277        3.082        0.768      215.055       42.664        0.039      339.269       12.484      855.099
05/05/2013  23:03:00      -96.110      -33.843       17.964       83.180       67.719       35.389     6918.875     4585.847     1252.361        1.173        0.638      101.895       40.324        0.157      339.307       12.549      855.115
05/05/2013  23:04:00     -132.540      -35.368       -5.996       43.964       63.643       26.308     1932.830     4050.457      692.112        1.276        0.334      137.178       22.418        0.027      339.299       12.537      855.137
05/05/2013  23:05:00     -172.367      -30.163      -11.095       65.827       46.234       32.355     4333.146     2137.619     1046.839        1.913        0.376      174.987       32.408        0.034      339.301       12.538      855.158
05/05/2013  23:06:00     -204.133      -46.593      -13.428       44.209       47.834       23.614     1954.442     2288.112      557.607        2.441        0.240      209.383       16.563        0.006      339.308       12.548      855.185
05/05/2013  23:07:00     -108.109      -24.438       11.431       77.741       52.395       38.628     6043.685     2745.222     1492.131        1.135        0.514      110.837       33.321        0.090      339.355       12.631      855.202
05/05/2013  23:08:00     -131.229      -48.385       -8.925       54.515       42.248       23.312     2971.885     1784.929      543.453        1.247        0.265      139.864       18.511        0.018      339.375       12.666      855.205
05/05/2013  23:09:00     -152.760     -111.070       -6.578       51.840       47.501       33.566     2687.433     2256.390     1126.705        2.089        0.304      188.870       23.628        0.016      339.356       12.631      855.211
05/05/2013  23:10:00     -165.610      -58.058      -13.214       66.533       45.334       28.035     4426.590     2055.171      785.957        1.912        0.363      175.492       25.060        0.020      339.329       12.585      855.217
05/05/2013  23:11:00     -125.041      -48.623       -2.376       60.138       52.124       29.665     3616.631     2716.906      880.011        1.261        0.361      134.163       21.213        0.025      339.339       12.605      855.214
05/05/2013  23:12:00     -207.368      -55.386       -1.542       85.804       58.361       37.753     7362.243     3405.972     1425.271        2.913        0.610      214.637       38.674        0.032      339.302       12.539      855.207
05/05/2013  23:13:00     -237.232      -73.148       -4.193       72.664       83.643       40.635     5280.016     6996.225     1651.185        3.778        0.696      248.253       38.549        0.024      339.299       12.532      855.193
05/05/2013  23:14:00     -227.742     -119.646      -11.783       78.475       71.505       43.855     6158.323     5113.029     1923.290        3.976        0.660      257.258       42.547        0.027      339.329       12.583      855.166
05/05/2013  23:15:00     -233.575      -96.757       -5.664      100.347      104.123       47.815    10069.600    10841.519     2286.304        4.357        1.160      252.822       47.901        0.036      339.319       12.566      855.140
05/05/2013  23:16:00     -228.660      -68.610       -3.478      110.518      114.529       56.473    12214.208    13116.993     3189.191        4.276        1.426      238.732       63.421        0.071      339.317       12.564      855.123
05/05/2013  23:17:00     -173.838      -31.789       -6.433       71.967       72.847       42.786     5179.312     5306.738     1830.600        2.179        0.616      176.721       38.322        0.047      339.296       12.530      855.094
05/05/2013  23:18:00     -261.173      -31.596      -18.175      115.628       66.022       43.669    13369.934     4358.913     1907.019        4.458        0.982      263.077       49.476        0.035      339.262       12.472      855.057
05/05/2013  23:19:00     -249.598      -36.790      -15.001       68.269       65.132       37.233     4660.598     4242.189     1386.306        3.708        0.514      252.295       27.861        0.012      339.228       12.414      855.016
05/05/2013  23:20:00     -264.748      -49.822      -10.672      100.298       84.737       51.862    10059.670     7180.392     2689.642        4.631        0.996      269.396       54.925        0.042      339.226       12.413      854.988
05/05/2013  23:21:00     -231.137      -58.059        0.326      105.436       73.369       42.693    11116.645     5382.944     1822.697        3.756        0.916      238.317       50.370        0.045      339.218       12.399      854.970
05/05/2013  23:22:00     -254.003      -81.404      -15.530       84.758       56.963       43.529     7183.951     3244.791     1894.749        4.185        0.616      266.728       38.534        0.021      339.249       12.451      854.960
05/05/2013  23:23:00     -196.997      -83.501      -12.544       60.080       48.765       36.945     3609.617     2377.978     1364.939        2.664        0.368      213.963       33.199        0.024      339.240       12.434      854.960
05/05/2013  23:24:00     -260.126      -75.093      -17.302      113.638       55.882       40.560    12913.583     3122.796     1645.091        4.564        0.884      270.748       38.842        0.021      339.225       12.409      854.958
05/05/2013  23:25:00     -238.132      -59.872       -4.849      107.019       91.054       44.228    11453.136     8290.893     1956.146        4.100        1.085      245.544       45.644        0.035      339.203       12.372      854.957
05/05/2013  23:26:00     -229.255      -73.916       -5.231       97.330       61.924       39.527     9473.078     3834.568     1562.366        3.646        0.744      240.877       45.619        0.036      339.194       12.356      854.938
05/05/2013  23:27:00     -196.660      -59.766       -3.138      100.670       94.437       52.151    10134.448     8918.405     2719.750        3.201        1.089      205.541       57.062        0.077      339.205       12.377      854.923
05/05/2013  23:28:00     -209.437      -48.337        2.493       84.725       78.428       52.657     7178.361     6150.956     2772.789        3.115        0.805      214.942       46.099        0.046      339.173       12.321      854.904
05/05/2013  23:29:00     -290.612      -78.578      -11.467      150.193       90.219       56.461    22558.069     8139.530     3187.789        6.232        1.694      301.048       66.380        0.049      339.200       12.368      854.890
05/05/2013  23:30:00     -298.484     -104.687      -11.686      112.252       89.497       64.068    12600.510     8009.709     4104.653        6.245        1.236      316.310       65.734        0.043      339.160       12.300      854.877
05/05/2013  23:31:00     -373.406      -60.402      -32.769      121.126       99.920       64.194    14671.493     9984.083     4120.820        8.646        1.439      378.260       62.412        0.027      339.179       12.332      854.840
05/05/2013  23:32:00     -255.018      -32.762       -3.596      122.708      100.165       56.029    15057.322    10033.093     3139.298        4.717        1.411      257.114       57.671        0.050      339.191       12.352      854.829
05/05/2013  23:33:00     -224.946      -49.341      -12.189      107.046       99.739       52.990    11458.896     9947.818     2807.957        3.870        1.211      230.294       54.366        0.056      339.176       12.328      854.834
05/05/2013  23:34:00     -169.436      -77.039       11.447      141.433       73.920       58.942    20003.191     5464.184     3474.198        3.185        1.447      186.128       71.740        0.149      339.192       12.355      854.864
05/05/2013  23:35:00     -238.620       -2.827       -9.103      133.945       79.055       48.164    17941.166     6249.628     2319.760        4.177        1.326      238.637       54.021        0.051      339.194       12.358      854.886
05/05/2013  23:36:00     -217.937      -71.066       11.493      100.300       87.515       46.360    10060.096     7658.906     2149.203        3.627        0.993      229.231       47.659        0.043      339.136       12.260      854.922
05/05/2013  23:37:00     -220.707        6.355      -11.919       98.803       71.697       31.213     9761.940     5140.392      974.224        3.238        0.794      220.798       41.287        0.035      339.168       12.313      854.963
05/05/2013  23:38:00     -117.042      -20.609       -0.525       53.787       52.787       30.977     2892.993     2786.456      959.584        1.038        0.332      118.842       25.778        0.047      339.161       12.304      855.008
05/05/2013  23:39:00      -67.962       -3.007       -2.565       34.949       36.271       25.148     1221.401     1315.565      632.429        0.390        0.158       68.028       17.959        0.070      339.133       12.258      855.028
05/05/2013  23:40:00      -93.867      -38.792       -8.189       48.048       43.148       19.625     2308.581     1861.790      385.148        0.747        0.228      101.567       13.349        0.017      339.142       12.271      855.044
05/05/2013  23:41:00     -125.459      -70.375       -1.633       60.648       42.613       24.796     3678.215     1815.872      614.818        1.340        0.305      143.849       20.242        0.020      339.139       12.267      855.066
05/05/2013  23:42:00     -103.700      -35.735       13.836       84.114       83.372       28.226     7075.120     6950.937      796.731        1.352        0.741      109.684       29.186        0.071      339.138       12.264      855.077
05/05/2013  23:43:00      -99.298      -50.593        1.368       51.963       61.065       34.115     2700.119     3728.951     1163.845        1.001        0.380      111.443       29.333        0.069      339.103       12.208      855.077
05/05/2013  23:44:00      -96.260      -38.452       -8.397       59.726       33.696       25.927     3567.167     1135.404      672.203        0.809        0.269      103.656       29.364        0.080      339.109       12.215      855.082
05/05/2013  23:45:00      -70.835      -39.620        1.909       80.466       46.953       30.571     6474.709     2204.560      934.558        0.810        0.481       81.162       41.041        0.256      339.114       12.225      855.085
05/05/2013  23:46:00     -145.571      -16.969       -4.327       47.423       36.228       32.831     2248.940     1312.501     1077.870        1.307        0.232      146.557       25.824        0.031      339.073       12.156      855.091
05/05/2013  23:47:00     -103.851      -18.486       -4.124       50.391       34.960       23.729     2539.204     1222.216      563.045        0.773        0.216      105.484       17.934        0.029      339.052       12.121      855.097
05/05/2013  23:48:00     -147.360      -69.922       -2.216       56.041       42.836       33.862     3140.635     1834.912     1146.618        1.636        0.306      163.107       34.737        0.045      339.084       12.175      855.104
05/05/2013  23:49:00     -140.081      -48.809       -5.089       44.648       52.099       24.845     1993.461     2714.306      617.282        1.368        0.266      148.341       23.783        0.026      339.056       12.130      855.111
05/05/2013  23:50:00      -64.965      -64.628        3.678       65.148       56.794       38.557     4244.246     3225.611     1486.627        0.868        0.448       91.636       32.159        0.123      339.098       12.196      855.115
05/05/2013  23:51:00     -146.747     -113.299        2.080       71.089       61.940       39.736     5053.654     3836.526     1578.974        2.242        0.523      185.395       37.138        0.040      339.083       12.173      855.109
05/05/2013  23:52:00     -187.506     -141.721      -11.178       91.502       66.533       42.376     8372.685     4426.603     1795.740        3.498        0.730      235.039       42.506        0.033      339.099       12.198      855.114
05/05/2013  23:53:00     -130.646      -97.277       -9.305       74.443       63.040       34.792     5541.782     3974.039     1210.473        1.867        0.536      162.884       42.403        0.068      339.123       12.241      855.118
05/05/2013  23:54:00     -181.846      -95.316       -8.761       43.539       59.879       25.720     1895.676     3585.543      661.500        2.419        0.307      205.313       23.418        0.013      339.081       12.169      855.116
05/05/2013  23:55:00     -191.670      -95.327        4.295       55.947       79.314       32.982     3130.045     6290.661     1087.820        2.817        0.525      214.066       26.271        0.015      339.088       12.180      855.114
05/05/2013  23:56:00     -107.425     -105.762        4.567       82.141       77.062       49.478     6747.091     5938.576     2448.056        1.894        0.757      150.750       49.922        0.110      339.051       12.119      855.108
05/05/2013  23:57:00     -145.171      -44.182        2.107       83.731       70.181       35.629     7010.813     4925.375     1269.418        1.812        0.660      151.745       38.129        0.063      339.061       12.136      855.124
05/05/2013  23:58:00     -107.947      -52.837       -5.228       53.652       40.799       24.687     2878.518     1664.567      609.442        0.981        0.258      120.185       24.771        0.042      339.004       12.040      855.137
05/05/2013  23:59:00     -155.174      -18.640       -2.697       84.583       53.032       41.416     7154.360     2812.386     1715.303        1.806        0.584      156.290       44.762        0.082      338.946       11.941      855.133
